Wetterdaten: Montag, 10.07.2017
Datum Zeit Temp. A. Pool Temp. Feuchte A. Luftdruck Regen Wind Richtung Richtung Sonnenschein ET UV Solar Taupunkt Windchill Windben Empfang
10.07.2017 00:00 19,1 C 25,6 C 89 % 1010,4 hPa 0,0 l/m 0,1 km/h (0 Bft) SO 138 0 min 0,000 mm 0,0 UV-I 0 W/m 17,2 C 19,1 C 1,6 km/h (1 Bft) 95,74 %
10.07.2017 00:02 19,0 C 25,6 C 89 % 1010,3 hPa 0,0 l/m 0,8 km/h (0 Bft) SO 135 0 min 0,000 mm 0,0 UV-I 0 W/m 17,1 C 19,0 C 3,2 km/h (1 Bft) 92,50 %
10.07.2017 00:04 19,0 C 25,6 C 89 % 1010,2 hPa 0,0 l/m 0,8 km/h (0 Bft) SO 126 0 min 0,000 mm 0,0 UV-I 0 W/m 17,1 C 19,0 C 3,2 km/h (1 Bft) 98,00 %
10.07.2017 00:06 19,0 C 25,6 C 89 % 1010,2 hPa 0,0 l/m 2,6 km/h (1 Bft) N-NO 13 0 min 0,000 mm 0,0 UV-I 0 W/m 17,1 C 19,0 C 6,4 km/h (2 Bft) 97,87 %
10.07.2017 00:08 18,9 C 25,6 C 90 % 1010,1 hPa 0,0 l/m 5,1 km/h (1 Bft) N-NO 27 0 min 0,000 mm 0,0 UV-I 0 W/m 17,2 C 18,9 C 8,0 km/h (2 Bft) 95,74 %
10.07.2017 00:10 18,9 C 25,6 C 90 % 1009,9 hPa 0,0 l/m 4,6 km/h (1 Bft) N-NO 24 0 min 0,000 mm 0,0 UV-I 0 W/m 17,2 C 18,9 C 9,7 km/h (2 Bft) 97,87 %
10.07.2017 00:12 18,9 C 25,6 C 89 % 1009,8 hPa 0,0 l/m 7,6 km/h (2 Bft) N 11 0 min 0,000 mm 0,0 UV-I 0 W/m 17,0 C 18,4 C 11,3 km/h (2 Bft) 97,92 %
10.07.2017 00:14 18,8 C 25,6 C 90 % 1009,8 hPa 0,0 l/m 6,3 km/h (2 Bft) N-NO 27 0 min 0,000 mm 0,0 UV-I 0 W/m 17,1 C 18,8 C 11,3 km/h (2 Bft) 93,62 %
10.07.2017 00:16 18,8 C 25,6 C 90 % 1009,8 hPa 0,0 l/m 8,7 km/h (2 Bft) N-NO 23 0 min 0,000 mm 0,0 UV-I 0 W/m 17,1 C 17,8 C 14,5 km/h (3 Bft) 94,29 %
10.07.2017 00:18 18,8 C 25,6 C 90 % 1009,8 hPa 0,0 l/m 8,3 km/h (2 Bft) N-NO 15 0 min 0,000 mm 0,0 UV-I 0 W/m 17,1 C 18,0 C 12,9 km/h (3 Bft) 94,00 %
10.07.2017 00:20 18,8 C 25,6 C 90 % 1009,8 hPa 0,0 l/m 6,7 km/h (2 Bft) N-NO 16 0 min 0,000 mm 0,0 UV-I 0 W/m 17,1 C 18,7 C 11,3 km/h (2 Bft) 95,74 %
10.07.2017 00:22 18,8 C 25,6 C 91 % 1009,9 hPa 0,0 l/m 4,9 km/h (1 Bft) N-NO 14 0 min 0,000 mm 0,0 UV-I 0 W/m 17,3 C 18,8 C 11,3 km/h (2 Bft) 95,74 %
10.07.2017 00:24 18,8 C 25,6 C 91 % 1009,9 hPa 0,0 l/m 3,4 km/h (1 Bft) N-NO 17 0 min 0,000 mm 0,0 UV-I 0 W/m 17,3 C 18,8 C 8,0 km/h (2 Bft) 96,00 %
10.07.2017 00:26 18,8 C 25,6 C 91 % 1009,8 hPa 0,0 l/m 5,0 km/h (1 Bft) N-NO 22 0 min 0,000 mm 0,0 UV-I 0 W/m 17,3 C 18,8 C 8,0 km/h (2 Bft) 95,74 %
10.07.2017 00:28 18,8 C 25,6 C 92 % 1009,9 hPa 0,0 l/m 6,8 km/h (2 Bft) N-NO 19 0 min 0,000 mm 0,0 UV-I 0 W/m 17,5 C 18,6 C 8,0 km/h (2 Bft) 95,74 %
10.07.2017 00:30 18,8 C 25,6 C 92 % 1009,9 hPa 0,0 l/m 4,6 km/h (1 Bft) N-NO 15 0 min 0,000 mm 0,0 UV-I 0 W/m 17,5 C 18,8 C 8,0 km/h (2 Bft) 97,92 %
10.07.2017 00:32 18,8 C 25,6 C 92 % 1010,0 hPa 0,0 l/m 3,6 km/h (1 Bft) N-NO 24 0 min 0,000 mm 0,0 UV-I 0 W/m 17,5 C 18,8 C 6,4 km/h (2 Bft) 97,87 %
10.07.2017 00:34 18,8 C 25,6 C 92 % 1010,0 hPa 0,0 l/m 0,8 km/h (0 Bft) N-NW 329 0 min 0,000 mm 0,0 UV-I 0 W/m 17,5 C 18,8 C 3,2 km/h (1 Bft) 97,87 %
10.07.2017 00:36 18,8 C 25,6 C 92 % 1010,3 hPa 0,0 l/m 2,7 km/h (1 Bft) N-NW 328 0 min 0,000 mm 0,0 UV-I 0 W/m 17,5 C 18,8 C 6,4 km/h (2 Bft) 98,00 %
10.07.2017 00:38 18,8 C 25,6 C 92 % 1010,5 hPa 0,0 l/m 2,6 km/h (1 Bft) NW 311 0 min 0,000 mm 0,0 UV-I 0 W/m 17,5 C 18,8 C 6,4 km/h (2 Bft) 97,87 %
10.07.2017 00:40 18,8 C 25,6 C 92 % 1010,6 hPa 0,0 l/m 1,7 km/h (1 Bft) W-NW 301 0 min 0,000 mm 0,0 UV-I 0 W/m 17,5 C 18,8 C 4,8 km/h (1 Bft) 100,00 %
10.07.2017 00:42 18,8 C 25,6 C 93 % 1010,7 hPa 0,0 l/m 4,7 km/h (1 Bft) S-SW 200 0 min 0,000 mm 0,0 UV-I 0 W/m 17,6 C 18,8 C 8,0 km/h (2 Bft) 93,62 %
10.07.2017 00:44 18,8 C 25,6 C 93 % 1010,9 hPa 0,0 l/m 4,9 km/h (1 Bft) SW 229 0 min 0,000 mm 0,0 UV-I 0 W/m 17,6 C 18,8 C 8,0 km/h (2 Bft) 97,87 %
10.07.2017 00:46 18,8 C 25,6 C 93 % 1011,0 hPa 0,0 l/m 5,0 km/h (1 Bft) SW 231 0 min 0,000 mm 0,0 UV-I 0 W/m 17,6 C 18,8 C 8,0 km/h (2 Bft) 95,74 %
10.07.2017 00:48 18,8 C 25,6 C 93 % 1011,0 hPa 0,0 l/m 1,5 km/h (1 Bft) SW 229 0 min 0,000 mm 0,0 UV-I 0 W/m 17,6 C 18,8 C 4,8 km/h (1 Bft) 97,37 %
10.07.2017 00:50 18,8 C 25,6 C 93 % 1011,0 hPa 0,0 l/m 0,2 km/h (0 Bft) SW 229 0 min 0,000 mm 0,0 UV-I 0 W/m 17,6 C 18,8 C 1,6 km/h (1 Bft) 95,74 %
10.07.2017 00:52 18,7 C 25,6 C 93 % 1010,8 hPa 0,0 l/m 0,0 km/h (0 Bft) SW 229 0 min 0,000 mm 0,0 UV-I 0 W/m 17,5 C 18,7 C 1,6 km/h (1 Bft) 97,87 %
10.07.2017 00:54 18,7 C 25,6 C 94 % 1010,8 hPa 0,0 l/m 0,1 km/h (0 Bft) SW 229 0 min 0,000 mm 0,0 UV-I 0 W/m 17,7 C 18,7 C 1,6 km/h (1 Bft) 100,00 %
10.07.2017 00:56 18,6 C 25,6 C 94 % 1010,8 hPa 0,0 l/m 1,4 km/h (1 Bft) SW 229 0 min 0,000 mm 0,0 UV-I 0 W/m 17,6 C 18,6 C 3,2 km/h (1 Bft) 100,00 %
10.07.2017 00:58 18,6 C 25,6 C 94 % 1010,8 hPa 0,0 l/m 2,8 km/h (1 Bft) SW 229 0 min 0,000 mm 0,0 UV-I 0 W/m 17,6 C 18,6 C 4,8 km/h (1 Bft) 97,87 %
10.07.2017 01:00 18,6 C 25,6 C 94 % 1010,8 hPa 0,0 l/m 2,8 km/h (1 Bft) SW 229 0 min 0,000 mm 0,0 UV-I 0 W/m 17,6 C 18,6 C 4,8 km/h (1 Bft) 100,00 %
10.07.2017 01:01 18,6 C 25,6 C 94 % 1010,8 hPa 0,0 l/m 2,4 km/h (1 Bft) SW 229 0 min 0,000 mm 0,0 UV-I 0 W/m 17,6 C 18,6 C 3,2 km/h (1 Bft) 96,00 %
10.07.2017 01:04 18,6 C 25,6 C 95 % 1010,7 hPa 0,0 l/m 1,5 km/h (1 Bft) SW 229 0 min 0,000 mm 0,0 UV-I 0 W/m 17,8 C 18,6 C 3,2 km/h (1 Bft) 95,74 %
10.07.2017 01:06 18,6 C 25,6 C 95 % 1010,4 hPa 0,0 l/m 1,6 km/h (1 Bft) NO 38 0 min 0,000 mm 0,0 UV-I 0 W/m 17,8 C 18,6 C 6,4 km/h (2 Bft) 95,74 %
10.07.2017 01:08 18,6 C 25,6 C 95 % 1010,1 hPa 0,0 l/m 6,9 km/h (2 Bft) N-NO 32 0 min 0,000 mm 0,0 UV-I 0 W/m 17,8 C 18,4 C 11,3 km/h (2 Bft) 95,74 %
10.07.2017 01:10 18,5 C 25,6 C 95 % 1010,1 hPa 0,0 l/m 5,8 km/h (2 Bft) N-NO 22 0 min 0,000 mm 0,0 UV-I 0 W/m 17,7 C 18,5 C 8,0 km/h (2 Bft) 95,83 %
10.07.2017 01:12 18,4 C 25,6 C 95 % 1009,9 hPa 0,0 l/m 4,0 km/h (1 Bft) N 5 0 min 0,000 mm 0,0 UV-I 0 W/m 17,6 C 18,4 C 8,0 km/h (2 Bft) 91,49 %
10.07.2017 01:14 18,4 C 25,6 C 95 % 1009,7 hPa 0,0 l/m 2,7 km/h (1 Bft) N-NO 27 0 min 0,000 mm 0,0 UV-I 0 W/m 17,6 C 18,4 C 6,4 km/h (2 Bft) 97,87 %
10.07.2017 01:16 18,4 C 25,6 C 95 % 1009,5 hPa 0,0 l/m 4,6 km/h (1 Bft) N-NO 13 0 min 0,000 mm 0,0 UV-I 0 W/m 17,6 C 18,4 C 11,3 km/h (2 Bft) 93,62 %
10.07.2017 01:18 18,4 C 25,6 C 95 % 1009,3 hPa 0,0 l/m 5,4 km/h (1 Bft) N-NO 17 0 min 0,000 mm 0,0 UV-I 0 W/m 17,6 C 18,4 C 11,3 km/h (2 Bft) 97,87 %
10.07.2017 01:20 18,4 C 25,6 C 95 % 1009,2 hPa 0,0 l/m 9,0 km/h (2 Bft) NO 46 0 min 0,000 mm 0,0 UV-I 0 W/m 17,6 C 17,3 C 12,9 km/h (3 Bft) 97,87 %
10.07.2017 01:22 18,4 C 25,6 C 95 % 1009,2 hPa 0,0 l/m 8,2 km/h (2 Bft) O-NO 58 0 min 0,000 mm 0,0 UV-I 0 W/m 17,6 C 17,6 C 11,3 km/h (2 Bft) 97,87 %
10.07.2017 01:24 18,5 C 25,6 C 95 % 1009,2 hPa 0,0 l/m 5,1 km/h (1 Bft) NO 56 0 min 0,000 mm 0,0 UV-I 0 W/m 17,7 C 18,5 C 8,0 km/h (2 Bft) 95,74 %
10.07.2017 01:26 18,4 C 25,6 C 95 % 1009,2 hPa 0,0 l/m 3,1 km/h (1 Bft) N-NO 23 0 min 0,000 mm 0,0 UV-I 0 W/m 17,6 C 18,4 C 8,0 km/h (2 Bft) 98,00 %
10.07.2017 01:28 18,4 C 25,6 C 95 % 1009,2 hPa 0,0 l/m 5,0 km/h (1 Bft) N 11 0 min 0,000 mm 0,0 UV-I 0 W/m 17,6 C 18,4 C 8,0 km/h (2 Bft) 95,83 %
10.07.2017 01:30 18,4 C 25,6 C 95 % 1009,3 hPa 0,0 l/m 3,5 km/h (1 Bft) N-NO 33 0 min 0,000 mm 0,0 UV-I 0 W/m 17,6 C 18,4 C 8,0 km/h (2 Bft) 97,37 %
10.07.2017 01:32 18,4 C 25,6 C 95 % 1009,5 hPa 0,0 l/m 0,3 km/h (0 Bft) NO 40 0 min 0,000 mm 0,0 UV-I 0 W/m 17,6 C 18,4 C 3,2 km/h (1 Bft) 95,74 %
10.07.2017 01:34 18,5 C 25,6 C 96 % 1009,6 hPa 0,0 l/m 1,1 km/h (1 Bft) O-SO 119 0 min 0,000 mm 0,0 UV-I 0 W/m 17,8 C 18,5 C 3,2 km/h (1 Bft) 95,74 %
10.07.2017 01:36 18,5 C 25,6 C 95 % 1009,5 hPa 0,0 l/m 0,6 km/h (0 Bft) O-SO 119 0 min 0,000 mm 0,0 UV-I 0 W/m 17,7 C 18,5 C 3,2 km/h (1 Bft) 93,62 %
10.07.2017 01:38 18,5 C 25,6 C 95 % 1009,4 hPa 0,0 l/m 2,4 km/h (1 Bft) O-SO 117 0 min 0,000 mm 0,0 UV-I 0 W/m 17,7 C 18,5 C 4,8 km/h (1 Bft) 97,87 %
10.07.2017 01:40 18,5 C 25,6 C 95 % 1009,2 hPa 0,0 l/m 5,6 km/h (1 Bft) O-NO 78 0 min 0,000 mm 0,0 UV-I 0 W/m 17,7 C 18,5 C 6,4 km/h (2 Bft) 95,74 %
10.07.2017 01:42 18,4 C 25,6 C 95 % 1009,1 hPa 0,0 l/m 7,2 km/h (2 Bft) O 89 0 min 0,000 mm 0,0 UV-I 0 W/m 17,6 C 18,0 C 11,3 km/h (2 Bft) 97,87 %
10.07.2017 01:44 18,4 C 25,6 C 96 % 1009,0 hPa 0,0 l/m 7,2 km/h (2 Bft) O 96 0 min 0,000 mm 0,0 UV-I 0 W/m 17,7 C 18,0 C 11,3 km/h (2 Bft) 95,74 %
10.07.2017 01:46 18,4 C 25,6 C 96 % 1009,0 hPa 0,0 l/m 4,1 km/h (1 Bft) O 92 0 min 0,000 mm 0,0 UV-I 0 W/m 17,7 C 18,4 C 6,4 km/h (2 Bft) 96,00 %
10.07.2017 01:48 18,4 C 25,6 C 96 % 1008,7 hPa 0,0 l/m 5,2 km/h (1 Bft) O 87 0 min 0,000 mm 0,0 UV-I 0 W/m 17,7 C 18,4 C 8,0 km/h (2 Bft) 98,00 %
10.07.2017 01:50 18,4 C 25,6 C 96 % 1008,3 hPa 0,0 l/m 14,7 km/h (3 Bft) O 94 0 min 0,000 mm 0,0 UV-I 0 W/m 17,7 C 15,4 C 19,3 km/h (3 Bft) 97,87 %
10.07.2017 01:52 18,4 C 25,6 C 96 % 1008,0 hPa 0,0 l/m 17,1 km/h (3 Bft) O 93 0 min 0,000 mm 0,0 UV-I 0 W/m 17,7 C 14,8 C 20,9 km/h (4 Bft) 100,00 %
10.07.2017 01:54 18,4 C 25,6 C 96 % 1007,6 hPa 0,0 l/m 19,8 km/h (3 Bft) O-NO 74 0 min 0,000 mm 0,0 UV-I 0 W/m 17,7 C 14,2 C 27,4 km/h (4 Bft) 96,00 %
10.07.2017 01:56 18,4 C 25,6 C 96 % 1007,7 hPa 0,0 l/m 16,0 km/h (3 Bft) O 87 0 min 0,000 mm 0,0 UV-I 0 W/m 17,7 C 15,1 C 22,5 km/h (4 Bft) 95,83 %
10.07.2017 01:58 18,4 C 25,6 C 96 % 1008,0 hPa 0,0 l/m 14,8 km/h (3 Bft) NO 44 0 min 0,000 mm 0,0 UV-I 0 W/m 17,7 C 15,4 C 25,7 km/h (4 Bft) 91,49 %
10.07.2017 02:00 18,4 C 25,6 C 96 % 1008,2 hPa 0,0 l/m 10,3 km/h (2 Bft) NO 55 0 min 0,000 mm 0,0 UV-I 0 W/m 17,7 C 16,8 C 17,7 km/h (3 Bft) 96,00 %
10.07.2017 02:02 18,4 C 25,6 C 96 % 1008,2 hPa 0,0 l/m 8,8 km/h (2 Bft) O-NO 65 0 min 0,000 mm 0,0 UV-I 0 W/m 17,7 C 17,3 C 17,7 km/h (3 Bft) 92,00 %
10.07.2017 02:04 18,4 C 25,6 C 96 % 1008,3 hPa 0,0 l/m 4,9 km/h (1 Bft) NO 53 0 min 0,000 mm 0,0 UV-I 0 W/m 17,7 C 18,4 C 8,0 km/h (2 Bft) 92,11 %
10.07.2017 02:06 18,4 C 25,6 C 96 % 1008,3 hPa 0,0 l/m 5,3 km/h (1 Bft) O 87 0 min 0,000 mm 0,0 UV-I 0 W/m 17,7 C 18,4 C 8,0 km/h (2 Bft) 91,49 %
10.07.2017 02:08 18,4 C 25,6 C 96 % 1008,5 hPa 0,0 l/m 6,7 km/h (2 Bft) O-SO 120 0 min 0,000 mm 0,0 UV-I 0 W/m 17,7 C 18,3 C 11,3 km/h (2 Bft) 97,87 %
10.07.2017 02:10 18,4 C 25,6 C 96 % 1008,6 hPa 0,0 l/m 3,6 km/h (1 Bft) S-SO 150 0 min 0,000 mm 0,0 UV-I 0 W/m 17,7 C 18,4 C 6,4 km/h (2 Bft) 93,62 %
10.07.2017 02:12 18,4 C 25,6 C 96 % 1008,6 hPa 0,0 l/m 2,7 km/h (1 Bft) O-SO 107 0 min 0,000 mm 0,0 UV-I 0 W/m 17,7 C 18,4 C 8,0 km/h (2 Bft) 95,74 %
10.07.2017 02:14 18,4 C 25,6 C 96 % 1008,6 hPa 0,0 l/m 3,3 km/h (1 Bft) O 101 0 min 0,000 mm 0,0 UV-I 0 W/m 17,7 C 18,4 C 6,4 km/h (2 Bft) 96,23 %
10.07.2017 02:16 18,4 C 25,6 C 96 % 1008,6 hPa 0,0 l/m 6,8 km/h (2 Bft) O-NO 70 0 min 0,000 mm 0,0 UV-I 0 W/m 17,7 C 18,2 C 16,1 km/h (3 Bft) 91,67 %
10.07.2017 02:18 18,4 C 25,6 C 96 % 1008,6 hPa 0,0 l/m 5,4 km/h (1 Bft) SO 130 0 min 0,000 mm 0,0 UV-I 0 W/m 17,7 C 18,4 C 9,7 km/h (2 Bft) 97,87 %
10.07.2017 02:20 18,4 C 25,6 C 96 % 1008,5 hPa 0,0 l/m 5,9 km/h (2 Bft) O-NO 65 0 min 0,000 mm 0,0 UV-I 0 W/m 17,7 C 18,4 C 12,9 km/h (3 Bft) 93,62 %
10.07.2017 02:22 18,4 C 25,6 C 96 % 1008,5 hPa 0,0 l/m 4,2 km/h (1 Bft) O-NO 60 0 min 0,000 mm 0,0 UV-I 0 W/m 17,7 C 18,4 C 8,0 km/h (2 Bft) 95,74 %
10.07.2017 02:24 18,4 C 25,6 C 96 % 1008,4 hPa 0,0 l/m 1,7 km/h (1 Bft) O-NO 60 0 min 0,000 mm 0,0 UV-I 0 W/m 17,7 C 18,4 C 4,8 km/h (1 Bft) 95,74 %
10.07.2017 02:26 18,4 C 25,6 C 96 % 1008,4 hPa 0,0 l/m 4,1 km/h (1 Bft) O 94 0 min 0,000 mm 0,0 UV-I 0 W/m 17,7 C 18,4 C 6,4 km/h (2 Bft) 95,74 %
10.07.2017 02:28 18,4 C 25,6 C 96 % 1008,4 hPa 0,0 l/m 5,2 km/h (1 Bft) O 100 0 min 0,000 mm 0,0 UV-I 0 W/m 17,7 C 18,4 C 9,7 km/h (2 Bft) 97,44 %
10.07.2017 02:30 18,4 C 25,6 C 96 % 1008,3 hPa 0,0 l/m 2,2 km/h (1 Bft) O-SO 123 0 min 0,000 mm 0,0 UV-I 0 W/m 17,7 C 18,4 C 4,8 km/h (1 Bft) 95,74 %
10.07.2017 02:32 18,4 C 25,6 C 96 % 1008,2 hPa 0,0 l/m 1,3 km/h (1 Bft) O-SO 123 0 min 0,000 mm 0,0 UV-I 0 W/m 17,7 C 18,4 C 3,2 km/h (1 Bft) 95,74 %
10.07.2017 02:34 18,4 C 25,6 C 96 % 1008,2 hPa 0,0 l/m 2,4 km/h (1 Bft) O-SO 104 0 min 0,000 mm 0,0 UV-I 0 W/m 17,7 C 18,4 C 6,4 km/h (2 Bft) 91,49 %
10.07.2017 02:36 18,3 C 25,6 C 96 % 1008,2 hPa 0,0 l/m 5,2 km/h (1 Bft) O-NO 60 0 min 0,000 mm 0,0 UV-I 0 W/m 17,6 C 18,3 C 9,7 km/h (2 Bft) 97,87 %
10.07.2017 02:38 18,3 C 25,6 C 96 % 1008,2 hPa 0,0 l/m 2,9 km/h (1 Bft) O-NO 67 0 min 0,000 mm 0,0 UV-I 0 W/m 17,6 C 18,3 C 4,8 km/h (1 Bft) 97,87 %
10.07.2017 02:40 18,3 C 25,6 C 96 % 1008,2 hPa 0,0 l/m 2,5 km/h (1 Bft) O 88 0 min 0,000 mm 0,0 UV-I 0 W/m 17,6 C 18,3 C 4,8 km/h (1 Bft) 95,74 %
10.07.2017 02:42 18,2 C 25,6 C 96 % 1008,2 hPa 0,0 l/m 4,2 km/h (1 Bft) O 96 0 min 0,000 mm 0,0 UV-I 0 W/m 17,6 C 18,2 C 6,4 km/h (2 Bft) 95,74 %
10.07.2017 02:44 18,2 C 25,6 C 96 % 1008,2 hPa 0,0 l/m 2,5 km/h (1 Bft) O 96 0 min 0,000 mm 0,0 UV-I 0 W/m 17,6 C 18,2 C 6,4 km/h (2 Bft) 100,00 %
10.07.2017 02:46 18,2 C 25,6 C 96 % 1008,2 hPa 0,0 l/m 0,2 km/h (0 Bft) O 96 0 min 0,000 mm 0,0 UV-I 0 W/m 17,6 C 18,2 C 1,6 km/h (1 Bft) 100,00 %
10.07.2017 02:48 18,2 C 25,6 C 96 % 1008,2 hPa 0,0 l/m 0,3 km/h (0 Bft) O 96 0 min 0,000 mm 0,0 UV-I 0 W/m 17,6 C 18,2 C 1,6 km/h (1 Bft) 100,00 %
10.07.2017 02:50 18,2 C 25,6 C 96 % 1008,2 hPa 0,0 l/m 0,1 km/h (0 Bft) O 96 0 min 0,000 mm 0,0 UV-I 0 W/m 17,6 C 18,2 C 1,6 km/h (1 Bft) 95,74 %
10.07.2017 02:52 18,2 C 25,0 C 96 % 1008,2 hPa 0,0 l/m 0,0 km/h (0 Bft) O 96 0 min 0,000 mm 0,0 UV-I 0 W/m 17,6 C 18,2 C 0,0 km/h (0 Bft) 100,00 %
10.07.2017 02:54 18,1 C 25,0 C 96 % 1008,2 hPa 0,0 l/m 0,3 km/h (0 Bft) O 96 0 min 0,000 mm 0,0 UV-I 0 W/m 17,5 C 18,1 C 1,6 km/h (1 Bft) 95,74 %
10.07.2017 02:56 18,1 C 25,0 C 96 % 1008,1 hPa 0,0 l/m 1,1 km/h (1 Bft) O 96 0 min 0,000 mm 0,0 UV-I 0 W/m 17,5 C 18,1 C 3,2 km/h (1 Bft) 97,87 %
10.07.2017 02:58 17,9 C 25,0 C 96 % 1008,2 hPa 0,0 l/m 0,2 km/h (0 Bft) O 96 0 min 0,000 mm 0,0 UV-I 0 W/m 17,3 C 17,9 C 1,6 km/h (1 Bft) 98,00 %
10.07.2017 03:00 17,9 C 25,0 C 96 % 1008,1 hPa 0,0 l/m 1,0 km/h (0 Bft) O 96 0 min 0,000 mm 0,0 UV-I 0 W/m 17,3 C 17,9 C 1,6 km/h (1 Bft) 98,00 %
10.07.2017 03:02 17,8 C 25,0 C 96 % 1008,2 hPa 0,0 l/m 0,4 km/h (0 Bft) O 96 0 min 0,000 mm 0,0 UV-I 0 W/m 17,2 C 17,8 C 1,6 km/h (1 Bft) 100,00 %
10.07.2017 03:04 17,8 C 25,0 C 96 % 1008,2 hPa 0,0 l/m 0,0 km/h (0 Bft) O 96 0 min 0,000 mm 0,0 UV-I 0 W/m 17,2 C 17,8 C 0,0 km/h (0 Bft) 97,92 %
10.07.2017 03:06 17,8 C 25,0 C 96 % 1008,2 hPa 0,0 l/m 0,0 km/h (0 Bft) O 96 0 min 0,000 mm 0,0 UV-I 0 W/m 17,2 C 17,8 C 0,0 km/h (0 Bft) 100,00 %
10.07.2017 03:08 17,8 C 25,0 C 96 % 1008,2 hPa 0,0 l/m 0,0 km/h (0 Bft) O 96 0 min 0,000 mm 0,0 UV-I 0 W/m 17,2 C 17,8 C 0,0 km/h (0 Bft) 95,74 %
10.07.2017 03:10 17,8 C 25,0 C 96 % 1008,2 hPa 0,0 l/m 0,0 km/h (0 Bft) O 96 0 min 0,000 mm 0,0 UV-I 0 W/m 17,2 C 17,8 C 0,0 km/h (0 Bft) 100,00 %
10.07.2017 03:12 17,7 C 25,0 C 96 % 1008,2 hPa 0,0 l/m 0,5 km/h (0 Bft) O 96 0 min 0,000 mm 0,0 UV-I 0 W/m 17,1 C 17,7 C 1,6 km/h (1 Bft) 97,92 %
10.07.2017 03:14 17,7 C 25,0 C 96 % 1008,0 hPa 0,0 l/m 0,7 km/h (0 Bft) O 96 0 min 0,000 mm 0,0 UV-I 0 W/m 17,1 C 17,7 C 3,2 km/h (1 Bft) 95,74 %
10.07.2017 03:16 17,6 C 25,0 C 96 % 1008,0 hPa 0,0 l/m 0,9 km/h (0 Bft) O 96 0 min 0,000 mm 0,0 UV-I 0 W/m 17,0 C 17,6 C 3,2 km/h (1 Bft) 100,00 %
10.07.2017 03:18 17,4 C 25,0 C 96 % 1008,0 hPa 0,0 l/m 0,3 km/h (0 Bft) O 96 0 min 0,000 mm 0,0 UV-I 0 W/m 16,8 C 17,4 C 1,6 km/h (1 Bft) 100,00 %
10.07.2017 03:20 17,3 C 25,0 C 96 % 1008,0 hPa 0,0 l/m 0,2 km/h (0 Bft) O 96 0 min 0,000 mm 0,0 UV-I 0 W/m 16,7 C 17,3 C 1,6 km/h (1 Bft) 95,74 %
10.07.2017 03:22 17,2 C 25,0 C 96 % 1008,0 hPa 0,0 l/m 0,0 km/h (0 Bft) O 96 0 min 0,000 mm 0,0 UV-I 0 W/m 16,6 C 17,2 C 0,0 km/h (0 Bft) 100,00 %
10.07.2017 03:24 17,1 C 25,0 C 96 % 1007,9 hPa 0,0 l/m 0,0 km/h (0 Bft) O 96 0 min 0,000 mm 0,0 UV-I 0 W/m 16,5 C 17,1 C 0,0 km/h (0 Bft) 100,00 %
10.07.2017 03:26 17,1 C 25,0 C 96 % 1007,9 hPa 0,0 l/m 0,6 km/h (0 Bft) O 96 0 min 0,000 mm 0,0 UV-I 0 W/m 16,5 C 17,1 C 1,6 km/h (1 Bft) 98,00 %
10.07.2017 03:28 17,2 C 25,0 C 96 % 1007,8 hPa 0,0 l/m 2,0 km/h (1 Bft) O 96 0 min 0,000 mm 0,0 UV-I 0 W/m 16,6 C 17,2 C 3,2 km/h (1 Bft) 100,00 %
10.07.2017 03:30 17,1 C 25,0 C 96 % 1007,9 hPa 0,0 l/m 2,9 km/h (1 Bft) O 96 0 min 0,000 mm 0,0 UV-I 0 W/m 16,5 C 17,1 C 3,2 km/h (1 Bft) 96,00 %
10.07.2017 03:32 17,1 C 25,0 C 96 % 1008,0 hPa 0,0 l/m 1,7 km/h (1 Bft) O 96 0 min 0,000 mm 0,0 UV-I 0 W/m 16,5 C 17,1 C 3,2 km/h (1 Bft) 100,00 %
10.07.2017 03:34 17,2 C 25,0 C 96 % 1008,1 hPa 0,0 l/m 0,2 km/h (0 Bft) O 96 0 min 0,000 mm 0,0 UV-I 0 W/m 16,6 C 17,2 C 1,6 km/h (1 Bft) 97,87 %
10.07.2017 03:36 17,2 C 25,0 C 96 % 1008,0 hPa 0,0 l/m 0,0 km/h (0 Bft) O 96 0 min 0,000 mm 0,0 UV-I 0 W/m 16,6 C 17,2 C 0,0 km/h (0 Bft) 100,00 %
10.07.2017 03:38 17,2 C 25,0 C 96 % 1008,0 hPa 0,0 l/m 0,0 km/h (0 Bft) O 96 0 min 0,000 mm 0,0 UV-I 0 W/m 16,6 C 17,2 C 0,0 km/h (0 Bft) 97,87 %
10.07.2017 03:40 17,2 C 25,0 C 96 % 1007,9 hPa 0,0 l/m 0,0 km/h (0 Bft) O 96 0 min 0,000 mm 0,0 UV-I 0 W/m 16,6 C 17,2 C 0,0 km/h (0 Bft) 95,74 %
10.07.2017 03:42 17,2 C 25,0 C 96 % 1007,9 hPa 0,0 l/m 0,0 km/h (0 Bft) O 96 0 min 0,000 mm 0,0 UV-I 0 W/m 16,6 C 17,2 C 0,0 km/h (0 Bft) 100,00 %
10.07.2017 03:44 17,2 C 25,0 C 96 % 1007,9 hPa 0,0 l/m 0,0 km/h (0 Bft) O 96 0 min 0,000 mm 0,0 UV-I 0 W/m 16,6 C 17,2 C 0,0 km/h (0 Bft) 97,62 %
10.07.2017 03:46 17,2 C 25,0 C 96 % 1007,9 hPa 0,0 l/m 0,0 km/h (0 Bft) O 96 0 min 0,000 mm 0,0 UV-I 0 W/m 16,6 C 17,2 C 0,0 km/h (0 Bft) 97,87 %
10.07.2017 03:48 17,2 C 25,0 C 96 % 1008,0 hPa 0,0 l/m 0,0 km/h (0 Bft) O 96 0 min 0,000 mm 0,0 UV-I 0 W/m 16,6 C 17,2 C 0,0 km/h (0 Bft) 95,74 %
10.07.2017 03:50 17,2 C 25,0 C 96 % 1008,0 hPa 0,0 l/m 0,0 km/h (0 Bft) O 96 0 min 0,000 mm 0,0 UV-I 0 W/m 16,6 C 17,2 C 0,0 km/h (0 Bft) 95,74 %
10.07.2017 03:52 17,2 C 25,0 C 97 % 1008,0 hPa 0,0 l/m 0,0 km/h (0 Bft) O 96 0 min 0,000 mm 0,0 UV-I 0 W/m 16,7 C 17,2 C 0,0 km/h (0 Bft) 100,00 %
10.07.2017 03:54 17,3 C 25,0 C 97 % 1007,9 hPa 0,0 l/m 0,4 km/h (0 Bft) O 96 0 min 0,000 mm 0,0 UV-I 0 W/m 16,8 C 17,3 C 1,6 km/h (1 Bft) 97,87 %
10.07.2017 03:56 17,3 C 25,0 C 97 % 1007,9 hPa 0,0 l/m 2,3 km/h (1 Bft) O 96 0 min 0,000 mm 0,0 UV-I 0 W/m 16,8 C 17,3 C 3,2 km/h (1 Bft) 100,00 %
10.07.2017 03:58 17,3 C 25,0 C 97 % 1007,8 hPa 0,0 l/m 2,3 km/h (1 Bft) O 96 0 min 0,000 mm 0,0 UV-I 0 W/m 16,8 C 17,3 C 3,2 km/h (1 Bft) 98,00 %
10.07.2017 04:00 17,3 C 25,0 C 97 % 1007,9 hPa 0,0 l/m 0,6 km/h (0 Bft) O 96 0 min 0,000 mm 0,0 UV-I 0 W/m 16,8 C 17,3 C 3,2 km/h (1 Bft) 98,00 %
10.07.2017 04:02 17,3 C 25,0 C 97 % 1007,8 hPa 0,0 l/m 0,5 km/h (0 Bft) O 96 0 min 0,000 mm 0,0 UV-I 0 W/m 16,8 C 17,3 C 1,6 km/h (1 Bft) 96,55 %
10.07.2017 04:04 17,3 C 25,0 C 97 % 1007,8 hPa 0,0 l/m 0,1 km/h (0 Bft) O 96 0 min 0,000 mm 0,0 UV-I 0 W/m 16,8 C 17,3 C 1,6 km/h (1 Bft) 95,74 %
10.07.2017 04:06 17,3 C 25,0 C 97 % 1007,8 hPa 0,0 l/m 0,0 km/h (0 Bft) O 96 0 min 0,000 mm 0,0 UV-I 0 W/m 16,8 C 17,3 C 0,0 km/h (0 Bft) 96,00 %
10.07.2017 04:08 17,3 C 25,0 C 97 % 1007,9 hPa 0,2 l/m 0,2 km/h (0 Bft) O 96 0 min 0,000 mm 0,0 UV-I 0 W/m 16,8 C 17,3 C 1,6 km/h (1 Bft) 95,74 %
10.07.2017 04:10 17,3 C 25,0 C 97 % 1007,9 hPa 0,0 l/m 0,6 km/h (0 Bft) O 96 0 min 0,000 mm 0,0 UV-I 0 W/m 16,8 C 17,3 C 3,2 km/h (1 Bft) 100,00 %
10.07.2017 04:12 17,3 C 25,0 C 97 % 1007,8 hPa 0,0 l/m 0,0 km/h (0 Bft) O 96 0 min 0,000 mm 0,0 UV-I 0 W/m 16,8 C 17,3 C 0,0 km/h (0 Bft) 94,00 %
10.07.2017 04:14 17,3 C 25,0 C 97 % 1007,8 hPa 0,0 l/m 0,0 km/h (0 Bft) O 96 0 min 0,000 mm 0,0 UV-I 0 W/m 16,8 C 17,3 C 0,0 km/h (0 Bft) 96,00 %
10.07.2017 04:16 17,3 C 25,0 C 97 % 1007,8 hPa 0,0 l/m 0,0 km/h (0 Bft) O 96 0 min 0,000 mm 0,0 UV-I 0 W/m 16,8 C 17,3 C 0,0 km/h (0 Bft) 95,74 %
10.07.2017 04:18 17,4 C 25,0 C 97 % 1007,8 hPa 0,0 l/m 0,0 km/h (0 Bft) O 96 0 min 0,000 mm 0,0 UV-I 0 W/m 16,9 C 17,4 C 0,0 km/h (0 Bft) 97,87 %
10.07.2017 04:20 17,4 C 25,0 C 97 % 1007,7 hPa 0,0 l/m 0,0 km/h (0 Bft) O 96 0 min 0,000 mm 0,0 UV-I 0 W/m 16,9 C 17,4 C 0,0 km/h (0 Bft) 96,00 %
10.07.2017 04:22 17,4 C 25,0 C 97 % 1007,7 hPa 0,0 l/m 0,0 km/h (0 Bft) O 96 0 min 0,000 mm 0,0 UV-I 0 W/m 16,9 C 17,4 C 0,0 km/h (0 Bft) 97,87 %
10.07.2017 04:24 17,4 C 25,0 C 97 % 1007,8 hPa 0,0 l/m 0,4 km/h (0 Bft) O 96 0 min 0,000 mm 0,0 UV-I 0 W/m 16,9 C 17,4 C 1,6 km/h (1 Bft) 93,62 %
10.07.2017 04:26 17,4 C 25,0 C 97 % 1007,8 hPa 0,0 l/m 0,1 km/h (0 Bft) O 96 0 min 0,000 mm 0,0 UV-I 0 W/m 16,9 C 17,4 C 1,6 km/h (1 Bft) 88,89 %
10.07.2017 04:28 17,4 C 25,0 C 97 % 1007,9 hPa 0,0 l/m 1,8 km/h (1 Bft) O 96 0 min 0,000 mm 0,0 UV-I 0 W/m 16,9 C 17,4 C 3,2 km/h (1 Bft) 96,00 %
10.07.2017 04:30 17,4 C 25,0 C 97 % 1007,9 hPa 0,0 l/m 0,8 km/h (0 Bft) O 96 0 min 0,000 mm 0,0 UV-I 0 W/m 16,9 C 17,4 C 3,2 km/h (1 Bft) 96,00 %
10.07.2017 04:32 17,5 C 25,0 C 97 % 1007,9 hPa 0,0 l/m 0,5 km/h (0 Bft) O 96 0 min 0,000 mm 0,0 UV-I 0 W/m 17,0 C 17,5 C 1,6 km/h (1 Bft) 95,74 %
10.07.2017 04:34 17,5 C 25,0 C 97 % 1007,9 hPa 0,0 l/m 1,5 km/h (1 Bft) O 96 0 min 0,000 mm 0,0 UV-I 0 W/m 17,0 C 17,5 C 3,2 km/h (1 Bft) 97,87 %
10.07.2017 04:36 17,5 C 25,0 C 97 % 1007,9 hPa 0,0 l/m 1,9 km/h (1 Bft) O 96 0 min 0,000 mm 0,0 UV-I 0 W/m 17,0 C 17,5 C 3,2 km/h (1 Bft) 95,74 %
10.07.2017 04:38 17,4 C 25,0 C 97 % 1007,9 hPa 0,0 l/m 0,9 km/h (0 Bft) O 96 0 min 0,000 mm 0,0 UV-I 0 W/m 16,9 C 17,4 C 1,6 km/h (1 Bft) 100,00 %
10.07.2017 04:40 17,5 C 25,0 C 97 % 1007,9 hPa 0,0 l/m 0,8 km/h (0 Bft) O 96 0 min 0,000 mm 0,0 UV-I 0 W/m 17,0 C 17,5 C 3,2 km/h (1 Bft) 97,87 %
10.07.2017 04:42 17,6 C 25,0 C 97 % 1007,8 hPa 0,0 l/m 2,4 km/h (1 Bft) O 96 0 min 0,000 mm 0,0 UV-I 0 W/m 17,1 C 17,6 C 4,8 km/h (1 Bft) 100,00 %
10.07.2017 04:44 17,5 C 25,0 C 97 % 1007,8 hPa 0,0 l/m 1,0 km/h (0 Bft) O 96 0 min 0,000 mm 0,0 UV-I 0 W/m 17,0 C 17,5 C 3,2 km/h (1 Bft) 97,87 %
10.07.2017 04:46 17,4 C 25,0 C 97 % 1007,8 hPa 0,0 l/m 0,0 km/h (0 Bft) O 96 0 min 0,000 mm 0,0 UV-I 0 W/m 16,9 C 17,4 C 0,0 km/h (0 Bft) 100,00 %
10.07.2017 04:48 17,4 C 25,0 C 97 % 1007,7 hPa 0,0 l/m 1,1 km/h (1 Bft) O 96 0 min 0,000 mm 0,0 UV-I 0 W/m 16,9 C 17,4 C 3,2 km/h (1 Bft) 95,74 %
10.07.2017 04:50 17,4 C 25,0 C 97 % 1007,7 hPa 0,0 l/m 3,1 km/h (1 Bft) O 96 0 min 0,000 mm 0,0 UV-I 0 W/m 16,9 C 17,4 C 4,8 km/h (1 Bft) 100,00 %
10.07.2017 04:52 17,4 C 25,0 C 97 % 1007,6 hPa 0,0 l/m 4,5 km/h (1 Bft) NO 44 0 min 0,000 mm 0,0 UV-I 0 W/m 16,9 C 17,4 C 6,4 km/h (2 Bft) 94,00 %
10.07.2017 04:54 17,4 C 25,0 C 97 % 1007,6 hPa 0,0 l/m 5,0 km/h (1 Bft) NO 51 0 min 0,000 mm 0,0 UV-I 0 W/m 16,9 C 17,4 C 8,0 km/h (2 Bft) 94,29 %
10.07.2017 04:56 17,4 C 25,0 C 97 % 1007,6 hPa 0,0 l/m 4,5 km/h (1 Bft) O-NO 61 0 min 0,000 mm 0,0 UV-I 0 W/m 16,9 C 17,4 C 6,4 km/h (2 Bft) 96,23 %
10.07.2017 04:58 17,4 C 25,0 C 97 % 1007,7 hPa 0,0 l/m 4,1 km/h (1 Bft) O-NO 65 0 min 0,000 mm 0,0 UV-I 0 W/m 16,9 C 17,4 C 8,0 km/h (2 Bft) 97,87 %
10.07.2017 05:00 17,4 C 25,0 C 97 % 1007,7 hPa 0,0 l/m 1,1 km/h (1 Bft) O-NO 65 0 min 0,000 mm 0,0 UV-I 0 W/m 16,9 C 17,4 C 3,2 km/h (1 Bft) 95,74 %
10.07.2017 05:02 17,4 C 25,0 C 97 % 1007,6 hPa 0,0 l/m 4,4 km/h (1 Bft) O-NO 69 0 min 0,000 mm 0,0 UV-I 0 W/m 16,9 C 17,4 C 6,4 km/h (2 Bft) 95,74 %
10.07.2017 05:04 17,4 C 25,0 C 97 % 1007,7 hPa 0,0 l/m 4,3 km/h (1 Bft) O 80 0 min 0,000 mm 0,0 UV-I 0 W/m 16,9 C 17,4 C 6,4 km/h (2 Bft) 95,74 %
10.07.2017 05:06 17,4 C 25,0 C 97 % 1007,7 hPa 0,0 l/m 4,0 km/h (1 Bft) O 80 0 min 0,000 mm 0,0 UV-I 0 W/m 16,9 C 17,4 C 6,4 km/h (2 Bft) 95,83 %
10.07.2017 05:08 17,4 C 25,0 C 97 % 1007,7 hPa 0,0 l/m 3,9 km/h (1 Bft) O-NO 67 0 min 0,000 mm 0,0 UV-I 0 W/m 16,9 C 17,4 C 8,0 km/h (2 Bft) 97,87 %
10.07.2017 05:10 17,4 C 25,0 C 97 % 1007,7 hPa 0,0 l/m 5,2 km/h (1 Bft) O-NO 70 0 min 0,000 mm 0,0 UV-I 0 W/m 16,9 C 17,4 C 6,4 km/h (2 Bft) 97,87 %
10.07.2017 05:12 17,4 C 25,0 C 97 % 1007,7 hPa 0,0 l/m 4,8 km/h (1 Bft) O-NO 74 0 min 0,000 mm 0,0 UV-I 4 W/m 16,9 C 17,4 C 8,0 km/h (2 Bft) 96,00 %
10.07.2017 05:14 17,4 C 25,0 C 97 % 1007,8 hPa 0,0 l/m 4,4 km/h (1 Bft) O-NO 78 0 min 0,000 mm 0,0 UV-I 5 W/m 16,9 C 17,4 C 6,4 km/h (2 Bft) 97,37 %
10.07.2017 05:16 17,4 C 25,0 C 97 % 1007,7 hPa 0,0 l/m 3,9 km/h (1 Bft) O-NO 63 0 min 0,000 mm 0,0 UV-I 5 W/m 16,9 C 17,4 C 6,4 km/h (2 Bft) 95,74 %
10.07.2017 05:18 17,4 C 25,0 C 97 % 1007,7 hPa 0,0 l/m 4,2 km/h (1 Bft) O 94 0 min 0,000 mm 0,0 UV-I 5 W/m 16,9 C 17,4 C 11,3 km/h (2 Bft) 97,87 %
10.07.2017 05:20 17,5 C 25,0 C 97 % 1007,8 hPa 0,0 l/m 4,0 km/h (1 Bft) O 81 0 min 0,000 mm 0,0 UV-I 7 W/m 17,0 C 17,5 C 6,4 km/h (2 Bft) 96,00 %
10.07.2017 05:22 17,5 C 25,0 C 97 % 1007,6 hPa 0,0 l/m 4,2 km/h (1 Bft) O-NO 77 0 min 0,000 mm 0,0 UV-I 9 W/m 17,0 C 17,5 C 6,4 km/h (2 Bft) 95,83 %
10.07.2017 05:24 17,5 C 25,0 C 97 % 1007,6 hPa 0,0 l/m 6,0 km/h (2 Bft) O-NO 68 0 min 0,000 mm 0,0 UV-I 11 W/m 17,0 C 17,5 C 11,3 km/h (2 Bft) 92,00 %
10.07.2017 05:26 17,5 C 25,0 C 97 % 1007,7 hPa 0,0 l/m 4,0 km/h (1 Bft) O-NO 78 0 min 0,000 mm 0,0 UV-I 11 W/m 17,0 C 17,5 C 6,4 km/h (2 Bft) 93,62 %
10.07.2017 05:28 17,5 C 25,0 C 97 % 1007,7 hPa 0,0 l/m 6,9 km/h (2 Bft) O-NO 66 2 min 0,000 mm 0,0 UV-I 10 W/m 17,0 C 17,3 C 12,9 km/h (3 Bft) 92,11 %
10.07.2017 05:30 17,5 C 25,0 C 97 % 1007,7 hPa 0,0 l/m 4,3 km/h (1 Bft) NO 52 0 min 0,000 mm 0,0 UV-I 9 W/m 17,0 C 17,5 C 6,4 km/h (2 Bft) 95,74 %
10.07.2017 05:32 17,6 C 25,0 C 97 % 1008,0 hPa 0,0 l/m 1,4 km/h (1 Bft) NO 52 0 min 0,000 mm 0,0 UV-I 8 W/m 17,1 C 17,6 C 4,8 km/h (1 Bft) 95,74 %
10.07.2017 05:34 17,6 C 25,0 C 97 % 1007,9 hPa 0,0 l/m 1,2 km/h (1 Bft) SO 128 0 min 0,000 mm 0,0 UV-I 7 W/m 17,1 C 17,6 C 3,2 km/h (1 Bft) 95,74 %
10.07.2017 05:36 17,6 C 25,0 C 97 % 1007,8 hPa 0,0 l/m 4,1 km/h (1 Bft) NO 34 0 min 0,000 mm 0,0 UV-I 8 W/m 17,1 C 17,6 C 9,7 km/h (2 Bft) 97,87 %
10.07.2017 05:38 17,6 C 25,0 C 97 % 1007,9 hPa 0,0 l/m 1,9 km/h (1 Bft) NO 42 0 min 0,000 mm 0,0 UV-I 9 W/m 17,1 C 17,6 C 4,8 km/h (1 Bft) 95,74 %
10.07.2017 05:40 17,7 C 25,0 C 97 % 1007,9 hPa 0,0 l/m 3,6 km/h (1 Bft) NO 42 0 min 0,000 mm 0,0 UV-I 9 W/m 17,2 C 17,7 C 8,0 km/h (2 Bft) 95,74 %
10.07.2017 05:42 17,7 C 25,0 C 97 % 1007,9 hPa 0,0 l/m 1,8 km/h (1 Bft) NO 42 0 min 0,000 mm 0,0 UV-I 9 W/m 17,2 C 17,7 C 4,8 km/h (1 Bft) 95,83 %
10.07.2017 05:44 17,7 C 25,0 C 97 % 1008,0 hPa 0,0 l/m 0,0 km/h (0 Bft) NO 42 0 min 0,000 mm 0,0 UV-I 9 W/m 17,2 C 17,7 C 0,0 km/h (0 Bft) 93,62 %
10.07.2017 05:46 17,7 C 25,0 C 97 % 1008,0 hPa 0,0 l/m 0,0 km/h (0 Bft) NO 42 0 min 0,000 mm 0,0 UV-I 10 W/m 17,2 C 17,7 C 0,0 km/h (0 Bft) 94,00 %
10.07.2017 05:48 17,7 C 25,0 C 97 % 1008,0 hPa 0,0 l/m 0,5 km/h (0 Bft) NO 42 0 min 0,000 mm 0,0 UV-I 11 W/m 17,2 C 17,7 C 1,6 km/h (1 Bft) 91,49 %
10.07.2017 05:50 17,7 C 25,0 C 97 % 1008,1 hPa 0,0 l/m 0,5 km/h (0 Bft) NO 42 0 min 0,000 mm 0,0 UV-I 11 W/m 17,2 C 17,7 C 3,2 km/h (1 Bft) 97,92 %
10.07.2017 05:52 17,7 C 25,0 C 97 % 1008,2 hPa 0,0 l/m 0,1 km/h (0 Bft) NO 42 0 min 0,000 mm 0,0 UV-I 12 W/m 17,2 C 17,7 C 1,6 km/h (1 Bft) 95,74 %
10.07.2017 05:54 17,7 C 25,0 C 97 % 1008,2 hPa 0,0 l/m 0,0 km/h (0 Bft) NO 42 0 min 0,000 mm 0,0 UV-I 12 W/m 17,2 C 17,7 C 0,0 km/h (0 Bft) 95,74 %
10.07.2017 05:56 17,7 C 25,0 C 97 % 1008,2 hPa 0,0 l/m 0,0 km/h (0 Bft) NO 42 0 min 0,000 mm 0,0 UV-I 12 W/m 17,2 C 17,7 C 0,0 km/h (0 Bft) 100,00 %
10.07.2017 05:58 17,7 C 25,0 C 97 % 1008,2 hPa 0,0 l/m 0,0 km/h (0 Bft) NO 42 0 min 0,000 mm 0,0 UV-I 12 W/m 17,2 C 17,7 C 0,0 km/h (0 Bft) 95,74 %
10.07.2017 06:00 17,7 C 25,0 C 97 % 1008,3 hPa 0,0 l/m 0,0 km/h (0 Bft) NO 42 0 min 0,000 mm 0,0 UV-I 12 W/m 17,2 C 17,7 C 0,0 km/h (0 Bft) 100,00 %
10.07.2017 06:02 17,6 C 25,0 C 97 % 1008,3 hPa 0,0 l/m 0,2 km/h (0 Bft) NO 42 0 min 0,000 mm 0,0 UV-I 12 W/m 17,1 C 17,6 C 1,6 km/h (1 Bft) 93,62 %
10.07.2017 06:04 17,6 C 25,0 C 97 % 1008,4 hPa 0,0 l/m 1,5 km/h (1 Bft) NO 42 0 min 0,000 mm 0,0 UV-I 12 W/m 17,1 C 17,6 C 3,2 km/h (1 Bft) 95,74 %
10.07.2017 06:06 17,6 C 25,0 C 97 % 1008,5 hPa 0,0 l/m 1,7 km/h (1 Bft) NO 42 0 min 0,000 mm 0,0 UV-I 13 W/m 17,1 C 17,6 C 3,2 km/h (1 Bft) 92,11 %
10.07.2017 06:08 17,6 C 25,0 C 97 % 1008,5 hPa 0,0 l/m 2,6 km/h (1 Bft) W 275 0 min 0,000 mm 0,0 UV-I 16 W/m 17,1 C 17,6 C 4,8 km/h (1 Bft) 95,74 %
10.07.2017 06:10 17,6 C 25,0 C 97 % 1008,5 hPa 0,0 l/m 1,2 km/h (1 Bft) W-NW 291 0 min 0,000 mm 0,0 UV-I 18 W/m 17,1 C 17,6 C 3,2 km/h (1 Bft) 97,87 %
10.07.2017 06:12 17,6 C 25,0 C 97 % 1008,5 hPa 0,0 l/m 1,3 km/h (1 Bft) W-NW 290 0 min 0,000 mm 0,0 UV-I 21 W/m 17,1 C 17,6 C 4,8 km/h (1 Bft) 94,12 %
10.07.2017 06:14 17,6 C 25,0 C 97 % 1008,3 hPa 0,0 l/m 1,1 km/h (1 Bft) W-NW 291 0 min 0,000 mm 0,0 UV-I 31 W/m 17,1 C 17,6 C 3,2 km/h (1 Bft) 97,87 %
10.07.2017 06:16 17,7 C 25,0 C 98 % 1008,5 hPa 0,0 l/m 1,4 km/h (1 Bft) W-NW 290 0 min 0,000 mm 0,0 UV-I 34 W/m 17,4 C 17,7 C 3,2 km/h (1 Bft) 95,74 %
10.07.2017 06:18 17,7 C 25,0 C 98 % 1008,3 hPa 0,0 l/m 1,8 km/h (1 Bft) W-NW 298 0 min 0,000 mm 0,0 UV-I 40 W/m 17,4 C 17,7 C 4,8 km/h (1 Bft) 97,87 %
10.07.2017 06:20 17,7 C 25,0 C 98 % 1008,3 hPa 0,0 l/m 0,1 km/h (0 Bft) W-NW 298 0 min 0,000 mm 0,0 UV-I 46 W/m 17,4 C 17,7 C 1,6 km/h (1 Bft) 95,83 %
10.07.2017 06:22 17,7 C 25,0 C 98 % 1008,4 hPa 0,0 l/m 0,4 km/h (0 Bft) W-NW 298 0 min 0,000 mm 0,0 UV-I 50 W/m 17,4 C 17,7 C 1,6 km/h (1 Bft) 95,65 %
10.07.2017 06:24 17,8 C 25,0 C 98 % 1008,3 hPa 0,0 l/m 0,0 km/h (0 Bft) W-NW 298 0 min 0,000 mm 0,0 UV-I 46 W/m 17,5 C 17,8 C 0,0 km/h (0 Bft) 95,83 %
10.07.2017 06:26 17,7 C 25,0 C 98 % 1008,4 hPa 0,0 l/m 0,0 km/h (0 Bft) W-NW 298 0 min 0,000 mm 0,0 UV-I 43 W/m 17,4 C 17,7 C 0,0 km/h (0 Bft) 95,74 %
10.07.2017 06:28 17,7 C 25,0 C 98 % 1008,3 hPa 0,0 l/m 1,1 km/h (1 Bft) W-NW 299 0 min 0,000 mm 0,0 UV-I 41 W/m 17,4 C 17,7 C 3,2 km/h (1 Bft) 96,00 %
10.07.2017 06:30 17,7 C 25,0 C 98 % 1008,3 hPa 0,0 l/m 1,9 km/h (1 Bft) W-NW 299 0 min 0,000 mm 0,0 UV-I 46 W/m 17,4 C 17,7 C 3,2 km/h (1 Bft) 97,87 %
10.07.2017 06:32 17,8 C 25,0 C 98 % 1008,2 hPa 0,0 l/m 2,2 km/h (1 Bft) NW 322 0 min 0,000 mm 0,0 UV-I 54 W/m 17,5 C 17,8 C 4,8 km/h (1 Bft) 97,87 %
10.07.2017 06:34 17,7 C 25,0 C 98 % 1008,1 hPa 0,0 l/m 4,3 km/h (1 Bft) N 355 0 min 0,000 mm 0,0 UV-I 46 W/m 17,4 C 17,7 C 6,4 km/h (2 Bft) 93,62 %
10.07.2017 06:36 17,7 C 25,0 C 98 % 1008,1 hPa 0,0 l/m 2,5 km/h (1 Bft) N 355 0 min 0,000 mm 0,0 UV-I 34 W/m 17,4 C 17,7 C 4,8 km/h (1 Bft) 97,14 %
10.07.2017 06:38 17,7 C 25,0 C 98 % 1008,2 hPa 0,0 l/m 1,3 km/h (1 Bft) N 355 0 min 0,000 mm 0,0 UV-I 28 W/m 17,4 C 17,7 C 3,2 km/h (1 Bft) 98,00 %
10.07.2017 06:40 17,6 C 25,0 C 98 % 1008,3 hPa 0,0 l/m 1,4 km/h (1 Bft) N 355 0 min 0,000 mm 0,0 UV-I 25 W/m 17,3 C 17,6 C 3,2 km/h (1 Bft) 92,00 %
10.07.2017 06:42 17,6 C 25,0 C 98 % 1008,3 hPa 0,0 l/m 0,2 km/h (0 Bft) N 355 0 min 0,000 mm 0,0 UV-I 25 W/m 17,3 C 17,6 C 1,6 km/h (1 Bft) 93,62 %
10.07.2017 06:44 17,6 C 25,0 C 98 % 1008,3 hPa 0,0 l/m 0,0 km/h (0 Bft) N 355 0 min 0,000 mm 0,0 UV-I 27 W/m 17,3 C 17,6 C 0,0 km/h (0 Bft) 95,74 %
10.07.2017 06:46 17,7 C 25,0 C 98 % 1008,3 hPa 0,0 l/m 0,0 km/h (0 Bft) N 355 0 min 0,000 mm 0,0 UV-I 30 W/m 17,4 C 17,7 C 1,6 km/h (1 Bft) 100,00 %
10.07.2017 06:48 17,7 C 25,0 C 98 % 1008,4 hPa 0,0 l/m 2,1 km/h (1 Bft) N 355 0 min 0,000 mm 0,0 UV-I 32 W/m 17,4 C 17,7 C 4,8 km/h (1 Bft) 93,62 %
10.07.2017 06:50 17,7 C 25,0 C 98 % 1008,3 hPa 0,0 l/m 0,1 km/h (0 Bft) N 355 0 min 0,000 mm 0,0 UV-I 34 W/m 17,4 C 17,7 C 1,6 km/h (1 Bft) 94,74 %
10.07.2017 06:52 17,7 C 25,0 C 98 % 1008,3 hPa 0,0 l/m 2,0 km/h (1 Bft) N 11 0 min 0,000 mm 0,0 UV-I 36 W/m 17,4 C 17,7 C 4,8 km/h (1 Bft) 98,00 %
10.07.2017 06:54 17,8 C 25,0 C 98 % 1008,5 hPa 0,2 l/m 0,2 km/h (0 Bft) N 11 0 min 0,000 mm 0,0 UV-I 40 W/m 17,5 C 17,8 C 1,6 km/h (1 Bft) 97,87 %
10.07.2017 06:56 17,8 C 25,0 C 98 % 1008,4 hPa 0,0 l/m 0,0 km/h (0 Bft) N 11 0 min 0,000 mm 0,0 UV-I 43 W/m 17,5 C 17,8 C 1,6 km/h (1 Bft) 100,00 %
10.07.2017 06:58 17,8 C 25,0 C 98 % 1008,6 hPa 0,0 l/m 1,6 km/h (1 Bft) W-NW 291 0 min 0,000 mm 0,0 UV-I 44 W/m 17,5 C 17,8 C 4,8 km/h (1 Bft) 100,00 %
10.07.2017 07:00 17,7 C 25,0 C 98 % 1008,6 hPa 0,0 l/m 1,5 km/h (1 Bft) W-NW 291 0 min 0,025 mm 0,0 UV-I 43 W/m 17,4 C 17,7 C 3,2 km/h (1 Bft) 97,87 %
10.07.2017 07:02 17,8 C 25,0 C 98 % 1008,5 hPa 0,0 l/m 1,3 km/h (1 Bft) W-NW 290 0 min 0,000 mm 0,0 UV-I 48 W/m 17,5 C 17,8 C 3,2 km/h (1 Bft) 93,75 %
10.07.2017 07:04 17,8 C 25,0 C 98 % 1008,5 hPa 0,0 l/m 0,8 km/h (0 Bft) W-NW 291 0 min 0,000 mm 0,0 UV-I 55 W/m 17,5 C 17,8 C 1,6 km/h (1 Bft) 95,74 %
10.07.2017 07:06 17,8 C 25,0 C 98 % 1008,5 hPa 0,0 l/m 0,6 km/h (0 Bft) W-NW 291 0 min 0,000 mm 0,0 UV-I 61 W/m 17,5 C 17,8 C 3,2 km/h (1 Bft) 100,00 %
10.07.2017 07:08 17,8 C 25,0 C 98 % 1008,5 hPa 0,0 l/m 0,0 km/h (0 Bft) W-NW 291 0 min 0,000 mm 0,0 UV-I 67 W/m 17,5 C 17,8 C 0,0 km/h (0 Bft) 93,62 %
10.07.2017 07:10 17,8 C 25,0 C 98 % 1008,5 hPa 0,0 l/m 0,0 km/h (0 Bft) W-NW 291 0 min 0,000 mm 0,0 UV-I 68 W/m 17,5 C 17,8 C 0,0 km/h (0 Bft) 97,87 %
10.07.2017 07:12 17,8 C 25,0 C 98 % 1008,6 hPa 0,0 l/m 2,4 km/h (1 Bft) W-NW 291 0 min 0,000 mm 0,0 UV-I 60 W/m 17,5 C 17,8 C 3,2 km/h (1 Bft) 97,87 %
10.07.2017 07:14 17,9 C 25,0 C 98 % 1008,7 hPa 0,0 l/m 0,4 km/h (0 Bft) W-NW 291 0 min 0,000 mm 0,0 UV-I 63 W/m 17,6 C 17,9 C 3,2 km/h (1 Bft) 95,74 %
10.07.2017 07:16 17,8 C 25,0 C 98 % 1008,7 hPa 0,0 l/m 0,0 km/h (0 Bft) W-NW 291 0 min 0,000 mm 0,0 UV-I 63 W/m 17,5 C 17,8 C 0,0 km/h (0 Bft) 95,74 %
10.07.2017 07:18 17,8 C 25,0 C 98 % 1008,8 hPa 0,0 l/m 0,0 km/h (0 Bft) W-NW 291 0 min 0,000 mm 0,0 UV-I 63 W/m 17,5 C 17,8 C 0,0 km/h (0 Bft) 97,87 %
10.07.2017 07:20 17,9 C 25,0 C 98 % 1008,7 hPa 0,0 l/m 0,4 km/h (0 Bft) W-NW 291 0 min 0,000 mm 0,0 UV-I 67 W/m 17,6 C 17,9 C 1,6 km/h (1 Bft) 95,74 %
10.07.2017 07:22 17,9 C 25,0 C 98 % 1008,9 hPa 0,0 l/m 0,0 km/h (0 Bft) W-NW 291 0 min 0,000 mm 0,0 UV-I 75 W/m 17,6 C 17,9 C 0,0 km/h (0 Bft) 93,62 %
10.07.2017 07:24 17,9 C 25,0 C 98 % 1008,8 hPa 0,0 l/m 1,7 km/h (1 Bft) W-NW 291 0 min 0,000 mm 0,0 UV-I 74 W/m 17,6 C 17,9 C 3,2 km/h (1 Bft) 96,00 %
10.07.2017 07:26 17,9 C 25,0 C 98 % 1008,8 hPa 0,0 l/m 0,7 km/h (0 Bft) W-NW 291 0 min 0,000 mm 0,0 UV-I 78 W/m 17,6 C 17,9 C 3,2 km/h (1 Bft) 97,37 %
10.07.2017 07:28 17,8 C 25,0 C 98 % 1008,8 hPa 0,0 l/m 0,0 km/h (0 Bft) W-NW 291 0 min 0,000 mm 0,0 UV-I 72 W/m 17,5 C 17,8 C 0,0 km/h (0 Bft) 98,00 %
10.07.2017 07:30 17,8 C 25,0 C 98 % 1008,8 hPa 0,0 l/m 0,0 km/h (0 Bft) W-NW 291 0 min 0,000 mm 0,0 UV-I 61 W/m 17,5 C 17,8 C 0,0 km/h (0 Bft) 95,74 %
10.07.2017 07:32 17,9 C 25,0 C 98 % 1008,7 hPa 0,0 l/m 0,1 km/h (0 Bft) W-NW 291 0 min 0,000 mm 0,0 UV-I 55 W/m 17,6 C 17,9 C 1,6 km/h (1 Bft) 100,00 %
10.07.2017 07:34 17,9 C 25,0 C 98 % 1008,8 hPa 0,0 l/m 2,3 km/h (1 Bft) NW 325 0 min 0,000 mm 0,0 UV-I 59 W/m 17,6 C 17,9 C 6,4 km/h (2 Bft) 98,00 %
10.07.2017 07:36 17,9 C 25,0 C 98 % 1008,8 hPa 0,0 l/m 4,4 km/h (1 Bft) N-NW 344 0 min 0,000 mm 0,0 UV-I 73 W/m 17,6 C 17,9 C 6,4 km/h (2 Bft) 94,00 %
10.07.2017 07:38 17,8 C 25,0 C 98 % 1009,0 hPa 0,0 l/m 1,2 km/h (1 Bft) N-NW 345 0 min 0,000 mm 0,0 UV-I 83 W/m 17,5 C 17,8 C 4,8 km/h (1 Bft) 97,22 %
10.07.2017 07:40 17,9 C 25,0 C 98 % 1008,9 hPa 0,0 l/m 1,5 km/h (1 Bft) N-NW 345 0 min 0,000 mm 0,0 UV-I 97 W/m 17,6 C 17,9 C 3,2 km/h (1 Bft) 97,87 %
10.07.2017 07:42 17,9 C 25,0 C 98 % 1009,0 hPa 0,0 l/m 0,9 km/h (0 Bft) N-NW 345 0 min 0,000 mm 0,0 UV-I 111 W/m 17,6 C 17,9 C 3,2 km/h (1 Bft) 97,87 %
10.07.2017 07:44 18,0 C 25,0 C 98 % 1009,1 hPa 0,0 l/m 1,4 km/h (1 Bft) N-NW 345 0 min 0,000 mm 0,0 UV-I 119 W/m 17,7 C 18,0 C 3,2 km/h (1 Bft) 95,74 %
10.07.2017 07:46 18,1 C 25,0 C 98 % 1009,1 hPa 0,0 l/m 0,6 km/h (0 Bft) N-NW 345 0 min 0,000 mm 0,0 UV-I 109 W/m 17,8 C 18,1 C 1,6 km/h (1 Bft) 97,87 %
10.07.2017 07:48 18,2 C 25,0 C 98 % 1009,0 hPa 0,0 l/m 0,1 km/h (0 Bft) N-NW 345 0 min 0,000 mm 0,0 UV-I 105 W/m 17,9 C 18,2 C 1,6 km/h (1 Bft) 100,00 %
10.07.2017 07:50 18,1 C 25,0 C 98 % 1009,0 hPa 0,0 l/m 0,3 km/h (0 Bft) N-NW 345 0 min 0,000 mm 0,0 UV-I 105 W/m 17,8 C 18,1 C 1,6 km/h (1 Bft) 95,74 %
10.07.2017 07:52 18,0 C 25,0 C 98 % 1009,0 hPa 0,0 l/m 0,4 km/h (0 Bft) N-NW 345 0 min 0,000 mm 0,0 UV-I 105 W/m 17,7 C 18,0 C 1,6 km/h (1 Bft) 100,00 %
10.07.2017 07:54 18,0 C 25,0 C 97 % 1009,0 hPa 0,0 l/m 0,5 km/h (0 Bft) N-NW 345 0 min 0,000 mm 0,0 UV-I 105 W/m 17,5 C 18,0 C 1,6 km/h (1 Bft) 97,87 %
10.07.2017 07:56 17,9 C 25,0 C 97 % 1008,9 hPa 0,0 l/m 0,1 km/h (0 Bft) N-NW 345 0 min 0,000 mm 0,0 UV-I 106 W/m 17,4 C 17,9 C 1,6 km/h (1 Bft) 96,00 %
10.07.2017 07:58 17,9 C 25,0 C 97 % 1008,9 hPa 0,0 l/m 0,0 km/h (0 Bft) N-NW 345 0 min 0,000 mm 0,0 UV-I 108 W/m 17,4 C 17,9 C 0,0 km/h (0 Bft) 97,87 %
10.07.2017 08:00 18,1 C 25,0 C 97 % 1008,9 hPa 0,0 l/m 0,0 km/h (0 Bft) N-NW 342 0 min 0,051 mm 0,0 UV-I 112 W/m 17,6 C 18,1 C 0,0 km/h (0 Bft) 100,00 %
10.07.2017 08:02 18,1 C 25,0 C 98 % 1008,8 hPa 0,0 l/m 0,5 km/h (0 Bft) N-NW 342 0 min 0,000 mm 0,0 UV-I 119 W/m 17,8 C 18,1 C 1,6 km/h (1 Bft) 95,74 %
10.07.2017 08:05 18,2 C 25,0 C 98 % 1008,8 hPa 0,0 l/m 0,0 km/h (0 Bft) N-NW 342 0 min 0,000 mm 0,0 UV-I 119 W/m 17,9 C 18,2 C 1,6 km/h (1 Bft) 95,77 %
10.07.2017 08:06 18,2 C 25,0 C 98 % 1008,8 hPa 0,0 l/m 1,1 km/h (1 Bft) N-NW 342 0 min 0,000 mm 0,0 UV-I 120 W/m 17,9 C 18,2 C 3,2 km/h (1 Bft) 95,65 %
10.07.2017 08:08 18,3 C 25,0 C 97 % 1008,8 hPa 0,0 l/m 2,4 km/h (1 Bft) N-NW 342 0 min 0,000 mm 0,4 UV-I 127 W/m 17,8 C 18,3 C 4,8 km/h (1 Bft) 97,87 %
10.07.2017 08:10 18,4 C 25,0 C 97 % 1008,7 hPa 0,0 l/m 1,5 km/h (1 Bft) N-NW 342 0 min 0,000 mm 0,2 UV-I 118 W/m 17,9 C 18,4 C 3,2 km/h (1 Bft) 95,74 %
10.07.2017 08:12 18,4 C 25,0 C 97 % 1008,7 hPa 0,0 l/m 1,4 km/h (1 Bft) N-NW 342 0 min 0,000 mm 0,0 UV-I 112 W/m 17,9 C 18,4 C 3,2 km/h (1 Bft) 91,49 %
10.07.2017 08:14 18,4 C 25,0 C 97 % 1008,7 hPa 0,0 l/m 3,1 km/h (1 Bft) N 5 0 min 0,000 mm 0,4 UV-I 109 W/m 17,9 C 18,4 C 6,4 km/h (2 Bft) 100,00 %
10.07.2017 08:16 18,4 C 25,0 C 97 % 1008,8 hPa 0,0 l/m 2,0 km/h (1 Bft) N 5 0 min 0,000 mm 0,5 UV-I 111 W/m 17,9 C 18,4 C 6,4 km/h (2 Bft) 92,00 %
10.07.2017 08:18 18,4 C 25,0 C 97 % 1008,8 hPa 0,0 l/m 0,0 km/h (0 Bft) N 5 0 min 0,000 mm 0,5 UV-I 115 W/m 17,9 C 18,4 C 1,6 km/h (1 Bft) 98,15 %
10.07.2017 08:20 18,3 C 25,0 C 97 % 1008,9 hPa 0,0 l/m 0,3 km/h (0 Bft) N 5 0 min 0,000 mm 0,5 UV-I 113 W/m 17,8 C 18,3 C 3,2 km/h (1 Bft) 95,74 %
10.07.2017 08:22 18,3 C 25,0 C 97 % 1008,9 hPa 0,0 l/m 0,0 km/h (0 Bft) N 5 0 min 0,000 mm 0,5 UV-I 113 W/m 17,8 C 18,3 C 1,6 km/h (1 Bft) 95,83 %
10.07.2017 08:24 18,4 C 25,0 C 97 % 1008,7 hPa 0,0 l/m 3,7 km/h (1 Bft) N 5 0 min 0,000 mm 0,5 UV-I 125 W/m 17,9 C 18,4 C 6,4 km/h (2 Bft) 95,74 %
10.07.2017 08:26 18,6 C 25,0 C 97 % 1008,6 hPa 0,0 l/m 6,8 km/h (2 Bft) N-NO 26 0 min 0,000 mm 0,6 UV-I 143 W/m 18,1 C 18,4 C 9,7 km/h (2 Bft) 93,62 %
10.07.2017 08:28 18,6 C 25,0 C 97 % 1008,7 hPa 0,0 l/m 6,5 km/h (2 Bft) NO 46 0 min 0,000 mm 0,7 UV-I 158 W/m 18,1 C 18,6 C 9,7 km/h (2 Bft) 95,74 %
10.07.2017 08:30 18,6 C 25,0 C 97 % 1008,8 hPa 0,0 l/m 5,1 km/h (1 Bft) NO 39 0 min 0,000 mm 0,8 UV-I 177 W/m 18,1 C 18,6 C 6,4 km/h (2 Bft) 93,62 %
10.07.2017 08:32 18,6 C 25,0 C 97 % 1008,8 hPa 0,0 l/m 3,2 km/h (1 Bft) NO 34 0 min 0,000 mm 0,8 UV-I 191 W/m 18,1 C 18,6 C 6,4 km/h (2 Bft) 97,87 %
10.07.2017 08:34 18,7 C 25,0 C 97 % 1009,0 hPa 0,0 l/m 0,2 km/h (0 Bft) NO 34 0 min 0,000 mm 0,9 UV-I 196 W/m 18,2 C 18,7 C 1,6 km/h (1 Bft) 95,74 %
10.07.2017 08:36 18,7 C 25,0 C 97 % 1008,9 hPa 0,0 l/m 0,7 km/h (0 Bft) NO 34 0 min 0,000 mm 0,8 UV-I 188 W/m 18,2 C 18,7 C 3,2 km/h (1 Bft) 95,74 %
10.07.2017 08:38 18,6 C 25,0 C 96 % 1008,7 hPa 0,0 l/m 0,9 km/h (0 Bft) N-NO 28 0 min 0,000 mm 0,8 UV-I 168 W/m 17,9 C 18,6 C 3,2 km/h (1 Bft) 97,37 %
10.07.2017 08:40 18,7 C 25,0 C 96 % 1008,7 hPa 0,0 l/m 1,1 km/h (1 Bft) N-NO 17 0 min 0,000 mm 0,7 UV-I 157 W/m 18,0 C 18,7 C 3,2 km/h (1 Bft) 100,00 %
10.07.2017 08:42 18,7 C 25,0 C 97 % 1008,7 hPa 0,0 l/m 2,1 km/h (1 Bft) NO 46 0 min 0,000 mm 0,7 UV-I 148 W/m 18,2 C 18,7 C 6,4 km/h (2 Bft) 100,00 %
10.07.2017 08:44 18,8 C 25,0 C 97 % 1008,8 hPa 0,0 l/m 5,5 km/h (1 Bft) NO 51 0 min 0,000 mm 0,7 UV-I 144 W/m 18,3 C 18,8 C 8,0 km/h (2 Bft) 100,00 %
10.07.2017 08:46 18,7 C 25,0 C 96 % 1008,8 hPa 0,0 l/m 2,5 km/h (1 Bft) NO 51 0 min 0,000 mm 0,7 UV-I 147 W/m 18,0 C 18,7 C 4,8 km/h (1 Bft) 98,00 %
10.07.2017 08:48 18,8 C 25,0 C 96 % 1008,8 hPa 0,0 l/m 2,8 km/h (1 Bft) NO 51 0 min 0,000 mm 0,7 UV-I 152 W/m 18,1 C 18,8 C 4,8 km/h (1 Bft) 95,74 %
10.07.2017 08:50 18,8 C 25,0 C 96 % 1008,8 hPa 0,0 l/m 3,7 km/h (1 Bft) NO 51 0 min 0,000 mm 0,8 UV-I 157 W/m 18,1 C 18,8 C 4,8 km/h (1 Bft) 95,74 %
10.07.2017 08:52 18,8 C 25,0 C 96 % 1008,8 hPa 0,0 l/m 2,4 km/h (1 Bft) NO 51 0 min 0,000 mm 0,8 UV-I 163 W/m 18,1 C 18,8 C 4,8 km/h (1 Bft) 97,87 %
10.07.2017 08:54 18,8 C 25,0 C 96 % 1008,8 hPa 0,0 l/m 0,3 km/h (0 Bft) NO 51 0 min 0,000 mm 0,9 UV-I 168 W/m 18,1 C 18,8 C 3,2 km/h (1 Bft) 95,74 %
10.07.2017 08:56 18,7 C 25,0 C 95 % 1008,8 hPa 0,0 l/m 0,0 km/h (0 Bft) NO 51 0 min 0,000 mm 1,0 UV-I 179 W/m 17,9 C 18,7 C 0,0 km/h (0 Bft) 93,62 %
10.07.2017 08:58 18,8 C 25,0 C 95 % 1008,9 hPa 0,0 l/m 0,0 km/h (0 Bft) NO 51 0 min 0,000 mm 1,1 UV-I 192 W/m 18,0 C 18,8 C 0,0 km/h (0 Bft) 96,00 %
10.07.2017 09:00 18,7 C 25,0 C 95 % 1008,9 hPa 0,0 l/m 0,0 km/h (0 Bft) NO 51 0 min 0,076 mm 1,2 UV-I 202 W/m 17,9 C 18,7 C 0,0 km/h (0 Bft) 95,74 %
10.07.2017 09:02 18,8 C 25,0 C 95 % 1008,9 hPa 0,0 l/m 0,0 km/h (0 Bft) NO 51 0 min 0,000 mm 1,2 UV-I 226 W/m 18,0 C 18,8 C 0,0 km/h (0 Bft) 94,87 %
10.07.2017 09:04 19,1 C 25,0 C 96 % 1008,9 hPa 0,0 l/m 0,2 km/h (0 Bft) NO 51 0 min 0,000 mm 1,3 UV-I 243 W/m 18,4 C 19,1 C 1,6 km/h (1 Bft) 93,62 %
10.07.2017 09:06 19,2 C 25,0 C 95 % 1008,9 hPa 0,0 l/m 0,7 km/h (0 Bft) NO 51 0 min 0,000 mm 1,3 UV-I 246 W/m 18,4 C 19,2 C 3,2 km/h (1 Bft) 97,87 %
10.07.2017 09:08 19,2 C 25,0 C 94 % 1008,8 hPa 0,0 l/m 0,4 km/h (0 Bft) NO 51 0 min 0,000 mm 1,2 UV-I 240 W/m 18,2 C 19,2 C 1,6 km/h (1 Bft) 96,00 %
10.07.2017 09:10 19,3 C 25,0 C 95 % 1008,6 hPa 0,0 l/m 1,6 km/h (1 Bft) NO 48 0 min 0,000 mm 1,0 UV-I 204 W/m 18,5 C 19,3 C 6,4 km/h (2 Bft) 97,87 %
10.07.2017 09:12 19,4 C 25,0 C 95 % 1008,4 hPa 0,0 l/m 5,6 km/h (1 Bft) N-NO 26 0 min 0,000 mm 0,9 UV-I 177 W/m 18,6 C 19,4 C 6,4 km/h (2 Bft) 95,74 %
10.07.2017 09:14 19,4 C 25,0 C 94 % 1008,2 hPa 0,0 l/m 7,4 km/h (2 Bft) NO 43 0 min 0,000 mm 0,9 UV-I 163 W/m 18,4 C 19,0 C 9,7 km/h (2 Bft) 93,62 %
10.07.2017 09:16 19,4 C 25,0 C 94 % 1008,2 hPa 0,0 l/m 5,5 km/h (1 Bft) NO 34 0 min 0,000 mm 0,8 UV-I 151 W/m 18,4 C 19,4 C 8,0 km/h (2 Bft) 96,00 %
10.07.2017 09:18 19,4 C 25,0 C 94 % 1008,1 hPa 0,0 l/m 3,7 km/h (1 Bft) NO 34 0 min 0,000 mm 0,8 UV-I 144 W/m 18,4 C 19,4 C 6,4 km/h (2 Bft) 95,74 %
10.07.2017 09:20 19,4 C 25,0 C 94 % 1008,2 hPa 0,0 l/m 0,7 km/h (0 Bft) NO 34 0 min 0,000 mm 0,8 UV-I 139 W/m 18,4 C 19,4 C 1,6 km/h (1 Bft) 93,62 %
10.07.2017 09:22 19,3 C 25,0 C 94 % 1008,3 hPa 0,0 l/m 0,3 km/h (0 Bft) NO 34 0 min 0,000 mm 0,4 UV-I 131 W/m 18,3 C 19,3 C 1,6 km/h (1 Bft) 93,62 %
10.07.2017 09:24 19,3 C 25,0 C 94 % 1008,5 hPa 0,0 l/m 0,5 km/h (0 Bft) NO 34 0 min 0,000 mm 0,6 UV-I 113 W/m 18,3 C 19,3 C 3,2 km/h (1 Bft) 91,49 %
10.07.2017 09:26 19,4 C 25,0 C 94 % 1008,7 hPa 0,0 l/m 5,1 km/h (1 Bft) S 179 0 min 0,000 mm 0,5 UV-I 98 W/m 18,4 C 19,4 C 9,7 km/h (2 Bft) 91,49 %
10.07.2017 09:28 19,3 C 25,0 C 94 % 1009,1 hPa 0,0 l/m 7,1 km/h (2 Bft) S-SW 207 0 min 0,000 mm 0,5 UV-I 90 W/m 18,3 C 19,0 C 9,7 km/h (2 Bft) 95,74 %
10.07.2017 09:30 19,3 C 25,0 C 94 % 1008,9 hPa 0,0 l/m 4,2 km/h (1 Bft) S 174 0 min 0,000 mm 0,5 UV-I 88 W/m 18,3 C 19,3 C 9,7 km/h (2 Bft) 93,62 %
10.07.2017 09:32 19,3 C 25,0 C 94 % 1008,8 hPa 0,0 l/m 2,1 km/h (1 Bft) S-SO 155 0 min 0,000 mm 0,6 UV-I 99 W/m 18,3 C 19,3 C 4,8 km/h (1 Bft) 97,14 %
10.07.2017 09:34 19,3 C 25,0 C 94 % 1008,8 hPa 0,0 l/m 0,7 km/h (0 Bft) S-SO 155 0 min 0,000 mm 0,6 UV-I 112 W/m 18,3 C 19,3 C 3,2 km/h (1 Bft) 96,00 %
10.07.2017 09:36 19,3 C 25,0 C 94 % 1008,8 hPa 0,0 l/m 1,3 km/h (1 Bft) S-SO 155 0 min 0,000 mm 0,7 UV-I 121 W/m 18,3 C 19,3 C 4,8 km/h (1 Bft) 98,00 %
10.07.2017 09:38 19,3 C 25,0 C 94 % 1008,6 hPa 0,0 l/m 0,4 km/h (0 Bft) S-SO 155 0 min 0,000 mm 0,7 UV-I 124 W/m 18,3 C 19,3 C 1,6 km/h (1 Bft) 93,75 %
10.07.2017 09:40 19,3 C 25,0 C 95 % 1008,6 hPa 0,0 l/m 0,0 km/h (0 Bft) S-SO 155 0 min 0,000 mm 0,7 UV-I 123 W/m 18,5 C 19,3 C 0,0 km/h (0 Bft) 95,74 %
10.07.2017 09:42 19,3 C 25,0 C 94 % 1008,8 hPa 0,0 l/m 3,5 km/h (1 Bft) S-SO 167 0 min 0,000 mm 0,7 UV-I 121 W/m 18,3 C 19,3 C 6,4 km/h (2 Bft) 96,00 %
10.07.2017 09:44 19,3 C 25,0 C 94 % 1008,9 hPa 0,0 l/m 5,1 km/h (1 Bft) S 187 0 min 0,000 mm 0,8 UV-I 129 W/m 18,3 C 19,3 C 6,4 km/h (2 Bft) 94,74 %
10.07.2017 09:46 19,4 C 25,0 C 94 % 1008,8 hPa 0,0 l/m 3,8 km/h (1 Bft) S 182 0 min 0,000 mm 0,8 UV-I 143 W/m 18,4 C 19,4 C 6,4 km/h (2 Bft) 95,74 %
10.07.2017 09:48 19,4 C 25,0 C 94 % 1008,9 hPa 0,0 l/m 4,8 km/h (1 Bft) S-SO 163 0 min 0,000 mm 0,9 UV-I 161 W/m 18,4 C 19,4 C 8,0 km/h (2 Bft) 93,62 %
10.07.2017 09:50 19,4 C 25,0 C 94 % 1008,8 hPa 0,0 l/m 4,8 km/h (1 Bft) S-SO 151 0 min 0,000 mm 1,1 UV-I 182 W/m 18,4 C 19,4 C 9,7 km/h (2 Bft) 97,87 %
10.07.2017 09:52 19,4 C 25,0 C 93 % 1008,8 hPa 0,0 l/m 2,2 km/h (1 Bft) S-SO 163 0 min 0,000 mm 1,2 UV-I 203 W/m 18,2 C 19,4 C 6,4 km/h (2 Bft) 93,62 %
10.07.2017 09:54 19,5 C 25,0 C 94 % 1008,8 hPa 0,0 l/m 3,3 km/h (1 Bft) S 178 0 min 0,000 mm 1,3 UV-I 225 W/m 18,5 C 19,5 C 8,0 km/h (2 Bft) 93,62 %
10.07.2017 09:56 19,6 C 25,0 C 94 % 1008,8 hPa 0,0 l/m 5,1 km/h (1 Bft) W-SW 240 0 min 0,000 mm 1,5 UV-I 245 W/m 18,6 C 19,6 C 8,0 km/h (2 Bft) 100,00 %
10.07.2017 09:58 19,6 C 25,0 C 94 % 1008,8 hPa 0,0 l/m 3,4 km/h (1 Bft) W-SW 240 0 min 0,000 mm 1,6 UV-I 253 W/m 18,6 C 19,6 C 6,4 km/h (2 Bft) 100,00 %
10.07.2017 10:00 19,7 C 25,0 C 94 % 1008,9 hPa 0,0 l/m 0,7 km/h (0 Bft) S 174 0 min 0,102 mm 1,7 UV-I 271 W/m 18,7 C 19,7 C 3,2 km/h (1 Bft) 93,62 %
10.07.2017 10:02 19,8 C 25,0 C 94 % 1008,9 hPa 0,0 l/m 3,9 km/h (1 Bft) S 173 0 min 0,000 mm 1,9 UV-I 300 W/m 18,8 C 19,8 C 8,0 km/h (2 Bft) 97,87 %
10.07.2017 10:04 19,9 C 25,0 C 93 % 1008,8 hPa 0,0 l/m 3,9 km/h (1 Bft) SW 227 0 min 0,000 mm 2,0 UV-I 339 W/m 18,7 C 19,9 C 8,0 km/h (2 Bft) 97,87 %
10.07.2017 10:06 20,0 C 25,0 C 93 % 1008,8 hPa 0,0 l/m 2,5 km/h (1 Bft) S 178 0 min 0,000 mm 2,2 UV-I 363 W/m 18,8 C 20,0 C 6,4 km/h (2 Bft) 97,87 %
10.07.2017 10:08 20,1 C 25,0 C 92 % 1008,8 hPa 0,0 l/m 3,3 km/h (1 Bft) S-SO 157 0 min 0,000 mm 2,4 UV-I 375 W/m 18,8 C 20,1 C 6,4 km/h (2 Bft) 95,74 %
10.07.2017 10:10 20,1 C 25,0 C 92 % 1008,9 hPa 0,0 l/m 4,6 km/h (1 Bft) S-SW 207 2 min 0,000 mm 2,4 UV-I 411 W/m 18,8 C 20,1 C 8,0 km/h (2 Bft) 97,87 %
10.07.2017 10:12 20,2 C 25,0 C 91 % 1008,8 hPa 0,0 l/m 5,6 km/h (1 Bft) S-SW 194 2 min 0,000 mm 2,6 UV-I 439 W/m 18,7 C 20,2 C 8,0 km/h (2 Bft) 95,74 %
10.07.2017 10:14 20,3 C 25,0 C 91 % 1008,7 hPa 0,0 l/m 2,9 km/h (1 Bft) S-SW 197 2 min 0,000 mm 2,6 UV-I 432 W/m 18,8 C 20,3 C 4,8 km/h (1 Bft) 94,00 %
10.07.2017 10:16 20,5 C 25,0 C 92 % 1008,6 hPa 0,0 l/m 4,2 km/h (1 Bft) SW 228 2 min 0,000 mm 2,6 UV-I 454 W/m 19,2 C 20,5 C 8,0 km/h (2 Bft) 98,00 %
10.07.2017 10:19 20,7 C 25,0 C 91 % 1008,6 hPa 0,0 l/m 6,2 km/h (2 Bft) SW 214 3 min 0,000 mm 2,5 UV-I 411 W/m 19,2 C 20,7 C 9,7 km/h (2 Bft) 97,30 %
10.07.2017 10:20 20,7 C 25,0 C 90 % 1008,6 hPa 0,0 l/m 5,9 km/h (2 Bft) S-SW 204 0 min 0,000 mm 2,4 UV-I 382 W/m 19,0 C 20,7 C 8,0 km/h (2 Bft) 100,00 %
10.07.2017 10:22 20,8 C 25,0 C 90 % 1008,6 hPa 0,0 l/m 5,7 km/h (1 Bft) W-SW 246 0 min 0,000 mm 2,4 UV-I 377 W/m 19,1 C 20,8 C 9,7 km/h (2 Bft) 97,87 %
10.07.2017 10:24 20,8 C 25,0 C 91 % 1008,6 hPa 0,0 l/m 5,5 km/h (1 Bft) S-SW 208 0 min 0,000 mm 2,5 UV-I 378 W/m 19,3 C 20,8 C 8,0 km/h (2 Bft) 93,62 %
10.07.2017 10:26 20,9 C 25,0 C 89 % 1008,7 hPa 0,0 l/m 5,0 km/h (1 Bft) S 173 2 min 0,000 mm 2,7 UV-I 425 W/m 19,0 C 20,9 C 8,0 km/h (2 Bft) 91,49 %
10.07.2017 10:28 20,9 C 25,0 C 89 % 1008,7 hPa 0,0 l/m 5,6 km/h (1 Bft) W-SW 254 2 min 0,000 mm 4,0 UV-I 497 W/m 19,0 C 20,9 C 9,7 km/h (2 Bft) 94,00 %
10.07.2017 10:30 21,1 C 25,0 C 88 % 1008,7 hPa 0,0 l/m 5,9 km/h (2 Bft) W-SW 242 2 min 0,000 mm 3,3 UV-I 497 W/m 19,0 C 21,1 C 11,3 km/h (2 Bft) 93,75 %
10.07.2017 10:32 21,1 C 25,0 C 88 % 1008,6 hPa 0,0 l/m 4,8 km/h (1 Bft) S-SW 195 2 min 0,000 mm 3,4 UV-I 539 W/m 19,0 C 21,1 C 9,7 km/h (2 Bft) 93,62 %
10.07.2017 10:34 21,3 C 25,0 C 89 % 1008,7 hPa 0,0 l/m 4,1 km/h (1 Bft) S-SW 212 2 min 0,000 mm 4,6 UV-I 631 W/m 19,4 C 21,3 C 8,0 km/h (2 Bft) 95,74 %
10.07.2017 10:36 21,6 C 25,0 C 87 % 1008,8 hPa 0,0 l/m 8,5 km/h (2 Bft) SW 223 2 min 0,000 mm 4,2 UV-I 614 W/m 19,3 C 20,9 C 12,9 km/h (3 Bft) 95,74 %
10.07.2017 10:38 21,8 C 25,0 C 88 % 1008,8 hPa 0,0 l/m 6,5 km/h (2 Bft) S 185 2 min 0,000 mm 3,4 UV-I 554 W/m 19,7 C 21,8 C 9,7 km/h (2 Bft) 95,74 %
10.07.2017 10:40 21,9 C 25,0 C 86 % 1008,7 hPa 0,0 l/m 6,4 km/h (2 Bft) S 177 2 min 0,000 mm 4,1 UV-I 552 W/m 19,4 C 21,9 C 9,7 km/h (2 Bft) 100,00 %
10.07.2017 10:42 22,1 C 25,0 C 86 % 1008,7 hPa 0,0 l/m 6,8 km/h (2 Bft) SW 230 2 min 0,000 mm 5,1 UV-I 823 W/m 19,6 C 22,0 C 9,7 km/h (2 Bft) 95,74 %
10.07.2017 10:44 22,3 C 25,0 C 84 % 1008,7 hPa 0,0 l/m 5,1 km/h (1 Bft) SW 227 2 min 0,000 mm 4,7 UV-I 939 W/m 19,5 C 22,3 C 8,0 km/h (2 Bft) 97,87 %
10.07.2017 10:46 22,4 C 25,0 C 82 % 1008,7 hPa 0,0 l/m 6,1 km/h (2 Bft) S 186 2 min 0,000 mm 5,1 UV-I 884 W/m 19,2 C 22,4 C 11,3 km/h (2 Bft) 92,11 %
10.07.2017 10:48 22,4 C 25,0 C 82 % 1008,7 hPa 0,0 l/m 4,1 km/h (1 Bft) S-SW 199 2 min 0,000 mm 5,1 UV-I 953 W/m 19,2 C 22,4 C 9,7 km/h (2 Bft) 97,87 %
10.07.2017 10:50 22,6 C 25,0 C 82 % 1008,6 hPa 0,0 l/m 5,8 km/h (2 Bft) W 259 2 min 0,000 mm 5,1 UV-I 927 W/m 19,4 C 22,6 C 11,3 km/h (2 Bft) 95,83 %
10.07.2017 10:52 22,8 C 25,0 C 79 % 1008,6 hPa 0,0 l/m 7,1 km/h (2 Bft) S 173 2 min 0,000 mm 5,1 UV-I 883 W/m 19,0 C 22,6 C 14,5 km/h (3 Bft) 96,00 %
10.07.2017 10:54 23,1 C 25,0 C 78 % 1008,6 hPa 0,0 l/m 7,7 km/h (2 Bft) W-SW 238 2 min 0,000 mm 5,1 UV-I 916 W/m 19,0 C 22,7 C 11,3 km/h (2 Bft) 96,00 %
10.07.2017 10:56 23,2 C 25,0 C 76 % 1008,6 hPa 0,0 l/m 7,1 km/h (2 Bft) S 175 2 min 0,000 mm 4,2 UV-I 666 W/m 18,7 C 23,0 C 12,9 km/h (3 Bft) 89,36 %
10.07.2017 10:58 23,2 C 25,0 C 78 % 1008,6 hPa 0,0 l/m 8,4 km/h (2 Bft) W-SW 238 2 min 0,000 mm 5,0 UV-I 612 W/m 19,1 C 22,6 C 14,5 km/h (3 Bft) 97,92 %
10.07.2017 11:00 23,4 C 25,0 C 77 % 1008,6 hPa 0,0 l/m 6,4 km/h (2 Bft) W-SW 250 2 min 0,381 mm 5,2 UV-I 891 W/m 19,1 C 23,4 C 11,3 km/h (2 Bft) 93,62 %
10.07.2017 11:02 23,3 C 25,0 C 76 % 1008,6 hPa 0,0 l/m 9,0 km/h (2 Bft) W 268 2 min 0,000 mm 5,1 UV-I 845 W/m 18,8 C 22,5 C 14,5 km/h (3 Bft) 95,74 %
10.07.2017 11:04 23,2 C 25,0 C 76 % 1008,5 hPa 0,0 l/m 7,6 km/h (2 Bft) W 262 2 min 0,000 mm 5,1 UV-I 820 W/m 18,7 C 22,8 C 14,5 km/h (3 Bft) 97,87 %
10.07.2017 11:06 23,2 C 25,0 C 78 % 1008,6 hPa 0,0 l/m 10,4 km/h (2 Bft) W 262 2 min 0,000 mm 5,0 UV-I 808 W/m 19,1 C 22,1 C 16,1 km/h (3 Bft) 94,74 %
10.07.2017 11:08 23,2 C 25,0 C 77 % 1008,6 hPa 0,0 l/m 11,9 km/h (2 Bft) W-SW 251 2 min 0,000 mm 5,0 UV-I 800 W/m 18,9 C 21,7 C 17,7 km/h (3 Bft) 100,00 %
10.07.2017 11:10 23,1 C 25,0 C 78 % 1008,6 hPa 0,0 l/m 10,5 km/h (2 Bft) W-SW 237 2 min 0,000 mm 5,1 UV-I 811 W/m 19,0 C 21,9 C 16,1 km/h (3 Bft) 100,00 %
10.07.2017 11:12 23,2 C 25,0 C 79 % 1008,6 hPa 0,0 l/m 5,5 km/h (1 Bft) W-SW 244 2 min 0,000 mm 5,2 UV-I 813 W/m 19,3 C 23,2 C 9,7 km/h (2 Bft) 95,74 %
10.07.2017 11:14 23,3 C 25,0 C 76 % 1008,6 hPa 0,0 l/m 10,6 km/h (2 Bft) W-SW 242 2 min 0,000 mm 5,2 UV-I 815 W/m 18,8 C 22,1 C 16,1 km/h (3 Bft) 97,87 %
10.07.2017 11:16 23,2 C 25,0 C 78 % 1008,6 hPa 0,0 l/m 9,4 km/h (2 Bft) W-SW 256 2 min 0,000 mm 5,2 UV-I 820 W/m 19,1 C 22,3 C 16,1 km/h (3 Bft) 97,87 %
10.07.2017 11:18 23,3 C 25,0 C 78 % 1008,6 hPa 0,0 l/m 9,4 km/h (2 Bft) W-SW 257 2 min 0,000 mm 5,3 UV-I 831 W/m 19,2 C 22,4 C 17,7 km/h (3 Bft) 100,00 %
10.07.2017 11:20 23,4 C 25,0 C 77 % 1008,6 hPa 0,0 l/m 12,3 km/h (3 Bft) W-SW 250 2 min 0,000 mm 5,4 UV-I 837 W/m 19,1 C 21,9 C 17,7 km/h (3 Bft) 97,87 %
10.07.2017 11:22 23,4 C 25,0 C 76 % 1008,7 hPa 0,0 l/m 10,3 km/h (2 Bft) W-SW 250 2 min 0,000 mm 5,4 UV-I 833 W/m 18,9 C 22,3 C 17,7 km/h (3 Bft) 100,00 %
10.07.2017 11:24 23,4 C 25,0 C 77 % 1008,7 hPa 0,0 l/m 8,1 km/h (2 Bft) S-SW 207 2 min 0,000 mm 5,2 UV-I 823 W/m 19,1 C 22,9 C 12,9 km/h (3 Bft) 97,87 %
10.07.2017 11:26 23,6 C 25,0 C 78 % 1008,6 hPa 0,0 l/m 3,7 km/h (1 Bft) W-SW 242 2 min 0,000 mm 5,4 UV-I 820 W/m 19,5 C 23,6 C 8,0 km/h (2 Bft) 95,74 %
10.07.2017 11:28 23,7 C 25,0 C 77 % 1008,6 hPa 0,0 l/m 5,4 km/h (1 Bft) W-SW 257 2 min 0,000 mm 5,4 UV-I 820 W/m 19,4 C 23,7 C 12,9 km/h (3 Bft) 98,00 %
10.07.2017 11:30 23,6 C 25,0 C 77 % 1008,6 hPa 0,0 l/m 6,2 km/h (2 Bft) W-NW 286 2 min 0,000 mm 5,5 UV-I 821 W/m 19,3 C 23,6 C 9,7 km/h (2 Bft) 100,00 %
10.07.2017 11:32 23,7 C 25,0 C 77 % 1008,6 hPa 0,0 l/m 7,9 km/h (2 Bft) W 263 2 min 0,000 mm 5,5 UV-I 832 W/m 19,4 C 23,3 C 16,1 km/h (3 Bft) 93,62 %
10.07.2017 11:34 23,8 C 25,0 C 77 % 1008,5 hPa 0,0 l/m 9,1 km/h (2 Bft) W-SW 258 2 min 0,000 mm 5,6 UV-I 842 W/m 19,5 C 23,1 C 14,5 km/h (3 Bft) 97,87 %
10.07.2017 11:36 23,8 C 25,0 C 75 % 1008,6 hPa 0,0 l/m 11,0 km/h (2 Bft) SW 230 2 min 0,000 mm 5,6 UV-I 846 W/m 19,1 C 22,6 C 17,7 km/h (3 Bft) 95,83 %
10.07.2017 11:38 23,7 C 25,0 C 74 % 1008,6 hPa 0,0 l/m 9,8 km/h (2 Bft) W-SW 242 2 min 0,000 mm 5,6 UV-I 841 W/m 18,8 C 22,8 C 16,1 km/h (3 Bft) 91,49 %
10.07.2017 11:40 23,7 C 25,0 C 76 % 1008,6 hPa 0,0 l/m 7,8 km/h (2 Bft) W-NW 283 2 min 0,000 mm 5,6 UV-I 833 W/m 19,2 C 23,3 C 14,5 km/h (3 Bft) 97,56 %
10.07.2017 11:42 23,8 C 25,6 C 75 % 1008,6 hPa 0,0 l/m 6,4 km/h (2 Bft) SW 231 2 min 0,000 mm 5,7 UV-I 833 W/m 19,1 C 23,8 C 11,3 km/h (2 Bft) 98,04 %
10.07.2017 11:44 24,1 C 25,6 C 75 % 1008,6 hPa 0,0 l/m 5,3 km/h (1 Bft) W-SW 250 2 min 0,000 mm 5,7 UV-I 834 W/m 19,4 C 24,1 C 9,7 km/h (2 Bft) 95,74 %
10.07.2017 11:46 24,1 C 25,6 C 73 % 1008,6 hPa 0,0 l/m 3,3 km/h (1 Bft) SW 229 2 min 0,000 mm 5,7 UV-I 832 W/m 18,9 C 24,1 C 4,8 km/h (1 Bft) 95,74 %
10.07.2017 11:48 24,2 C 25,6 C 74 % 1008,7 hPa 0,0 l/m 2,2 km/h (1 Bft) W-NW 284 2 min 0,000 mm 5,8 UV-I 832 W/m 19,3 C 24,2 C 6,4 km/h (2 Bft) 97,87 %
10.07.2017 11:50 24,2 C 25,6 C 72 % 1008,8 hPa 0,0 l/m 9,2 km/h (2 Bft) W-NW 282 2 min 0,000 mm 5,8 UV-I 835 W/m 18,8 C 23,5 C 17,7 km/h (3 Bft) 91,49 %
10.07.2017 11:52 24,2 C 25,6 C 74 % 1008,6 hPa 0,0 l/m 7,8 km/h (2 Bft) W-SW 257 2 min 0,000 mm 5,8 UV-I 838 W/m 19,3 C 23,8 C 14,5 km/h (3 Bft) 95,74 %
10.07.2017 11:54 24,2 C 25,6 C 72 % 1008,7 hPa 0,0 l/m 11,0 km/h (2 Bft) SW 229 2 min 0,000 mm 5,8 UV-I 839 W/m 18,8 C 23,1 C 20,9 km/h (4 Bft) 85,11 %
10.07.2017 11:56 24,2 C 25,6 C 72 % 1008,7 hPa 0,0 l/m 11,3 km/h (2 Bft) W-SW 238 2 min 0,000 mm 5,8 UV-I 841 W/m 18,8 C 23,0 C 20,9 km/h (4 Bft) 91,49 %
10.07.2017 11:58 24,2 C 25,6 C 72 % 1008,7 hPa 0,0 l/m 7,6 km/h (2 Bft) W-NW 293 2 min 0,000 mm 5,9 UV-I 844 W/m 18,8 C 23,9 C 16,1 km/h (3 Bft) 100,00 %
10.07.2017 12:00 24,3 C 25,6 C 71 % 1008,7 hPa 0,0 l/m 9,5 km/h (2 Bft) W-NW 286 2 min 0,533 mm 5,9 UV-I 844 W/m 18,7 C 23,5 C 14,5 km/h (3 Bft) 100,00 %
10.07.2017 12:02 24,2 C 25,6 C 72 % 1008,8 hPa 0,0 l/m 6,3 km/h (2 Bft) W 263 2 min 0,000 mm 5,9 UV-I 842 W/m 18,8 C 24,2 C 12,9 km/h (3 Bft) 97,92 %
10.07.2017 12:04 24,3 C 25,6 C 71 % 1008,8 hPa 0,0 l/m 8,0 km/h (2 Bft) W 263 2 min 0,000 mm 6,0 UV-I 847 W/m 18,7 C 23,9 C 12,9 km/h (3 Bft) 97,87 %
10.07.2017 12:06 24,6 C 25,6 C 73 % 1008,7 hPa 0,0 l/m 3,8 km/h (1 Bft) N-NW 333 2 min 0,000 mm 6,0 UV-I 847 W/m 19,4 C 24,6 C 9,7 km/h (2 Bft) 91,49 %
10.07.2017 12:08 24,8 C 25,6 C 72 % 1008,7 hPa 0,0 l/m 8,6 km/h (2 Bft) SW 227 2 min 0,000 mm 6,0 UV-I 846 W/m 19,4 C 24,2 C 14,5 km/h (3 Bft) 98,00 %
10.07.2017 12:10 24,9 C 25,6 C 70 % 1008,7 hPa 0,0 l/m 8,0 km/h (2 Bft) W-SW 258 2 min 0,000 mm 6,1 UV-I 849 W/m 19,0 C 24,5 C 12,9 km/h (3 Bft) 95,74 %
10.07.2017 12:12 24,9 C 25,6 C 70 % 1008,7 hPa 0,0 l/m 14,0 km/h (3 Bft) SW 236 2 min 0,000 mm 6,1 UV-I 854 W/m 19,0 C 23,3 C 19,3 km/h (3 Bft) 95,83 %
10.07.2017 12:14 24,9 C 25,6 C 71 % 1008,6 hPa 0,0 l/m 14,0 km/h (3 Bft) S 182 2 min 0,000 mm 6,0 UV-I 844 W/m 19,3 C 23,3 C 20,9 km/h (4 Bft) 89,36 %
10.07.2017 12:16 25,1 C 25,6 C 71 % 1008,7 hPa 0,0 l/m 7,7 km/h (2 Bft) W-SW 248 2 min 0,000 mm 6,0 UV-I 838 W/m 19,5 C 24,8 C 16,1 km/h (3 Bft) 92,00 %
10.07.2017 12:18 25,4 C 25,6 C 70 % 1008,7 hPa 0,0 l/m 7,3 km/h (2 Bft) W-SW 255 2 min 0,000 mm 6,0 UV-I 796 W/m 19,5 C 25,2 C 14,5 km/h (3 Bft) 97,92 %
10.07.2017 12:20 25,5 C 25,6 C 70 % 1008,7 hPa 0,0 l/m 5,2 km/h (1 Bft) W 260 2 min 0,000 mm 5,4 UV-I 798 W/m 19,6 C 25,5 C 11,3 km/h (2 Bft) 97,37 %
10.07.2017 12:22 25,4 C 25,6 C 68 % 1008,6 hPa 0,0 l/m 11,8 km/h (2 Bft) W-SW 246 2 min 0,000 mm 5,0 UV-I 798 W/m 19,1 C 24,3 C 17,7 km/h (3 Bft) 95,74 %
10.07.2017 12:24 25,3 C 25,6 C 70 % 1008,6 hPa 0,0 l/m 6,8 km/h (2 Bft) NW 305 2 min 0,000 mm 6,1 UV-I 854 W/m 19,4 C 25,2 C 12,9 km/h (3 Bft) 97,87 %
10.07.2017 12:26 25,3 C 25,6 C 68 % 1008,6 hPa 0,0 l/m 4,9 km/h (1 Bft) W 270 2 min 0,000 mm 6,2 UV-I 890 W/m 19,0 C 25,3 C 11,3 km/h (2 Bft) 94,00 %
10.07.2017 12:28 25,4 C 25,6 C 69 % 1008,6 hPa 0,0 l/m 4,3 km/h (1 Bft) W-NW 294 2 min 0,000 mm 6,0 UV-I 883 W/m 19,3 C 25,4 C 9,7 km/h (2 Bft) 98,00 %
10.07.2017 12:30 25,6 C 25,6 C 69 % 1008,7 hPa 0,0 l/m 5,9 km/h (2 Bft) W-NW 302 2 min 0,000 mm 5,7 UV-I 885 W/m 19,5 C 25,6 C 12,9 km/h (3 Bft) 97,87 %
10.07.2017 12:32 25,6 C 25,6 C 68 % 1008,7 hPa 0,0 l/m 10,0 km/h (2 Bft) W-NW 290 2 min 0,000 mm 5,8 UV-I 875 W/m 19,2 C 24,8 C 16,1 km/h (3 Bft) 95,74 %
10.07.2017 12:34 25,6 C 25,6 C 67 % 1008,7 hPa 0,0 l/m 9,4 km/h (2 Bft) SW 221 2 min 0,000 mm 6,2 UV-I 940 W/m 19,0 C 24,9 C 17,7 km/h (3 Bft) 100,00 %
10.07.2017 12:36 25,5 C 25,6 C 67 % 1008,6 hPa 0,0 l/m 4,7 km/h (1 Bft) W-SW 256 2 min 0,000 mm 5,1 UV-I 969 W/m 18,9 C 25,5 C 12,9 km/h (3 Bft) 100,00 %
10.07.2017 12:38 25,4 C 25,6 C 68 % 1008,7 hPa 0,0 l/m 8,7 km/h (2 Bft) W-SW 244 2 min 0,000 mm 6,4 UV-I 936 W/m 19,1 C 24,9 C 14,5 km/h (3 Bft) 100,00 %
10.07.2017 12:40 25,6 C 25,6 C 68 % 1008,6 hPa 0,0 l/m 6,9 km/h (2 Bft) W-NW 292 2 min 0,000 mm 5,5 UV-I 933 W/m 19,2 C 25,5 C 12,9 km/h (3 Bft) 100,00 %
10.07.2017 12:42 25,7 C 25,6 C 68 % 1008,6 hPa 0,0 l/m 6,4 km/h (2 Bft) S-SW 208 2 min 0,000 mm 4,8 UV-I 933 W/m 19,3 C 25,7 C 14,5 km/h (3 Bft) 96,00 %
10.07.2017 12:44 25,8 C 25,6 C 67 % 1008,7 hPa 0,0 l/m 6,2 km/h (2 Bft) W 277 2 min 0,000 mm 6,3 UV-I 916 W/m 19,2 C 25,8 C 12,9 km/h (3 Bft) 95,74 %
10.07.2017 12:46 25,8 C 25,6 C 66 % 1008,7 hPa 0,0 l/m 9,3 km/h (2 Bft) W 277 2 min 0,000 mm 6,3 UV-I 905 W/m 19,0 C 25,2 C 14,5 km/h (3 Bft) 97,87 %
10.07.2017 12:48 25,7 C 25,6 C 66 % 1008,7 hPa 0,0 l/m 10,7 km/h (2 Bft) N-NW 339 2 min 0,000 mm 6,3 UV-I 886 W/m 18,9 C 24,8 C 17,7 km/h (3 Bft) 91,49 %
10.07.2017 12:50 25,7 C 25,6 C 66 % 1008,7 hPa 0,0 l/m 8,6 km/h (2 Bft) W-SW 244 2 min 0,000 mm 6,3 UV-I 885 W/m 18,9 C 25,2 C 14,5 km/h (3 Bft) 95,83 %
10.07.2017 12:52 25,7 C 25,6 C 66 % 1008,7 hPa 0,0 l/m 11,6 km/h (2 Bft) W-SW 250 2 min 0,000 mm 6,3 UV-I 888 W/m 18,9 C 24,7 C 16,1 km/h (3 Bft) 93,88 %
10.07.2017 12:54 25,7 C 25,6 C 66 % 1008,7 hPa 0,0 l/m 11,3 km/h (2 Bft) W-SW 250 2 min 0,000 mm 6,3 UV-I 884 W/m 18,9 C 24,7 C 19,3 km/h (3 Bft) 90,00 %
10.07.2017 12:56 25,7 C 25,6 C 66 % 1008,7 hPa 0,0 l/m 4,7 km/h (1 Bft) W 263 2 min 0,000 mm 6,3 UV-I 884 W/m 18,9 C 25,7 C 8,0 km/h (2 Bft) 92,31 %
10.07.2017 12:58 25,7 C 25,6 C 65 % 1008,5 hPa 0,0 l/m 4,4 km/h (1 Bft) SW 234 2 min 0,000 mm 6,3 UV-I 892 W/m 18,6 C 25,7 C 11,3 km/h (2 Bft) 93,62 %
10.07.2017 13:00 25,7 C 25,6 C 66 % 1008,6 hPa 0,0 l/m 8,6 km/h (2 Bft) NW 304 2 min 0,534 mm 5,0 UV-I 906 W/m 18,9 C 25,2 C 17,7 km/h (3 Bft) 91,49 %
10.07.2017 13:02 25,8 C 25,6 C 65 % 1008,6 hPa 0,0 l/m 9,2 km/h (2 Bft) W 275 2 min 0,000 mm 5,4 UV-I 873 W/m 18,7 C 25,2 C 17,7 km/h (3 Bft) 93,62 %
10.07.2017 13:04 25,9 C 25,6 C 65 % 1008,5 hPa 0,0 l/m 7,2 km/h (2 Bft) W 278 2 min 0,000 mm 6,4 UV-I 900 W/m 18,8 C 25,7 C 11,3 km/h (2 Bft) 93,62 %
10.07.2017 13:06 26,1 C 25,6 C 63 % 1008,6 hPa 0,0 l/m 8,5 km/h (2 Bft) NW 323 2 min 0,000 mm 6,5 UV-I 909 W/m 18,5 C 25,7 C 16,1 km/h (3 Bft) 95,74 %
10.07.2017 13:08 26,1 C 25,6 C 63 % 1008,5 hPa 0,0 l/m 6,8 km/h (2 Bft) W 267 2 min 0,000 mm 5,7 UV-I 932 W/m 18,5 C 26,0 C 16,1 km/h (3 Bft) 95,74 %
10.07.2017 13:10 26,2 C 25,6 C 65 % 1008,6 hPa 0,0 l/m 2,6 km/h (1 Bft) W-SW 240 2 min 0,000 mm 6,1 UV-I 949 W/m 19,1 C 26,2 C 16,1 km/h (3 Bft) 95,74 %
10.07.2017 13:12 26,3 C 25,6 C 61 % 1008,6 hPa 0,0 l/m 9,7 km/h (2 Bft) W-NW 286 2 min 0,000 mm 5,1 UV-I 945 W/m 18,2 C 25,7 C 16,1 km/h (3 Bft) 93,62 %
10.07.2017 13:14 26,2 C 26,1 C 64 % 1008,5 hPa 0,0 l/m 8,1 km/h (2 Bft) W-SW 244 2 min 0,000 mm 6,5 UV-I 994 W/m 18,8 C 25,8 C 14,5 km/h (3 Bft) 95,74 %
10.07.2017 13:16 26,4 C 26,1 C 62 % 1008,6 hPa 0,0 l/m 7,5 km/h (2 Bft) W-NW 288 2 min 0,000 mm 6,0 UV-I 998 W/m 18,5 C 26,2 C 19,3 km/h (3 Bft) 95,74 %
10.07.2017 13:18 26,4 C 26,1 C 62 % 1008,5 hPa 0,0 l/m 6,3 km/h (2 Bft) S-SW 205 2 min 0,000 mm 4,5 UV-I 1023 W/m 18,5 C 26,4 C 12,9 km/h (3 Bft) 91,49 %
10.07.2017 13:20 26,4 C 26,1 C 62 % 1008,5 hPa 0,0 l/m 5,1 km/h (1 Bft) W 264 2 min 0,000 mm 4,6 UV-I 905 W/m 18,5 C 26,4 C 11,3 km/h (2 Bft) 91,49 %
10.07.2017 13:22 26,3 C 26,1 C 62 % 1008,5 hPa 0,0 l/m 5,8 km/h (2 Bft) W-SW 244 0 min 0,000 mm 5,3 UV-I 392 W/m 18,4 C 26,3 C 9,7 km/h (2 Bft) 97,87 %
10.07.2017 13:24 26,4 C 26,1 C 62 % 1008,6 hPa 0,0 l/m 13,1 km/h (3 Bft) W 273 0 min 0,000 mm 4,0 UV-I 375 W/m 18,5 C 25,2 C 20,9 km/h (4 Bft) 96,00 %
10.07.2017 13:26 26,3 C 26,1 C 62 % 1008,6 hPa 0,0 l/m 11,1 km/h (2 Bft) W-NW 294 0 min 0,000 mm 4,5 UV-I 376 W/m 18,4 C 25,4 C 19,3 km/h (3 Bft) 93,62 %
10.07.2017 13:28 26,3 C 26,1 C 63 % 1008,6 hPa 0,0 l/m 6,2 km/h (2 Bft) W-NW 290 0 min 0,000 mm 4,8 UV-I 436 W/m 18,7 C 26,3 C 11,3 km/h (2 Bft) 97,87 %
10.07.2017 13:30 26,4 C 26,1 C 63 % 1008,5 hPa 0,0 l/m 5,3 km/h (1 Bft) W 279 2 min 0,000 mm 4,6 UV-I 988 W/m 18,8 C 26,4 C 14,5 km/h (3 Bft) 95,74 %
10.07.2017 13:32 26,4 C 26,1 C 62 % 1008,5 hPa 0,0 l/m 4,4 km/h (1 Bft) NW 309 2 min 0,000 mm 4,9 UV-I 1015 W/m 18,5 C 26,4 C 11,3 km/h (2 Bft) 93,75 %
10.07.2017 13:34 26,4 C 26,1 C 63 % 1008,6 hPa 0,0 l/m 4,4 km/h (1 Bft) S-SW 212 2 min 0,000 mm 3,9 UV-I 515 W/m 18,8 C 26,4 C 12,9 km/h (3 Bft) 95,74 %
10.07.2017 13:36 26,6 C 26,1 C 63 % 1008,6 hPa 0,0 l/m 7,5 km/h (2 Bft) W-SW 240 0 min 0,000 mm 5,3 UV-I 382 W/m 19,0 C 26,4 C 11,3 km/h (2 Bft) 95,74 %
10.07.2017 13:38 26,7 C 26,1 C 63 % 1008,5 hPa 0,0 l/m 3,9 km/h (1 Bft) NW 304 2 min 0,000 mm 4,5 UV-I 618 W/m 19,1 C 26,7 C 9,7 km/h (2 Bft) 93,88 %
10.07.2017 13:40 26,6 C 26,1 C 62 % 1008,5 hPa 0,0 l/m 5,9 km/h (2 Bft) SW 220 0 min 0,000 mm 4,2 UV-I 475 W/m 18,7 C 26,6 C 17,7 km/h (3 Bft) 95,74 %
10.07.2017 13:42 26,5 C 26,1 C 62 % 1008,6 hPa 0,0 l/m 12,7 km/h (3 Bft) W-SW 243 2 min 0,000 mm 4,8 UV-I 527 W/m 18,6 C 25,4 C 19,3 km/h (3 Bft) 97,87 %
10.07.2017 13:44 26,5 C 26,1 C 62 % 1008,6 hPa 0,0 l/m 6,1 km/h (2 Bft) W-NW 286 2 min 0,000 mm 5,3 UV-I 530 W/m 18,6 C 26,5 C 14,5 km/h (3 Bft) 93,62 %
10.07.2017 13:46 26,7 C 26,1 C 62 % 1008,5 hPa 0,0 l/m 7,3 km/h (2 Bft) W-NW 288 2 min 0,000 mm 5,6 UV-I 527 W/m 18,8 C 26,5 C 14,5 km/h (3 Bft) 97,87 %
10.07.2017 13:48 26,6 C 26,1 C 61 % 1008,6 hPa 0,0 l/m 9,7 km/h (2 Bft) NO 43 2 min 0,000 mm 5,5 UV-I 537 W/m 18,4 C 26,0 C 16,1 km/h (3 Bft) 97,37 %
10.07.2017 13:50 26,4 C 26,1 C 62 % 1008,6 hPa 0,0 l/m 8,2 km/h (2 Bft) SW 236 0 min 0,000 mm 5,7 UV-I 475 W/m 18,5 C 26,0 C 16,1 km/h (3 Bft) 97,87 %
10.07.2017 13:52 26,5 C 26,1 C 62 % 1008,6 hPa 0,0 l/m 14,0 km/h (3 Bft) W-SW 254 0 min 0,000 mm 6,1 UV-I 475 W/m 18,6 C 25,2 C 25,7 km/h (4 Bft) 100,00 %
10.07.2017 13:54 26,8 C 26,1 C 65 % 1008,6 hPa 0,0 l/m 4,1 km/h (1 Bft) W-SW 238 2 min 0,000 mm 6,2 UV-I 907 W/m 19,7 C 26,8 C 9,7 km/h (2 Bft) 100,00 %
10.07.2017 13:56 27,1 C 26,1 C 60 % 1008,5 hPa 0,0 l/m 7,6 km/h (2 Bft) N 350 2 min 0,000 mm 6,3 UV-I 950 W/m 18,6 C 26,9 C 17,7 km/h (3 Bft) 100,00 %
10.07.2017 13:58 27,2 C 26,1 C 58 % 1008,5 hPa 0,0 l/m 7,5 km/h (2 Bft) W 263 2 min 0,000 mm 6,1 UV-I 959 W/m 18,2 C 27,0 C 17,7 km/h (3 Bft) 98,00 %
10.07.2017 14:00 27,3 C 26,1 C 59 % 1008,5 hPa 0,0 l/m 7,2 km/h (2 Bft) W-NW 296 2 min 0,508 mm 6,1 UV-I 974 W/m 18,6 C 27,2 C 16,1 km/h (3 Bft) 100,00 %
10.07.2017 14:02 27,2 C 26,1 C 58 % 1008,5 hPa 0,0 l/m 8,0 km/h (2 Bft) W 278 2 min 0,000 mm 4,8 UV-I 974 W/m 18,2 C 26,9 C 22,5 km/h (4 Bft) 95,74 %
10.07.2017 14:04 27,1 C 26,1 C 59 % 1008,5 hPa 0,0 l/m 8,0 km/h (2 Bft) W-SW 240 2 min 0,000 mm 5,9 UV-I 974 W/m 18,4 C 26,8 C 16,1 km/h (3 Bft) 98,00 %
10.07.2017 14:06 27,3 C 26,1 C 57 % 1008,6 hPa 0,0 l/m 11,4 km/h (2 Bft) W 259 2 min 0,000 mm 6,3 UV-I 994 W/m 18,0 C 26,5 C 19,3 km/h (3 Bft) 97,87 %
10.07.2017 14:08 27,3 C 26,1 C 58 % 1008,5 hPa 0,0 l/m 17,1 km/h (3 Bft) SW 236 2 min 0,000 mm 6,5 UV-I 1017 W/m 18,3 C 25,9 C 30,6 km/h (5 Bft) 96,00 %
10.07.2017 14:10 27,3 C 26,1 C 56 % 1008,6 hPa 0,0 l/m 16,4 km/h (3 Bft) W-SW 254 2 min 0,000 mm 6,3 UV-I 1022 W/m 17,7 C 26,0 C 30,6 km/h (5 Bft) 98,00 %
10.07.2017 14:12 27,3 C 26,1 C 56 % 1008,6 hPa 0,0 l/m 14,8 km/h (3 Bft) W-SW 244 2 min 0,000 mm 6,2 UV-I 1008 W/m 17,7 C 26,1 C 22,5 km/h (4 Bft) 93,62 %
10.07.2017 14:14 27,3 C 26,1 C 56 % 1008,6 hPa 0,0 l/m 12,1 km/h (2 Bft) NW 312 2 min 0,000 mm 6,0 UV-I 963 W/m 17,7 C 26,4 C 16,1 km/h (3 Bft) 93,75 %
10.07.2017 14:16 27,2 C 26,1 C 56 % 1008,6 hPa 0,0 l/m 8,1 km/h (2 Bft) W 266 2 min 0,000 mm 6,0 UV-I 963 W/m 17,6 C 26,9 C 16,1 km/h (3 Bft) 97,87 %
10.07.2017 14:18 27,2 C 26,1 C 56 % 1008,6 hPa 0,0 l/m 7,0 km/h (2 Bft) W 275 2 min 0,000 mm 5,9 UV-I 1067 W/m 17,6 C 27,1 C 12,9 km/h (3 Bft) 97,87 %
10.07.2017 14:20 27,3 C 26,1 C 56 % 1008,6 hPa 0,0 l/m 9,9 km/h (2 Bft) SW 235 2 min 0,000 mm 5,8 UV-I 1067 W/m 17,7 C 26,7 C 19,3 km/h (3 Bft) 95,74 %
10.07.2017 14:22 27,3 C 26,1 C 57 % 1008,6 hPa 0,0 l/m 7,9 km/h (2 Bft) W-SW 245 2 min 0,000 mm 4,6 UV-I 816 W/m 18,0 C 27,0 C 16,1 km/h (3 Bft) 100,00 %
10.07.2017 14:24 27,2 C 26,1 C 57 % 1008,6 hPa 0,0 l/m 8,0 km/h (2 Bft) NW 325 2 min 0,000 mm 4,6 UV-I 515 W/m 17,9 C 26,9 C 12,9 km/h (3 Bft) 97,96 %
10.07.2017 14:26 27,2 C 26,1 C 58 % 1008,6 hPa 0,0 l/m 4,6 km/h (1 Bft) W 267 2 min 0,000 mm 4,8 UV-I 604 W/m 18,2 C 27,2 C 11,3 km/h (2 Bft) 95,92 %
10.07.2017 14:28 27,2 C 26,1 C 58 % 1008,6 hPa 0,0 l/m 8,2 km/h (2 Bft) W-SW 247 2 min 0,000 mm 5,4 UV-I 617 W/m 18,2 C 26,9 C 19,3 km/h (3 Bft) 98,11 %
10.07.2017 14:30 27,2 C 26,1 C 58 % 1008,6 hPa 0,0 l/m 10,1 km/h (2 Bft) SW 217 2 min 0,000 mm 5,9 UV-I 754 W/m 18,2 C 26,6 C 16,1 km/h (3 Bft) 100,00 %
10.07.2017 14:32 27,5 C 26,1 C 58 % 1008,7 hPa 0,0 l/m 12,1 km/h (2 Bft) W 259 2 min 0,000 mm 6,1 UV-I 1001 W/m 18,5 C 26,7 C 17,7 km/h (3 Bft) 95,74 %
10.07.2017 14:34 27,5 C 26,1 C 55 % 1008,6 hPa 0,0 l/m 12,0 km/h (2 Bft) SW 220 2 min 0,000 mm 6,0 UV-I 977 W/m 17,6 C 26,7 C 17,7 km/h (3 Bft) 100,00 %
10.07.2017 14:36 27,3 C 26,1 C 55 % 1008,6 hPa 0,0 l/m 10,5 km/h (2 Bft) W-SW 244 2 min 0,000 mm 6,0 UV-I 967 W/m 17,4 C 26,6 C 19,3 km/h (3 Bft) 96,00 %
10.07.2017 14:38 27,4 C 26,1 C 56 % 1008,6 hPa 0,0 l/m 13,6 km/h (3 Bft) W 260 2 min 0,000 mm 5,5 UV-I 906 W/m 17,8 C 26,4 C 20,9 km/h (4 Bft) 100,00 %
10.07.2017 14:40 27,5 C 26,1 C 57 % 1008,5 hPa 0,0 l/m 9,9 km/h (2 Bft) W 274 2 min 0,000 mm 5,6 UV-I 762 W/m 18,2 C 26,9 C 14,5 km/h (3 Bft) 95,74 %
10.07.2017 14:42 27,7 C 26,1 C 55 % 1008,5 hPa 0,0 l/m 6,5 km/h (2 Bft) W-SW 243 2 min 0,000 mm 5,4 UV-I 937 W/m 17,8 C 27,7 C 12,9 km/h (3 Bft) 97,87 %
10.07.2017 14:44 27,7 C 26,1 C 54 % 1008,5 hPa 0,0 l/m 11,2 km/h (2 Bft) NW 306 2 min 0,000 mm 5,7 UV-I 918 W/m 17,5 C 27,0 C 19,3 km/h (3 Bft) 97,56 %
10.07.2017 14:46 27,7 C 26,1 C 55 % 1008,6 hPa 0,0 l/m 6,5 km/h (2 Bft) N-NW 328 2 min 0,000 mm 5,8 UV-I 932 W/m 17,8 C 27,7 C 16,1 km/h (3 Bft) 100,00 %
10.07.2017 14:48 27,6 C 26,1 C 56 % 1008,5 hPa 0,0 l/m 6,5 km/h (2 Bft) N-NW 332 2 min 0,000 mm 5,3 UV-I 881 W/m 18,0 C 27,6 C 16,1 km/h (3 Bft) 97,44 %
10.07.2017 14:50 27,4 C 26,1 C 56 % 1008,4 hPa 0,0 l/m 10,0 km/h (2 Bft) W-SW 254 2 min 0,000 mm 5,5 UV-I 858 W/m 17,8 C 26,8 C 19,3 km/h (3 Bft) 100,00 %
10.07.2017 14:52 27,5 C 26,1 C 57 % 1008,4 hPa 0,0 l/m 10,1 km/h (2 Bft) W-NW 286 2 min 0,000 mm 5,4 UV-I 851 W/m 18,2 C 26,9 C 19,3 km/h (3 Bft) 96,00 %
10.07.2017 14:54 27,4 C 26,1 C 56 % 1008,4 hPa 0,0 l/m 7,9 km/h (2 Bft) W-NW 292 2 min 0,000 mm 5,4 UV-I 858 W/m 17,8 C 27,1 C 19,3 km/h (3 Bft) 97,87 %
10.07.2017 14:56 27,5 C 26,1 C 57 % 1008,4 hPa 0,0 l/m 7,8 km/h (2 Bft) S 189 2 min 0,000 mm 5,4 UV-I 850 W/m 18,2 C 27,3 C 16,1 km/h (3 Bft) 97,87 %
10.07.2017 14:58 27,8 C 26,1 C 56 % 1008,4 hPa 0,0 l/m 9,1 km/h (2 Bft) W-SW 242 2 min 0,000 mm 5,3 UV-I 879 W/m 18,2 C 27,4 C 16,1 km/h (3 Bft) 95,74 %
10.07.2017 15:00 28,0 C 26,1 C 56 % 1008,4 hPa 0,0 l/m 15,2 km/h (3 Bft) SW 236 2 min 0,635 mm 5,2 UV-I 896 W/m 18,4 C 26,9 C 24,1 km/h (4 Bft) 100,00 %
10.07.2017 15:02 27,8 C 26,1 C 56 % 1008,4 hPa 0,0 l/m 10,7 km/h (2 Bft) N-NW 338 2 min 0,000 mm 4,9 UV-I 916 W/m 18,2 C 27,2 C 16,1 km/h (3 Bft) 97,87 %
10.07.2017 15:04 27,7 C 26,1 C 56 % 1008,3 hPa 0,0 l/m 6,4 km/h (2 Bft) S-SW 198 2 min 0,000 mm 4,4 UV-I 663 W/m 18,1 C 27,7 C 12,9 km/h (3 Bft) 100,00 %
10.07.2017 15:06 27,8 C 26,1 C 56 % 1008,3 hPa 0,0 l/m 6,7 km/h (2 Bft) SW 235 2 min 0,000 mm 4,7 UV-I 654 W/m 18,2 C 27,8 C 20,9 km/h (4 Bft) 97,87 %
10.07.2017 15:08 27,9 C 26,1 C 55 % 1008,4 hPa 0,0 l/m 16,8 km/h (3 Bft) SW 232 2 min 0,000 mm 4,2 UV-I 654 W/m 18,0 C 26,7 C 22,5 km/h (4 Bft) 100,00 %
10.07.2017 15:10 27,8 C 26,1 C 54 % 1008,4 hPa 0,0 l/m 15,0 km/h (3 Bft) N-NW 338 2 min 0,000 mm 3,9 UV-I 477 W/m 17,6 C 26,7 C 20,9 km/h (4 Bft) 100,00 %
10.07.2017 15:12 27,4 C 26,1 C 54 % 1008,4 hPa 0,0 l/m 7,8 km/h (2 Bft) NW 322 2 min 0,000 mm 3,8 UV-I 487 W/m 17,3 C 27,2 C 16,1 km/h (3 Bft) 100,00 %
10.07.2017 15:14 27,3 C 26,1 C 56 % 1008,3 hPa 0,0 l/m 4,5 km/h (1 Bft) W-NW 294 2 min 0,000 mm 3,6 UV-I 444 W/m 17,7 C 27,3 C 9,7 km/h (2 Bft) 100,00 %
10.07.2017 15:16 27,1 C 26,1 C 56 % 1008,3 hPa 0,0 l/m 3,8 km/h (1 Bft) W 269 2 min 0,000 mm 3,9 UV-I 467 W/m 17,5 C 27,1 C 8,0 km/h (2 Bft) 100,00 %
10.07.2017 15:18 27,3 C 26,1 C 56 % 1008,3 hPa 0,0 l/m 5,1 km/h (1 Bft) W-SW 250 2 min 0,000 mm 3,7 UV-I 462 W/m 17,7 C 27,3 C 9,7 km/h (2 Bft) 97,87 %
10.07.2017 15:20 27,3 C 26,7 C 56 % 1008,3 hPa 0,0 l/m 6,2 km/h (2 Bft) W 269 0 min 0,000 mm 3,4 UV-I 392 W/m 17,7 C 27,3 C 14,5 km/h (3 Bft) 97,87 %
10.07.2017 15:22 27,2 C 26,7 C 56 % 1008,3 hPa 0,0 l/m 5,4 km/h (1 Bft) NW 306 0 min 0,000 mm 3,3 UV-I 423 W/m 17,6 C 27,2 C 12,9 km/h (3 Bft) 100,00 %
10.07.2017 15:24 27,2 C 26,7 C 56 % 1008,2 hPa 0,0 l/m 2,9 km/h (1 Bft) NW 309 0 min 0,000 mm 3,6 UV-I 424 W/m 17,6 C 27,2 C 12,9 km/h (3 Bft) 100,00 %
10.07.2017 15:26 27,2 C 26,7 C 57 % 1008,2 hPa 0,0 l/m 5,1 km/h (1 Bft) NW 319 0 min 0,000 mm 3,3 UV-I 387 W/m 17,9 C 27,2 C 12,9 km/h (3 Bft) 95,74 %
10.07.2017 15:28 27,1 C 26,7 C 56 % 1008,2 hPa 0,0 l/m 3,5 km/h (1 Bft) W 265 0 min 0,000 mm 3,1 UV-I 378 W/m 17,5 C 27,1 C 12,9 km/h (3 Bft) 100,00 %
10.07.2017 15:30 27,2 C 26,7 C 59 % 1008,1 hPa 0,0 l/m 0,9 km/h (0 Bft) W 265 0 min 0,000 mm 3,4 UV-I 409 W/m 18,5 C 27,2 C 4,8 km/h (1 Bft) 97,44 %
10.07.2017 15:32 27,3 C 26,7 C 56 % 1008,2 hPa 0,0 l/m 5,9 km/h (2 Bft) W-SW 253 2 min 0,000 mm 4,2 UV-I 871 W/m 17,7 C 27,3 C 14,5 km/h (3 Bft) 100,00 %
10.07.2017 15:34 27,3 C 26,7 C 56 % 1008,2 hPa 0,0 l/m 7,3 km/h (2 Bft) W-NW 290 2 min 0,000 mm 4,1 UV-I 473 W/m 17,7 C 27,1 C 14,5 km/h (3 Bft) 97,87 %
10.07.2017 15:36 27,3 C 26,7 C 53 % 1008,1 hPa 0,0 l/m 9,2 km/h (2 Bft) W-SW 242 2 min 0,000 mm 3,6 UV-I 441 W/m 16,9 C 26,8 C 19,3 km/h (3 Bft) 100,00 %
10.07.2017 15:38 27,4 C 26,7 C 52 % 1008,2 hPa 0,0 l/m 9,9 km/h (2 Bft) S-SW 211 2 min 0,000 mm 4,4 UV-I 631 W/m 16,7 C 26,8 C 16,1 km/h (3 Bft) 98,00 %
10.07.2017 15:40 27,5 C 26,7 C 52 % 1008,1 hPa 0,0 l/m 7,3 km/h (2 Bft) W-SW 242 2 min 0,000 mm 3,4 UV-I 728 W/m 16,7 C 27,3 C 12,9 km/h (3 Bft) 95,74 %
10.07.2017 15:42 27,4 C 26,7 C 51 % 1008,1 hPa 0,0 l/m 6,7 km/h (2 Bft) W 281 0 min 0,000 mm 2,9 UV-I 336 W/m 16,3 C 27,4 C 14,5 km/h (3 Bft) 97,87 %
10.07.2017 15:44 27,4 C 26,7 C 53 % 1008,1 hPa 0,0 l/m 6,1 km/h (2 Bft) SW 224 2 min 0,000 mm 3,2 UV-I 440 W/m 17,0 C 27,4 C 11,3 km/h (2 Bft) 97,87 %
10.07.2017 15:46 27,5 C 26,7 C 54 % 1008,1 hPa 0,0 l/m 8,9 km/h (2 Bft) SW 232 2 min 0,000 mm 3,3 UV-I 479 W/m 17,3 C 27,1 C 12,9 km/h (3 Bft) 100,00 %
10.07.2017 15:48 27,6 C 26,7 C 53 % 1008,2 hPa 0,0 l/m 9,8 km/h (2 Bft) W-SW 251 2 min 0,000 mm 3,1 UV-I 448 W/m 17,1 C 27,1 C 17,7 km/h (3 Bft) 97,87 %
10.07.2017 15:50 27,7 C 26,7 C 54 % 1008,1 hPa 0,0 l/m 11,5 km/h (2 Bft) W-SW 240 0 min 0,000 mm 2,9 UV-I 369 W/m 17,5 C 27,0 C 16,1 km/h (3 Bft) 100,00 %
10.07.2017 15:52 27,6 C 26,7 C 53 % 1008,1 hPa 0,0 l/m 8,4 km/h (2 Bft) W-NW 294 0 min 0,000 mm 2,9 UV-I 336 W/m 17,1 C 27,3 C 14,5 km/h (3 Bft) 97,87 %
10.07.2017 15:54 27,4 C 26,7 C 54 % 1008,0 hPa 0,0 l/m 1,6 km/h (1 Bft) NW 305 0 min 0,000 mm 2,7 UV-I 289 W/m 17,3 C 27,4 C 4,8 km/h (1 Bft) 97,37 %
10.07.2017 15:56 27,3 C 26,7 C 54 % 1008,1 hPa 0,0 l/m 6,9 km/h (2 Bft) W-SW 255 0 min 0,000 mm 2,6 UV-I 280 W/m 17,2 C 27,2 C 12,9 km/h (3 Bft) 93,62 %
10.07.2017 15:58 27,2 C 26,7 C 54 % 1008,0 hPa 0,0 l/m 9,0 km/h (2 Bft) S 189 0 min 0,000 mm 2,5 UV-I 266 W/m 17,1 C 26,7 C 14,5 km/h (3 Bft) 95,74 %
10.07.2017 16:00 27,1 C 26,7 C 54 % 1008,0 hPa 0,0 l/m 9,2 km/h (2 Bft) W 260 0 min 0,000 mm 2,5 UV-I 254 W/m 17,0 C 26,6 C 14,5 km/h (3 Bft) 97,87 %
10.07.2017 16:02 27,1 C 26,7 C 54 % 1008,0 hPa 0,0 l/m 11,4 km/h (2 Bft) W 261 0 min 0,355 mm 2,5 UV-I 277 W/m 17,0 C 26,3 C 16,1 km/h (3 Bft) 96,00 %
10.07.2017 16:04 27,1 C 26,7 C 53 % 1007,9 hPa 0,0 l/m 8,3 km/h (2 Bft) SW 236 0 min 0,000 mm 2,7 UV-I 317 W/m 16,7 C 26,8 C 12,9 km/h (3 Bft) 95,74 %
10.07.2017 16:06 27,1 C 26,7 C 53 % 1008,0 hPa 0,0 l/m 7,0 km/h (2 Bft) SW 235 2 min 0,000 mm 3,1 UV-I 420 W/m 16,7 C 27,0 C 14,5 km/h (3 Bft) 97,87 %
10.07.2017 16:08 27,3 C 26,7 C 53 % 1008,0 hPa 0,0 l/m 9,6 km/h (2 Bft) W-SW 248 2 min 0,000 mm 3,4 UV-I 446 W/m 16,9 C 26,8 C 14,5 km/h (3 Bft) 95,83 %
10.07.2017 16:10 27,4 C 26,7 C 52 % 1008,0 hPa 0,0 l/m 7,5 km/h (2 Bft) W-SW 242 2 min 0,000 mm 3,6 UV-I 582 W/m 16,7 C 27,2 C 12,9 km/h (3 Bft) 97,87 %
10.07.2017 16:12 27,7 C 26,7 C 50 % 1008,0 hPa 0,0 l/m 10,8 km/h (2 Bft) W-SW 240 2 min 0,000 mm 3,5 UV-I 674 W/m 16,3 C 27,0 C 19,3 km/h (3 Bft) 97,87 %
10.07.2017 16:14 27,9 C 26,7 C 52 % 1007,8 hPa 0,0 l/m 9,5 km/h (2 Bft) SW 227 2 min 0,000 mm 3,5 UV-I 665 W/m 17,1 C 27,4 C 17,7 km/h (3 Bft) 95,74 %
10.07.2017 16:16 28,1 C 26,7 C 50 % 1007,8 hPa 0,0 l/m 9,2 km/h (2 Bft) SW 222 2 min 0,000 mm 3,4 UV-I 653 W/m 16,7 C 27,7 C 14,5 km/h (3 Bft) 97,87 %
10.07.2017 16:18 28,3 C 26,7 C 50 % 1007,8 hPa 0,0 l/m 7,3 km/h (2 Bft) S-SW 207 2 min 0,000 mm 3,4 UV-I 645 W/m 16,9 C 28,2 C 12,9 km/h (3 Bft) 92,00 %
10.07.2017 16:20 28,4 C 26,7 C 50 % 1007,8 hPa 0,0 l/m 6,1 km/h (2 Bft) W 259 2 min 0,000 mm 3,4 UV-I 646 W/m 17,0 C 28,4 C 11,3 km/h (2 Bft) 91,49 %
10.07.2017 16:22 28,6 C 26,7 C 49 % 1007,7 hPa 0,0 l/m 6,5 km/h (2 Bft) W-NW 284 2 min 0,000 mm 3,3 UV-I 644 W/m 16,8 C 28,6 C 14,5 km/h (3 Bft) 91,49 %
10.07.2017 16:24 28,6 C 26,7 C 50 % 1007,7 hPa 0,0 l/m 5,7 km/h (1 Bft) W-SW 252 2 min 0,000 mm 3,2 UV-I 639 W/m 17,1 C 28,6 C 12,9 km/h (3 Bft) 93,62 %
10.07.2017 16:26 28,7 C 26,7 C 49 % 1007,7 hPa 0,0 l/m 6,7 km/h (2 Bft) NW 314 2 min 0,000 mm 3,2 UV-I 632 W/m 16,9 C 28,7 C 16,1 km/h (3 Bft) 87,23 %
10.07.2017 16:28 28,8 C 26,7 C 49 % 1007,7 hPa 0,0 l/m 7,9 km/h (2 Bft) W 278 2 min 0,000 mm 3,1 UV-I 621 W/m 17,0 C 28,6 C 16,1 km/h (3 Bft) 93,62 %
10.07.2017 16:30 28,7 C 26,7 C 48 % 1007,7 hPa 0,0 l/m 5,7 km/h (1 Bft) N-NW 330 2 min 0,000 mm 3,1 UV-I 534 W/m 16,6 C 28,7 C 16,1 km/h (3 Bft) 100,00 %
10.07.2017 16:32 28,5 C 26,7 C 50 % 1007,7 hPa 0,0 l/m 4,4 km/h (1 Bft) W-NW 285 2 min 0,000 mm 3,0 UV-I 592 W/m 17,0 C 28,5 C 8,0 km/h (2 Bft) 93,62 %
10.07.2017 16:34 28,6 C 26,7 C 50 % 1007,6 hPa 0,0 l/m 8,3 km/h (2 Bft) W-NW 286 2 min 0,000 mm 3,0 UV-I 620 W/m 17,1 C 28,3 C 17,7 km/h (3 Bft) 95,74 %
10.07.2017 16:36 28,7 C 26,7 C 49 % 1007,7 hPa 0,0 l/m 13,5 km/h (3 Bft) W 267 2 min 0,000 mm 3,0 UV-I 619 W/m 16,9 C 27,9 C 20,9 km/h (4 Bft) 95,74 %
10.07.2017 16:38 28,6 C 26,7 C 50 % 1007,7 hPa 0,0 l/m 13,5 km/h (3 Bft) W-SW 240 2 min 0,000 mm 2,9 UV-I 617 W/m 17,1 C 27,8 C 17,7 km/h (3 Bft) 98,00 %
10.07.2017 16:40 28,5 C 26,7 C 49 % 1007,7 hPa 0,0 l/m 10,9 km/h (2 Bft) W-SW 238 2 min 0,000 mm 2,5 UV-I 612 W/m 16,7 C 27,9 C 20,9 km/h (4 Bft) 95,74 %
10.07.2017 16:42 28,4 C 26,7 C 49 % 1007,6 hPa 0,0 l/m 10,4 km/h (2 Bft) SW 229 2 min 0,000 mm 2,6 UV-I 591 W/m 16,6 C 27,9 C 17,7 km/h (3 Bft) 96,00 %
10.07.2017 16:44 28,4 C 26,7 C 50 % 1007,5 hPa 0,0 l/m 12,6 km/h (3 Bft) S-SW 213 2 min 0,000 mm 2,5 UV-I 607 W/m 17,0 C 27,6 C 19,3 km/h (3 Bft) 97,44 %
10.07.2017 16:46 28,4 C 26,7 C 50 % 1007,5 hPa 0,0 l/m 9,7 km/h (2 Bft) SW 229 2 min 0,000 mm 2,7 UV-I 599 W/m 17,0 C 28,0 C 16,1 km/h (3 Bft) 95,74 %
10.07.2017 16:48 28,5 C 26,7 C 49 % 1007,6 hPa 0,0 l/m 5,2 km/h (1 Bft) W-NW 284 2 min 0,000 mm 2,7 UV-I 588 W/m 16,7 C 28,5 C 9,7 km/h (2 Bft) 97,87 %
10.07.2017 16:50 28,4 C 26,7 C 50 % 1007,6 hPa 0,0 l/m 6,5 km/h (2 Bft) W-SW 250 2 min 0,000 mm 2,2 UV-I 589 W/m 17,0 C 28,4 C 12,9 km/h (3 Bft) 96,00 %
10.07.2017 16:52 28,3 C 26,7 C 50 % 1007,6 hPa 0,0 l/m 7,9 km/h (2 Bft) W-NW 283 2 min 0,000 mm 2,5 UV-I 584 W/m 16,9 C 28,1 C 14,5 km/h (3 Bft) 95,74 %
10.07.2017 16:54 28,2 C 26,7 C 51 % 1007,5 hPa 0,0 l/m 2,7 km/h (1 Bft) W-NW 290 2 min 0,000 mm 2,5 UV-I 595 W/m 17,1 C 28,2 C 4,8 km/h (1 Bft) 97,87 %
10.07.2017 16:56 28,4 C 26,7 C 52 % 1007,6 hPa 0,0 l/m 9,7 km/h (2 Bft) W 270 2 min 0,000 mm 2,5 UV-I 614 W/m 17,6 C 28,0 C 22,5 km/h (4 Bft) 95,74 %
10.07.2017 16:58 28,6 C 26,7 C 50 % 1007,6 hPa 0,0 l/m 10,6 km/h (2 Bft) SW 223 2 min 0,000 mm 2,4 UV-I 625 W/m 17,1 C 28,1 C 19,3 km/h (3 Bft) 94,00 %
10.07.2017 17:00 28,5 C 26,7 C 50 % 1007,5 hPa 0,0 l/m 8,5 km/h (2 Bft) W-NW 283 2 min 0,000 mm 2,1 UV-I 356 W/m 17,0 C 28,2 C 17,7 km/h (3 Bft) 95,74 %
10.07.2017 17:02 28,5 C 26,7 C 52 % 1007,5 hPa 0,0 l/m 5,3 km/h (1 Bft) W-SW 248 2 min 0,432 mm 2,3 UV-I 603 W/m 17,7 C 28,5 C 9,7 km/h (2 Bft) 91,49 %
10.07.2017 17:04 28,5 C 26,7 C 51 % 1007,4 hPa 0,0 l/m 4,2 km/h (1 Bft) W-SW 257 2 min 0,000 mm 2,3 UV-I 605 W/m 17,4 C 28,5 C 6,4 km/h (2 Bft) 97,56 %
10.07.2017 17:06 28,7 C 26,7 C 50 % 1007,4 hPa 0,0 l/m 6,2 km/h (2 Bft) W 263 2 min 0,000 mm 2,3 UV-I 596 W/m 17,2 C 28,7 C 12,9 km/h (3 Bft) 95,74 %
10.07.2017 17:08 28,9 C 26,7 C 50 % 1007,3 hPa 0,0 l/m 5,0 km/h (1 Bft) W-SW 247 2 min 0,000 mm 2,3 UV-I 578 W/m 17,4 C 28,9 C 12,9 km/h (3 Bft) 97,87 %
10.07.2017 17:10 29,1 C 26,7 C 49 % 1007,5 hPa 0,0 l/m 13,1 km/h (3 Bft) W-SW 242 2 min 0,000 mm 2,2 UV-I 562 W/m 17,3 C 28,4 C 17,7 km/h (3 Bft) 93,62 %
10.07.2017 17:12 29,2 C 26,7 C 49 % 1007,2 hPa 0,0 l/m 10,6 km/h (2 Bft) W-NW 282 2 min 0,000 mm 2,2 UV-I 549 W/m 17,4 C 28,7 C 16,1 km/h (3 Bft) 98,00 %
10.07.2017 17:14 29,2 C 26,7 C 48 % 1007,2 hPa 0,0 l/m 9,5 km/h (2 Bft) S 191 2 min 0,000 mm 2,2 UV-I 533 W/m 17,0 C 28,9 C 12,9 km/h (3 Bft) 93,62 %
10.07.2017 17:16 29,1 C 26,7 C 48 % 1007,2 hPa 0,0 l/m 8,7 km/h (2 Bft) W-SW 243 2 min 0,000 mm 2,1 UV-I 528 W/m 16,9 C 28,8 C 16,1 km/h (3 Bft) 95,74 %
10.07.2017 17:18 29,2 C 26,7 C 49 % 1007,2 hPa 0,0 l/m 8,6 km/h (2 Bft) W 262 2 min 0,000 mm 2,1 UV-I 524 W/m 17,4 C 28,9 C 14,5 km/h (3 Bft) 98,00 %
10.07.2017 17:20 29,3 C 26,7 C 49 % 1007,2 hPa 0,0 l/m 9,1 km/h (2 Bft) W 275 2 min 0,000 mm 2,0 UV-I 506 W/m 17,5 C 29,0 C 16,1 km/h (3 Bft) 100,00 %
10.07.2017 17:22 29,3 C 26,7 C 49 % 1007,2 hPa 0,0 l/m 9,3 km/h (2 Bft) S-SW 209 2 min 0,000 mm 1,9 UV-I 497 W/m 17,5 C 29,0 C 16,1 km/h (3 Bft) 100,00 %
10.07.2017 17:24 29,3 C 26,7 C 49 % 1007,2 hPa 0,0 l/m 7,1 km/h (2 Bft) W-SW 256 2 min 0,000 mm 1,9 UV-I 486 W/m 17,5 C 29,2 C 12,9 km/h (3 Bft) 97,87 %
10.07.2017 17:26 29,2 C 26,7 C 48 % 1007,3 hPa 0,0 l/m 9,9 km/h (2 Bft) SW 227 2 min 0,000 mm 1,8 UV-I 487 W/m 17,0 C 28,8 C 17,7 km/h (3 Bft) 100,00 %
10.07.2017 17:28 29,1 C 26,7 C 47 % 1007,2 hPa 0,0 l/m 12,1 km/h (2 Bft) SW 216 2 min 0,000 mm 1,8 UV-I 475 W/m 16,6 C 28,5 C 17,7 km/h (3 Bft) 96,00 %
10.07.2017 17:30 28,9 C 26,7 C 49 % 1007,2 hPa 0,0 l/m 5,5 km/h (1 Bft) W-SW 249 2 min 0,000 mm 1,8 UV-I 483 W/m 17,1 C 28,9 C 8,0 km/h (2 Bft) 100,00 %
10.07.2017 17:32 28,9 C 26,7 C 49 % 1007,2 hPa 0,0 l/m 7,5 km/h (2 Bft) W-SW 251 2 min 0,000 mm 1,7 UV-I 482 W/m 17,1 C 28,8 C 12,9 km/h (3 Bft) 100,00 %
10.07.2017 17:34 28,9 C 26,7 C 49 % 1007,2 hPa 0,0 l/m 7,7 km/h (2 Bft) W-NW 283 2 min 0,000 mm 1,7 UV-I 474 W/m 17,1 C 28,7 C 12,9 km/h (3 Bft) 97,87 %
10.07.2017 17:36 28,9 C 26,7 C 50 % 1007,1 hPa 0,0 l/m 5,6 km/h (1 Bft) SW 232 2 min 0,000 mm 1,6 UV-I 465 W/m 17,4 C 28,9 C 11,3 km/h (2 Bft) 95,74 %
10.07.2017 17:38 28,9 C 26,7 C 49 % 1007,1 hPa 0,0 l/m 5,3 km/h (1 Bft) W-SW 243 2 min 0,000 mm 1,6 UV-I 453 W/m 17,1 C 28,9 C 9,7 km/h (2 Bft) 100,00 %
10.07.2017 17:40 28,9 C 26,7 C 49 % 1007,1 hPa 0,0 l/m 6,1 km/h (2 Bft) SW 230 2 min 0,000 mm 1,5 UV-I 455 W/m 17,1 C 28,9 C 11,3 km/h (2 Bft) 98,00 %
10.07.2017 17:42 28,9 C 26,7 C 50 % 1007,1 hPa 0,0 l/m 4,0 km/h (1 Bft) W-SW 255 2 min 0,000 mm 1,5 UV-I 438 W/m 17,4 C 28,9 C 8,0 km/h (2 Bft) 95,74 %
10.07.2017 17:44 28,9 C 26,7 C 49 % 1007,1 hPa 0,0 l/m 4,4 km/h (1 Bft) NW 311 2 min 0,000 mm 1,4 UV-I 388 W/m 17,1 C 28,9 C 9,7 km/h (2 Bft) 100,00 %
10.07.2017 17:46 28,7 C 26,7 C 50 % 1007,1 hPa 0,0 l/m 4,3 km/h (1 Bft) W-SW 246 0 min 0,000 mm 1,2 UV-I 178 W/m 17,2 C 28,7 C 8,0 km/h (2 Bft) 98,00 %
10.07.2017 17:48 28,4 C 26,7 C 50 % 1007,1 hPa 0,0 l/m 7,9 km/h (2 Bft) N-NW 336 0 min 0,000 mm 1,3 UV-I 144 W/m 17,0 C 28,2 C 17,7 km/h (3 Bft) 98,00 %
10.07.2017 17:50 28,4 C 26,7 C 51 % 1007,1 hPa 0,0 l/m 5,6 km/h (1 Bft) W 261 2 min 0,000 mm 1,3 UV-I 429 W/m 17,3 C 28,4 C 14,5 km/h (3 Bft) 95,00 %
10.07.2017 17:52 28,6 C 26,7 C 50 % 1007,1 hPa 0,0 l/m 8,4 km/h (2 Bft) W-SW 242 2 min 0,000 mm 1,3 UV-I 421 W/m 17,1 C 28,3 C 20,9 km/h (4 Bft) 93,62 %
10.07.2017 17:54 28,5 C 26,7 C 51 % 1007,1 hPa 0,0 l/m 8,0 km/h (2 Bft) W-SW 252 2 min 0,000 mm 1,2 UV-I 301 W/m 17,4 C 28,3 C 19,3 km/h (3 Bft) 94,00 %
10.07.2017 17:56 28,3 C 26,7 C 51 % 1007,1 hPa 0,0 l/m 9,4 km/h (2 Bft) W-SW 245 0 min 0,000 mm 1,1 UV-I 186 W/m 17,2 C 27,9 C 17,7 km/h (3 Bft) 95,74 %
10.07.2017 17:58 28,2 C 26,7 C 51 % 1007,1 hPa 0,0 l/m 5,3 km/h (1 Bft) W 272 2 min 0,000 mm 1,2 UV-I 286 W/m 17,1 C 28,2 C 9,7 km/h (2 Bft) 95,74 %
10.07.2017 18:00 28,2 C 26,7 C 52 % 1007,1 hPa 0,0 l/m 7,2 km/h (2 Bft) W-SW 241 2 min 0,356 mm 1,2 UV-I 427 W/m 17,4 C 28,1 C 12,9 km/h (3 Bft) 93,62 %
10.07.2017 18:02 28,3 C 26,7 C 51 % 1007,1 hPa 0,0 l/m 9,6 km/h (2 Bft) SW 224 2 min 0,000 mm 1,2 UV-I 423 W/m 17,2 C 27,9 C 14,5 km/h (3 Bft) 95,74 %
10.07.2017 18:04 28,4 C 26,7 C 51 % 1007,1 hPa 0,0 l/m 7,0 km/h (2 Bft) NW 313 2 min 0,000 mm 1,1 UV-I 425 W/m 17,3 C 28,3 C 14,5 km/h (3 Bft) 95,83 %
10.07.2017 18:06 28,5 C 26,7 C 51 % 1007,1 hPa 0,0 l/m 5,0 km/h (1 Bft) NW 309 2 min 0,000 mm 1,0 UV-I 414 W/m 17,4 C 28,5 C 9,7 km/h (2 Bft) 93,62 %
10.07.2017 18:08 28,5 C 26,7 C 51 % 1007,0 hPa 0,0 l/m 7,2 km/h (2 Bft) W-NW 302 2 min 0,000 mm 0,9 UV-I 415 W/m 17,4 C 28,4 C 12,9 km/h (3 Bft) 98,00 %
10.07.2017 18:10 28,6 C 26,7 C 51 % 1007,1 hPa 0,0 l/m 8,0 km/h (2 Bft) SW 225 2 min 0,000 mm 1,0 UV-I 311 W/m 17,4 C 28,4 C 14,5 km/h (3 Bft) 95,74 %
10.07.2017 18:12 28,6 C 26,7 C 51 % 1007,0 hPa 0,0 l/m 8,5 km/h (2 Bft) W 267 2 min 0,000 mm 1,0 UV-I 408 W/m 17,4 C 28,3 C 14,5 km/h (3 Bft) 97,37 %
10.07.2017 18:14 28,7 C 26,7 C 52 % 1007,1 hPa 0,0 l/m 5,3 km/h (1 Bft) NW 305 2 min 0,000 mm 0,9 UV-I 395 W/m 17,8 C 28,7 C 17,7 km/h (3 Bft) 93,62 %
10.07.2017 18:16 28,8 C 26,7 C 51 % 1007,1 hPa 0,0 l/m 6,0 km/h (2 Bft) SW 232 2 min 0,000 mm 0,9 UV-I 384 W/m 17,6 C 28,8 C 12,9 km/h (3 Bft) 97,87 %
10.07.2017 18:18 28,9 C 26,7 C 51 % 1007,1 hPa 0,0 l/m 13,0 km/h (3 Bft) W-SW 247 2 min 0,000 mm 0,9 UV-I 375 W/m 17,7 C 28,2 C 17,7 km/h (3 Bft) 95,74 %
10.07.2017 18:20 28,8 C 26,7 C 50 % 1007,1 hPa 0,0 l/m 12,1 km/h (2 Bft) W 270 2 min 0,000 mm 0,9 UV-I 308 W/m 17,3 C 28,2 C 19,3 km/h (3 Bft) 95,74 %
10.07.2017 18:22 28,7 C 26,7 C 50 % 1007,1 hPa 0,0 l/m 8,5 km/h (2 Bft) SW 217 2 min 0,000 mm 0,8 UV-I 362 W/m 17,2 C 28,4 C 12,9 km/h (3 Bft) 95,74 %
10.07.2017 18:24 28,6 C 26,7 C 50 % 1007,1 hPa 0,0 l/m 4,2 km/h (1 Bft) W-SW 258 2 min 0,000 mm 0,8 UV-I 328 W/m 17,1 C 28,6 C 11,3 km/h (2 Bft) 100,00 %
10.07.2017 18:26 28,6 C 26,7 C 50 % 1007,0 hPa 0,0 l/m 3,7 km/h (1 Bft) SW 234 2 min 0,000 mm 0,8 UV-I 317 W/m 17,1 C 28,6 C 11,3 km/h (2 Bft) 95,74 %
10.07.2017 18:28 28,4 C 26,7 C 51 % 1007,1 hPa 0,0 l/m 2,9 km/h (1 Bft) W 265 2 min 0,000 mm 0,7 UV-I 219 W/m 17,3 C 28,4 C 4,8 km/h (1 Bft) 100,00 %
10.07.2017 18:30 28,3 C 26,7 C 50 % 1007,1 hPa 0,0 l/m 5,1 km/h (1 Bft) W 259 0 min 0,000 mm 0,7 UV-I 169 W/m 16,9 C 28,3 C 9,7 km/h (2 Bft) 95,74 %
10.07.2017 18:32 28,2 C 26,7 C 51 % 1007,0 hPa 0,0 l/m 3,3 km/h (1 Bft) W 259 0 min 0,000 mm 0,6 UV-I 180 W/m 17,1 C 28,2 C 6,4 km/h (2 Bft) 98,00 %
10.07.2017 18:34 28,1 C 26,7 C 52 % 1007,0 hPa 0,0 l/m 5,5 km/h (1 Bft) W-SW 252 0 min 0,000 mm 0,6 UV-I 179 W/m 17,3 C 28,1 C 11,3 km/h (2 Bft) 100,00 %
10.07.2017 18:36 28,1 C 26,7 C 52 % 1007,0 hPa 0,0 l/m 8,8 km/h (2 Bft) W-SW 242 0 min 0,000 mm 0,6 UV-I 181 W/m 17,3 C 27,7 C 12,9 km/h (3 Bft) 97,87 %
10.07.2017 18:38 28,0 C 26,7 C 51 % 1007,0 hPa 0,0 l/m 6,7 km/h (2 Bft) W-NW 294 0 min 0,000 mm 0,6 UV-I 142 W/m 16,9 C 28,0 C 12,9 km/h (3 Bft) 100,00 %
10.07.2017 18:40 27,9 C 26,7 C 51 % 1007,0 hPa 0,0 l/m 5,1 km/h (1 Bft) W-NW 288 0 min 0,000 mm 0,6 UV-I 118 W/m 16,8 C 27,9 C 8,0 km/h (2 Bft) 97,87 %
10.07.2017 18:42 27,8 C 26,7 C 51 % 1006,9 hPa 0,0 l/m 4,4 km/h (1 Bft) N-NW 336 0 min 0,000 mm 0,6 UV-I 103 W/m 16,7 C 27,8 C 6,4 km/h (2 Bft) 97,92 %
10.07.2017 18:44 27,7 C 26,7 C 51 % 1007,0 hPa 0,0 l/m 2,1 km/h (1 Bft) W 273 0 min 0,000 mm 0,5 UV-I 95 W/m 16,6 C 27,7 C 4,8 km/h (1 Bft) 100,00 %
10.07.2017 18:46 27,6 C 26,7 C 52 % 1007,0 hPa 0,0 l/m 1,8 km/h (1 Bft) W 280 0 min 0,000 mm 0,5 UV-I 96 W/m 16,8 C 27,6 C 3,2 km/h (1 Bft) 97,87 %
10.07.2017 18:48 27,6 C 26,7 C 52 % 1007,0 hPa 0,0 l/m 3,7 km/h (1 Bft) W 267 0 min 0,000 mm 0,5 UV-I 101 W/m 16,8 C 27,6 C 8,0 km/h (2 Bft) 95,74 %
10.07.2017 18:50 27,6 C 26,7 C 52 % 1007,0 hPa 0,0 l/m 3,9 km/h (1 Bft) W-SW 250 0 min 0,000 mm 0,5 UV-I 149 W/m 16,8 C 27,6 C 6,4 km/h (2 Bft) 95,74 %
10.07.2017 18:52 27,5 C 26,7 C 53 % 1006,9 hPa 0,0 l/m 5,1 km/h (1 Bft) W 262 0 min 0,000 mm 0,5 UV-I 137 W/m 17,0 C 27,5 C 9,7 km/h (2 Bft) 100,00 %
10.07.2017 18:54 27,6 C 26,7 C 52 % 1006,9 hPa 0,0 l/m 6,3 km/h (2 Bft) W 278 0 min 0,000 mm 0,5 UV-I 121 W/m 16,8 C 27,6 C 12,9 km/h (3 Bft) 95,74 %
10.07.2017 18:56 27,6 C 26,7 C 52 % 1006,9 hPa 0,0 l/m 6,8 km/h (2 Bft) W-SW 250 0 min 0,000 mm 0,2 UV-I 129 W/m 16,8 C 27,5 C 11,3 km/h (2 Bft) 95,74 %
10.07.2017 18:58 27,5 C 26,7 C 53 % 1006,9 hPa 0,0 l/m 3,1 km/h (1 Bft) W 278 0 min 0,000 mm 0,0 UV-I 148 W/m 17,0 C 27,5 C 6,4 km/h (2 Bft) 100,00 %
10.07.2017 19:00 27,4 C 26,7 C 54 % 1006,9 hPa 0,0 l/m 2,0 km/h (1 Bft) W-NW 298 2 min 0,000 mm 0,0 UV-I 167 W/m 17,3 C 27,4 C 4,8 km/h (1 Bft) 100,00 %
10.07.2017 19:02 27,4 C 26,7 C 54 % 1006,9 hPa 0,0 l/m 1,4 km/h (1 Bft) W-NW 298 2 min 0,203 mm 0,0 UV-I 211 W/m 17,3 C 27,4 C 4,8 km/h (1 Bft) 98,00 %
10.07.2017 19:04 27,5 C 26,7 C 55 % 1006,9 hPa 0,0 l/m 0,9 km/h (0 Bft) W-NW 298 2 min 0,000 mm 0,0 UV-I 162 W/m 17,6 C 27,5 C 4,8 km/h (1 Bft) 97,87 %
10.07.2017 19:06 27,5 C 26,7 C 53 % 1006,9 hPa 0,0 l/m 2,2 km/h (1 Bft) W-NW 298 2 min 0,000 mm 0,0 UV-I 157 W/m 17,0 C 27,5 C 3,2 km/h (1 Bft) 100,00 %
10.07.2017 19:08 27,6 C 26,7 C 53 % 1006,9 hPa 0,0 l/m 0,4 km/h (0 Bft) W-NW 298 0 min 0,000 mm 0,0 UV-I 147 W/m 17,1 C 27,6 C 1,6 km/h (1 Bft) 100,00 %
10.07.2017 19:10 27,6 C 26,7 C 53 % 1006,9 hPa 0,0 l/m 0,9 km/h (0 Bft) W-NW 298 0 min 0,000 mm 0,0 UV-I 132 W/m 17,1 C 27,6 C 1,6 km/h (1 Bft) 95,16 %
10.07.2017 19:12 27,6 C 26,7 C 53 % 1006,9 hPa 0,0 l/m 3,3 km/h (1 Bft) W 267 0 min 0,000 mm 0,0 UV-I 126 W/m 17,1 C 27,6 C 6,4 km/h (2 Bft) 97,87 %
10.07.2017 19:14 27,6 C 26,7 C 52 % 1006,9 hPa 0,0 l/m 3,4 km/h (1 Bft) W 267 0 min 0,000 mm 0,0 UV-I 114 W/m 16,8 C 27,6 C 6,4 km/h (2 Bft) 97,87 %
10.07.2017 19:16 27,5 C 26,7 C 53 % 1006,9 hPa 0,0 l/m 1,1 km/h (1 Bft) W-SW 257 0 min 0,000 mm 0,0 UV-I 123 W/m 17,0 C 27,5 C 3,2 km/h (1 Bft) 100,00 %
10.07.2017 19:18 27,4 C 26,7 C 52 % 1006,8 hPa 0,0 l/m 4,2 km/h (1 Bft) W-SW 247 2 min 0,000 mm 0,0 UV-I 158 W/m 16,7 C 27,4 C 6,4 km/h (2 Bft) 95,74 %
10.07.2017 19:20 27,6 C 26,7 C 53 % 1006,9 hPa 0,0 l/m 0,7 km/h (0 Bft) W-SW 247 2 min 0,000 mm 0,0 UV-I 183 W/m 17,1 C 27,6 C 1,6 km/h (1 Bft) 95,74 %
10.07.2017 19:22 27,6 C 26,7 C 52 % 1006,8 hPa 0,0 l/m 1,4 km/h (1 Bft) W-SW 248 2 min 0,000 mm 0,0 UV-I 175 W/m 16,8 C 27,6 C 3,2 km/h (1 Bft) 95,83 %
10.07.2017 19:24 27,7 C 26,7 C 54 % 1006,8 hPa 0,0 l/m 0,7 km/h (0 Bft) W-NW 294 2 min 0,000 mm 0,0 UV-I 163 W/m 17,5 C 27,7 C 4,8 km/h (1 Bft) 93,62 %
10.07.2017 19:26 27,8 C 26,7 C 52 % 1006,8 hPa 0,0 l/m 2,1 km/h (1 Bft) N-NW 348 0 min 0,000 mm 0,0 UV-I 119 W/m 17,0 C 27,8 C 4,8 km/h (1 Bft) 98,00 %
10.07.2017 19:28 27,7 C 26,7 C 53 % 1006,7 hPa 0,0 l/m 2,7 km/h (1 Bft) W-NW 282 0 min 0,000 mm 0,0 UV-I 84 W/m 17,2 C 27,7 C 6,4 km/h (2 Bft) 97,87 %
10.07.2017 19:30 27,6 C 26,7 C 53 % 1006,7 hPa 0,0 l/m 0,9 km/h (0 Bft) NW 311 0 min 0,000 mm 0,0 UV-I 67 W/m 17,1 C 27,6 C 3,2 km/h (1 Bft) 97,87 %
10.07.2017 19:32 27,5 C 26,7 C 52 % 1006,8 hPa 0,0 l/m 1,8 km/h (1 Bft) N-NW 333 0 min 0,000 mm 0,0 UV-I 68 W/m 16,7 C 27,5 C 4,8 km/h (1 Bft) 97,87 %
10.07.2017 19:34 27,3 C 26,7 C 53 % 1006,8 hPa 0,0 l/m 0,0 km/h (0 Bft) N-NW 333 0 min 0,000 mm 0,0 UV-I 69 W/m 16,9 C 27,3 C 1,6 km/h (1 Bft) 95,74 %
10.07.2017 19:36 27,3 C 26,7 C 53 % 1006,9 hPa 0,0 l/m 1,0 km/h (0 Bft) W 271 0 min 0,000 mm 0,0 UV-I 70 W/m 16,9 C 27,3 C 4,8 km/h (1 Bft) 95,74 %
10.07.2017 19:38 27,2 C 26,7 C 53 % 1006,9 hPa 0,0 l/m 2,2 km/h (1 Bft) W 267 0 min 0,000 mm 0,0 UV-I 66 W/m 16,8 C 27,2 C 4,8 km/h (1 Bft) 95,74 %
10.07.2017 19:40 27,1 C 26,7 C 53 % 1006,9 hPa 0,0 l/m 3,1 km/h (1 Bft) W-SW 253 0 min 0,000 mm 0,0 UV-I 63 W/m 16,7 C 27,1 C 6,4 km/h (2 Bft) 97,14 %
10.07.2017 19:42 27,0 C 26,7 C 53 % 1006,9 hPa 0,0 l/m 5,1 km/h (1 Bft) W-SW 255 0 min 0,000 mm 0,0 UV-I 57 W/m 16,6 C 27,0 C 9,7 km/h (2 Bft) 94,00 %
10.07.2017 19:44 26,9 C 26,7 C 53 % 1006,9 hPa 0,0 l/m 3,8 km/h (1 Bft) W-SW 239 0 min 0,000 mm 0,0 UV-I 59 W/m 16,5 C 26,9 C 9,7 km/h (2 Bft) 97,87 %
10.07.2017 19:46 26,8 C 26,7 C 53 % 1006,9 hPa 0,0 l/m 3,7 km/h (1 Bft) W-NW 288 0 min 0,000 mm 0,0 UV-I 64 W/m 16,4 C 26,8 C 9,7 km/h (2 Bft) 89,36 %
10.07.2017 19:48 26,8 C 26,7 C 53 % 1007,0 hPa 0,0 l/m 3,8 km/h (1 Bft) NW 306 0 min 0,000 mm 0,0 UV-I 66 W/m 16,4 C 26,8 C 9,7 km/h (2 Bft) 94,00 %
10.07.2017 19:50 26,8 C 26,7 C 53 % 1007,0 hPa 0,0 l/m 1,4 km/h (1 Bft) NW 306 0 min 0,000 mm 0,0 UV-I 67 W/m 16,4 C 26,8 C 3,2 km/h (1 Bft) 93,62 %
10.07.2017 19:52 26,7 C 26,7 C 53 % 1007,0 hPa 0,0 l/m 2,0 km/h (1 Bft) NW 305 0 min 0,000 mm 0,0 UV-I 65 W/m 16,3 C 26,7 C 4,8 km/h (1 Bft) 91,67 %
10.07.2017 19:54 26,7 C 26,7 C 54 % 1007,0 hPa 0,0 l/m 2,5 km/h (1 Bft) NW 305 0 min 0,000 mm 0,0 UV-I 62 W/m 16,6 C 26,7 C 4,8 km/h (1 Bft) 91,49 %
10.07.2017 19:56 26,6 C 26,7 C 54 % 1007,0 hPa 0,0 l/m 4,2 km/h (1 Bft) W 275 0 min 0,000 mm 0,0 UV-I 55 W/m 16,5 C 26,6 C 9,7 km/h (2 Bft) 87,23 %
10.07.2017 19:58 26,6 C 26,7 C 54 % 1007,0 hPa 0,0 l/m 4,4 km/h (1 Bft) W 275 0 min 0,000 mm 0,0 UV-I 48 W/m 16,5 C 26,6 C 9,7 km/h (2 Bft) 93,62 %
10.07.2017 20:00 26,5 C 26,7 C 54 % 1007,0 hPa 0,0 l/m 2,8 km/h (1 Bft) W-NW 285 0 min 0,102 mm 0,0 UV-I 46 W/m 16,4 C 26,5 C 6,4 km/h (2 Bft) 93,62 %
10.07.2017 20:02 26,4 C 26,7 C 53 % 1007,0 hPa 0,0 l/m 3,0 km/h (1 Bft) W-NW 296 0 min 0,000 mm 0,0 UV-I 48 W/m 16,0 C 26,4 C 12,9 km/h (3 Bft) 89,58 %
10.07.2017 20:04 26,3 C 26,7 C 54 % 1006,9 hPa 0,0 l/m 1,3 km/h (1 Bft) N-NW 339 0 min 0,000 mm 0,0 UV-I 51 W/m 16,2 C 26,3 C 4,8 km/h (1 Bft) 93,75 %
10.07.2017 20:06 26,3 C 26,7 C 54 % 1006,9 hPa 0,0 l/m 0,7 km/h (0 Bft) N-NW 339 0 min 0,000 mm 0,0 UV-I 54 W/m 16,2 C 26,3 C 1,6 km/h (1 Bft) 91,49 %
10.07.2017 20:08 26,2 C 26,7 C 52 % 1006,9 hPa 0,0 l/m 2,7 km/h (1 Bft) W-NW 285 0 min 0,000 mm 0,0 UV-I 61 W/m 15,6 C 26,2 C 4,8 km/h (1 Bft) 91,49 %
10.07.2017 20:10 26,3 C 26,7 C 52 % 1006,8 hPa 0,0 l/m 3,1 km/h (1 Bft) W-SW 257 2 min 0,000 mm 0,0 UV-I 67 W/m 15,6 C 26,3 C 6,4 km/h (2 Bft) 93,62 %
10.07.2017 20:12 26,3 C 26,7 C 52 % 1006,9 hPa 0,0 l/m 3,5 km/h (1 Bft) W-NW 285 2 min 0,000 mm 0,0 UV-I 73 W/m 15,6 C 26,3 C 8,0 km/h (2 Bft) 95,74 %
10.07.2017 20:14 26,3 C 26,7 C 53 % 1006,8 hPa 0,0 l/m 4,7 km/h (1 Bft) W-SW 245 2 min 0,000 mm 0,0 UV-I 77 W/m 15,9 C 26,3 C 9,7 km/h (2 Bft) 94,74 %
10.07.2017 20:16 26,3 C 26,7 C 51 % 1006,8 hPa 0,0 l/m 4,2 km/h (1 Bft) W 272 2 min 0,000 mm 0,0 UV-I 79 W/m 15,3 C 26,3 C 6,4 km/h (2 Bft) 93,62 %
10.07.2017 20:18 26,3 C 26,7 C 53 % 1006,8 hPa 0,0 l/m 2,4 km/h (1 Bft) W 273 2 min 0,000 mm 0,0 UV-I 79 W/m 15,9 C 26,3 C 4,8 km/h (1 Bft) 94,34 %
10.07.2017 20:20 26,3 C 26,7 C 52 % 1006,8 hPa 0,0 l/m 2,6 km/h (1 Bft) W 272 2 min 0,000 mm 0,0 UV-I 75 W/m 15,6 C 26,3 C 4,8 km/h (1 Bft) 96,00 %
10.07.2017 20:22 26,3 C 26,7 C 52 % 1006,8 hPa 0,0 l/m 2,3 km/h (1 Bft) W 272 2 min 0,000 mm 0,0 UV-I 70 W/m 15,6 C 26,3 C 4,8 km/h (1 Bft) 94,74 %
10.07.2017 20:24 26,2 C 26,7 C 52 % 1006,8 hPa 0,0 l/m 2,9 km/h (1 Bft) W 272 2 min 0,000 mm 0,0 UV-I 65 W/m 15,6 C 26,2 C 4,8 km/h (1 Bft) 95,74 %
10.07.2017 20:26 26,2 C 26,7 C 53 % 1006,8 hPa 0,0 l/m 0,8 km/h (0 Bft) W 272 2 min 0,000 mm 0,0 UV-I 54 W/m 15,8 C 26,2 C 3,2 km/h (1 Bft) 94,00 %
10.07.2017 20:28 26,2 C 26,7 C 53 % 1006,8 hPa 0,0 l/m 1,2 km/h (1 Bft) W 272 2 min 0,000 mm 0,0 UV-I 44 W/m 15,8 C 26,2 C 3,2 km/h (1 Bft) 95,74 %
10.07.2017 20:30 26,2 C 26,7 C 51 % 1006,8 hPa 0,0 l/m 1,0 km/h (0 Bft) W 272 0 min 0,000 mm 0,0 UV-I 36 W/m 15,2 C 26,2 C 3,2 km/h (1 Bft) 95,74 %
10.07.2017 20:32 26,2 C 26,7 C 51 % 1006,8 hPa 0,0 l/m 0,9 km/h (0 Bft) W 272 0 min 0,000 mm 0,0 UV-I 25 W/m 15,2 C 26,2 C 1,6 km/h (1 Bft) 93,62 %
10.07.2017 20:34 26,2 C 26,7 C 51 % 1006,8 hPa 0,0 l/m 1,8 km/h (1 Bft) W 272 0 min 0,000 mm 0,0 UV-I 18 W/m 15,2 C 26,2 C 3,2 km/h (1 Bft) 97,87 %
10.07.2017 20:36 26,2 C 26,7 C 51 % 1006,7 hPa 0,0 l/m 0,5 km/h (0 Bft) W 272 0 min 0,000 mm 0,0 UV-I 14 W/m 15,2 C 26,2 C 1,6 km/h (1 Bft) 93,62 %
10.07.2017 20:38 26,2 C 26,7 C 52 % 1006,7 hPa 0,0 l/m 0,1 km/h (0 Bft) W 272 0 min 0,000 mm 0,0 UV-I 12 W/m 15,6 C 26,2 C 1,6 km/h (1 Bft) 93,62 %
10.07.2017 20:40 26,2 C 26,7 C 52 % 1006,7 hPa 0,0 l/m 3,6 km/h (1 Bft) W 272 0 min 0,000 mm 0,0 UV-I 10 W/m 15,6 C 26,2 C 6,4 km/h (2 Bft) 97,92 %
10.07.2017 20:42 26,2 C 26,7 C 52 % 1006,6 hPa 0,0 l/m 1,7 km/h (1 Bft) W 272 0 min 0,000 mm 0,0 UV-I 7 W/m 15,6 C 26,2 C 3,2 km/h (1 Bft) 93,62 %
10.07.2017 20:44 26,1 C 26,7 C 52 % 1006,6 hPa 0,0 l/m 0,4 km/h (0 Bft) W 272 0 min 0,000 mm 0,0 UV-I 7 W/m 15,5 C 26,1 C 1,6 km/h (1 Bft) 91,49 %
10.07.2017 20:46 26,1 C 26,7 C 52 % 1006,6 hPa 0,0 l/m 0,0 km/h (0 Bft) W 272 0 min 0,000 mm 0,0 UV-I 5 W/m 15,5 C 26,1 C 0,0 km/h (0 Bft) 93,62 %
10.07.2017 20:48 25,9 C 26,7 C 53 % 1006,6 hPa 0,0 l/m 0,0 km/h (0 Bft) W 272 0 min 0,000 mm 0,0 UV-I 5 W/m 15,6 C 25,9 C 0,0 km/h (0 Bft) 95,74 %
10.07.2017 20:50 25,9 C 26,7 C 54 % 1006,7 hPa 0,0 l/m 1,3 km/h (1 Bft) W 272 0 min 0,000 mm 0,0 UV-I 5 W/m 15,9 C 25,9 C 3,2 km/h (1 Bft) 95,74 %
10.07.2017 20:52 25,8 C 26,7 C 54 % 1006,8 hPa 0,0 l/m 1,5 km/h (1 Bft) W 272 0 min 0,000 mm 0,0 UV-I 5 W/m 15,8 C 25,8 C 3,2 km/h (1 Bft) 97,87 %
10.07.2017 20:54 25,8 C 26,7 C 55 % 1006,8 hPa 0,0 l/m 1,9 km/h (1 Bft) W 272 0 min 0,000 mm 0,0 UV-I 5 W/m 16,1 C 25,8 C 3,2 km/h (1 Bft) 95,74 %
10.07.2017 20:56 25,7 C 26,7 C 56 % 1006,8 hPa 0,0 l/m 2,4 km/h (1 Bft) W 272 0 min 0,000 mm 0,0 UV-I 5 W/m 16,2 C 25,7 C 3,2 km/h (1 Bft) 97,87 %
10.07.2017 20:58 25,6 C 26,7 C 56 % 1006,8 hPa 0,0 l/m 1,8 km/h (1 Bft) W 272 0 min 0,000 mm 0,0 UV-I 5 W/m 16,2 C 25,6 C 3,2 km/h (1 Bft) 95,74 %
10.07.2017 21:00 25,4 C 26,7 C 58 % 1006,8 hPa 0,0 l/m 1,7 km/h (1 Bft) W 272 0 min 0,000 mm 0,0 UV-I 5 W/m 16,5 C 25,4 C 3,2 km/h (1 Bft) 95,74 %
10.07.2017 21:02 25,4 C 26,7 C 58 % 1006,8 hPa 0,0 l/m 1,3 km/h (1 Bft) W 272 0 min 0,050 mm 0,0 UV-I 4 W/m 16,5 C 25,4 C 1,6 km/h (1 Bft) 97,37 %
10.07.2017 21:04 25,3 C 26,7 C 58 % 1006,8 hPa 0,0 l/m 1,3 km/h (1 Bft) W 272 0 min 0,000 mm 0,0 UV-I 0 W/m 16,4 C 25,3 C 3,2 km/h (1 Bft) 95,74 %
10.07.2017 21:06 25,2 C 26,7 C 59 % 1006,9 hPa 0,0 l/m 1,8 km/h (1 Bft) W 272 0 min 0,000 mm 0,0 UV-I 0 W/m 16,6 C 25,2 C 3,2 km/h (1 Bft) 97,96 %
10.07.2017 21:08 25,2 C 26,7 C 61 % 1006,9 hPa 0,0 l/m 2,9 km/h (1 Bft) W 272 0 min 0,000 mm 0,0 UV-I 0 W/m 17,1 C 25,2 C 4,8 km/h (1 Bft) 93,62 %
10.07.2017 21:10 25,1 C 26,7 C 61 % 1007,0 hPa 0,0 l/m 2,3 km/h (1 Bft) W 272 0 min 0,000 mm 0,0 UV-I 0 W/m 17,0 C 25,1 C 4,8 km/h (1 Bft) 97,87 %
10.07.2017 21:12 24,9 C 26,7 C 62 % 1007,0 hPa 0,0 l/m 2,9 km/h (1 Bft) W 272 0 min 0,000 mm 0,0 UV-I 0 W/m 17,1 C 24,9 C 4,8 km/h (1 Bft) 94,00 %
10.07.2017 21:14 24,8 C 26,7 C 63 % 1007,1 hPa 0,0 l/m 2,9 km/h (1 Bft) W 272 0 min 0,000 mm 0,0 UV-I 0 W/m 17,3 C 24,8 C 4,8 km/h (1 Bft) 97,87 %
10.07.2017 21:16 24,6 C 26,7 C 66 % 1007,1 hPa 0,0 l/m 5,5 km/h (1 Bft) W-SW 251 0 min 0,000 mm 0,0 UV-I 0 W/m 17,8 C 24,6 C 9,7 km/h (2 Bft) 97,87 %
10.07.2017 21:18 24,4 C 26,7 C 64 % 1007,3 hPa 0,0 l/m 7,4 km/h (2 Bft) W-SW 252 0 min 0,000 mm 0,0 UV-I 0 W/m 17,1 C 24,1 C 11,3 km/h (2 Bft) 93,62 %
10.07.2017 21:20 24,4 C 26,7 C 63 % 1007,3 hPa 0,0 l/m 10,0 km/h (2 Bft) W-SW 252 0 min 0,000 mm 0,0 UV-I 0 W/m 16,9 C 23,5 C 19,3 km/h (3 Bft) 96,08 %
10.07.2017 21:22 24,4 C 26,7 C 63 % 1007,3 hPa 0,0 l/m 17,7 km/h (3 Bft) W-SW 246 0 min 0,000 mm 0,0 UV-I 0 W/m 16,9 C 22,2 C 27,4 km/h (4 Bft) 100,00 %
10.07.2017 21:24 24,3 C 26,7 C 64 % 1007,3 hPa 0,0 l/m 8,9 km/h (2 Bft) W-SW 256 0 min 0,000 mm 0,0 UV-I 0 W/m 17,0 C 23,6 C 16,1 km/h (3 Bft) 97,87 %
10.07.2017 21:26 24,0 C 26,7 C 65 % 1007,4 hPa 0,0 l/m 8,6 km/h (2 Bft) W 263 0 min 0,000 mm 0,0 UV-I 0 W/m 17,0 C 23,4 C 12,9 km/h (3 Bft) 100,00 %
10.07.2017 21:29 23,6 C 26,7 C 67 % 1007,5 hPa 0,0 l/m 12,4 km/h (3 Bft) W 273 0 min 0,000 mm 0,0 UV-I 0 W/m 17,1 C 22,1 C 20,9 km/h (4 Bft) 97,56 %
10.07.2017 21:30 23,5 C 26,7 C 68 % 1007,5 hPa 0,0 l/m 17,5 km/h (3 Bft) SW 230 0 min 0,000 mm 0,0 UV-I 0 W/m 17,2 C 21,1 C 24,1 km/h (4 Bft) 100,00 %
10.07.2017 21:34 23,1 C 26,7 C 69 % 1007,5 hPa 0,0 l/m 10,2 km/h (2 Bft) W-SW 248 0 min 0,000 mm 0,0 UV-I 0 W/m 17,1 C 22,0 C 20,9 km/h (4 Bft) 94,85 %
10.07.2017 21:36 23,0 C 26,7 C 69 % 1007,6 hPa 0,0 l/m 8,2 km/h (2 Bft) W-SW 242 0 min 0,000 mm 0,0 UV-I 0 W/m 17,0 C 22,4 C 12,9 km/h (3 Bft) 96,00 %
10.07.2017 21:38 22,9 C 26,7 C 69 % 1007,7 hPa 0,0 l/m 12,2 km/h (2 Bft) W-SW 245 0 min 0,000 mm 0,0 UV-I 0 W/m 16,9 C 21,3 C 19,3 km/h (3 Bft) 95,74 %
10.07.2017 21:40 22,9 C 26,7 C 70 % 1008,0 hPa 0,0 l/m 12,6 km/h (3 Bft) W 259 0 min 0,000 mm 0,0 UV-I 0 W/m 17,1 C 21,2 C 19,3 km/h (3 Bft) 91,49 %
10.07.2017 21:42 22,8 C 26,7 C 71 % 1008,4 hPa 0,0 l/m 14,2 km/h (3 Bft) W-SW 244 0 min 0,000 mm 0,0 UV-I 0 W/m 17,3 C 20,8 C 19,3 km/h (3 Bft) 97,37 %
10.07.2017 21:44 22,8 C 26,7 C 73 % 1008,7 hPa 0,0 l/m 19,9 km/h (4 Bft) SW 223 0 min 0,000 mm 0,0 UV-I 0 W/m 17,7 C 19,8 C 30,6 km/h (5 Bft) 93,62 %
10.07.2017 21:46 22,4 C 26,7 C 75 % 1009,0 hPa 0,2 l/m 18,2 km/h (3 Bft) SW 236 0 min 0,000 mm 0,0 UV-I 0 W/m 17,7 C 19,6 C 27,4 km/h (4 Bft) 93,62 %
10.07.2017 21:48 21,9 C 26,7 C 78 % 1008,8 hPa 0,0 l/m 17,4 km/h (3 Bft) W-SW 251 0 min 0,000 mm 0,0 UV-I 0 W/m 17,9 C 19,1 C 27,4 km/h (4 Bft) 93,62 %
10.07.2017 21:50 21,6 C 26,7 C 80 % 1008,8 hPa 0,2 l/m 16,2 km/h (3 Bft) W-NW 286 0 min 0,000 mm 0,0 UV-I 0 W/m 18,0 C 18,9 C 24,1 km/h (4 Bft) 94,00 %
10.07.2017 21:52 21,1 C 26,7 C 82 % 1008,7 hPa 0,0 l/m 7,2 km/h (2 Bft) W-SW 250 0 min 0,000 mm 0,0 UV-I 0 W/m 17,9 C 20,8 C 12,9 km/h (3 Bft) 94,00 %
10.07.2017 21:54 20,8 C 26,7 C 84 % 1008,7 hPa 0,0 l/m 9,8 km/h (2 Bft) W 263 0 min 0,000 mm 0,0 UV-I 0 W/m 18,0 C 19,6 C 14,5 km/h (3 Bft) 91,49 %
10.07.2017 21:56 20,6 C 26,7 C 85 % 1008,6 hPa 0,2 l/m 9,3 km/h (2 Bft) W 275 0 min 0,000 mm 0,0 UV-I 0 W/m 18,0 C 19,5 C 16,1 km/h (3 Bft) 95,74 %
10.07.2017 21:58 20,3 C 26,7 C 86 % 1008,5 hPa 0,0 l/m 5,5 km/h (1 Bft) W-NW 292 0 min 0,000 mm 0,0 UV-I 0 W/m 17,9 C 20,3 C 11,3 km/h (2 Bft) 97,87 %
10.07.2017 22:00 20,2 C 26,7 C 88 % 1008,5 hPa 0,0 l/m 1,7 km/h (1 Bft) W-NW 292 0 min 0,000 mm 0,0 UV-I 0 W/m 18,1 C 20,2 C 3,2 km/h (1 Bft) 93,75 %
10.07.2017 22:02 20,1 C 26,7 C 88 % 1008,7 hPa 0,2 l/m 3,6 km/h (1 Bft) S-SO 166 0 min 0,051 mm 0,0 UV-I 0 W/m 18,0 C 20,1 C 6,4 km/h (2 Bft) 94,74 %
10.07.2017 22:04 20,0 C 26,7 C 89 % 1008,9 hPa 3,6 l/m 4,9 km/h (1 Bft) S 182 0 min 0,000 mm 0,0 UV-I 0 W/m 18,1 C 20,0 C 9,7 km/h (2 Bft) 93,62 %
10.07.2017 22:06 20,0 C 26,7 C 90 % 1009,2 hPa 0,0 l/m 5,1 km/h (1 Bft) S-SW 196 0 min 0,000 mm 0,0 UV-I 0 W/m 18,3 C 20,0 C 11,3 km/h (2 Bft) 96,00 %
10.07.2017 22:08 19,9 C 26,7 C 90 % 1009,2 hPa 0,0 l/m 5,0 km/h (1 Bft) S-SO 168 0 min 0,000 mm 0,0 UV-I 0 W/m 18,2 C 19,9 C 8,0 km/h (2 Bft) 97,87 %
10.07.2017 22:10 19,8 C 26,7 C 91 % 1009,1 hPa 0,0 l/m 3,0 km/h (1 Bft) S 171 0 min 0,000 mm 0,0 UV-I 0 W/m 18,3 C 19,8 C 6,4 km/h (2 Bft) 95,74 %
10.07.2017 22:12 19,8 C 26,7 C 91 % 1009,0 hPa 0,0 l/m 2,5 km/h (1 Bft) S-SO 164 0 min 0,000 mm 0,0 UV-I 0 W/m 18,3 C 19,8 C 6,4 km/h (2 Bft) 100,00 %
10.07.2017 22:14 19,8 C 26,7 C 91 % 1009,1 hPa 0,0 l/m 2,0 km/h (1 Bft) S-SO 164 0 min 0,000 mm 0,0 UV-I 0 W/m 18,3 C 19,8 C 6,4 km/h (2 Bft) 89,36 %
10.07.2017 22:16 19,8 C 26,7 C 91 % 1009,3 hPa 0,0 l/m 6,9 km/h (2 Bft) SW 228 0 min 0,000 mm 0,0 UV-I 0 W/m 18,3 C 19,6 C 11,3 km/h (2 Bft) 91,49 %
10.07.2017 22:18 19,7 C 26,7 C 92 % 1009,4 hPa 0,2 l/m 7,2 km/h (2 Bft) SW 218 0 min 0,000 mm 0,0 UV-I 0 W/m 18,4 C 19,4 C 9,7 km/h (2 Bft) 98,00 %
10.07.2017 22:20 19,7 C 26,7 C 92 % 1009,6 hPa 0,6 l/m 7,9 km/h (2 Bft) SW 218 0 min 0,000 mm 0,0 UV-I 0 W/m 18,4 C 19,1 C 14,5 km/h (3 Bft) 100,00 %
10.07.2017 22:22 19,6 C 26,7 C 92 % 1009,8 hPa 0,4 l/m 12,4 km/h (3 Bft) S-SW 211 0 min 0,000 mm 0,0 UV-I 0 W/m 18,3 C 17,5 C 20,9 km/h (4 Bft) 98,11 %
10.07.2017 22:24 19,6 C 26,1 C 92 % 1010,1 hPa 0,4 l/m 9,0 km/h (2 Bft) S 180 0 min 0,000 mm 0,0 UV-I 0 W/m 18,3 C 18,6 C 12,9 km/h (3 Bft) 97,87 %
10.07.2017 22:26 19,5 C 26,1 C 92 % 1010,2 hPa 0,4 l/m 11,2 km/h (2 Bft) S-SW 213 0 min 0,000 mm 0,0 UV-I 0 W/m 18,2 C 17,7 C 20,9 km/h (4 Bft) 95,74 %
10.07.2017 22:28 19,5 C 26,1 C 92 % 1010,2 hPa 0,4 l/m 13,2 km/h (3 Bft) SW 222 0 min 0,000 mm 0,0 UV-I 0 W/m 18,2 C 17,1 C 22,5 km/h (4 Bft) 98,00 %
10.07.2017 22:30 19,4 C 26,1 C 92 % 1010,0 hPa 0,2 l/m 11,1 km/h (2 Bft) S-SW 195 0 min 0,000 mm 0,0 UV-I 0 W/m 18,1 C 17,6 C 19,3 km/h (3 Bft) 97,87 %
10.07.2017 22:32 19,4 C 26,1 C 92 % 1010,0 hPa 0,2 l/m 12,8 km/h (3 Bft) SW 222 0 min 0,000 mm 0,0 UV-I 0 W/m 18,1 C 17,1 C 19,3 km/h (3 Bft) 97,62 %
10.07.2017 22:34 19,4 C 26,1 C 92 % 1009,8 hPa 0,2 l/m 13,3 km/h (3 Bft) SW 234 0 min 0,000 mm 0,0 UV-I 0 W/m 18,1 C 17,0 C 19,3 km/h (3 Bft) 95,74 %
10.07.2017 22:36 19,3 C 26,1 C 92 % 1009,7 hPa 0,0 l/m 12,6 km/h (3 Bft) W 262 0 min 0,000 mm 0,0 UV-I 0 W/m 18,0 C 17,0 C 17,7 km/h (3 Bft) 98,00 %
10.07.2017 22:38 19,3 C 26,1 C 93 % 1009,6 hPa 0,2 l/m 16,6 km/h (3 Bft) W-SW 250 0 min 0,000 mm 0,0 UV-I 0 W/m 18,1 C 16,0 C 25,7 km/h (4 Bft) 97,87 %
10.07.2017 22:40 19,3 C 26,1 C 93 % 1009,6 hPa 0,0 l/m 13,4 km/h (3 Bft) SW 232 0 min 0,000 mm 0,0 UV-I 0 W/m 18,1 C 16,8 C 22,5 km/h (4 Bft) 95,74 %
10.07.2017 22:42 19,3 C 26,1 C 93 % 1009,7 hPa 0,2 l/m 11,9 km/h (2 Bft) S-SW 202 0 min 0,000 mm 0,0 UV-I 0 W/m 18,1 C 17,3 C 20,9 km/h (4 Bft) 91,67 %
10.07.2017 22:44 19,3 C 26,1 C 93 % 1009,8 hPa 0,4 l/m 10,8 km/h (2 Bft) SW 227 0 min 0,000 mm 0,0 UV-I 0 W/m 18,1 C 17,6 C 19,3 km/h (3 Bft) 97,87 %
10.07.2017 22:46 19,2 C 26,1 C 93 % 1009,7 hPa 0,2 l/m 8,9 km/h (2 Bft) W-SW 243 0 min 0,000 mm 0,0 UV-I 0 W/m 18,0 C 18,2 C 16,1 km/h (3 Bft) 91,49 %
10.07.2017 22:48 19,2 C 26,1 C 93 % 1009,8 hPa 0,2 l/m 9,1 km/h (2 Bft) SW 219 0 min 0,000 mm 0,0 UV-I 0 W/m 18,0 C 18,1 C 14,5 km/h (3 Bft) 98,00 %
10.07.2017 22:50 19,1 C 26,1 C 93 % 1009,9 hPa 0,4 l/m 13,2 km/h (3 Bft) W-SW 250 0 min 0,000 mm 0,0 UV-I 0 W/m 17,9 C 16,6 C 19,3 km/h (3 Bft) 94,59 %
10.07.2017 22:52 19,0 C 26,1 C 93 % 1009,9 hPa 0,2 l/m 10,9 km/h (2 Bft) SW 231 0 min 0,000 mm 0,0 UV-I 0 W/m 17,8 C 17,2 C 17,7 km/h (3 Bft) 95,74 %
10.07.2017 22:54 19,0 C 26,1 C 93 % 1010,0 hPa 0,0 l/m 13,1 km/h (3 Bft) SW 236 0 min 0,000 mm 0,0 UV-I 0 W/m 17,8 C 16,6 C 19,3 km/h (3 Bft) 97,87 %
10.07.2017 22:56 18,9 C 26,1 C 93 % 1009,9 hPa 0,2 l/m 12,8 km/h (3 Bft) W-SW 239 0 min 0,000 mm 0,0 UV-I 0 W/m 17,7 C 16,5 C 19,3 km/h (3 Bft) 96,00 %
10.07.2017 22:58 18,8 C 26,1 C 93 % 1010,0 hPa 0,0 l/m 14,8 km/h (3 Bft) SW 234 0 min 0,000 mm 0,0 UV-I 0 W/m 17,6 C 15,8 C 24,1 km/h (4 Bft) 100,00 %
10.07.2017 23:00 18,8 C 26,1 C 93 % 1009,9 hPa 0,2 l/m 14,0 km/h (3 Bft) S-SW 209 0 min 0,026 mm 0,0 UV-I 0 W/m 17,6 C 16,1 C 22,5 km/h (4 Bft) 95,74 %
10.07.2017 23:02 18,7 C 26,1 C 93 % 1010,0 hPa 0,0 l/m 15,0 km/h (3 Bft) S-SW 209 0 min 0,000 mm 0,0 UV-I 0 W/m 17,5 C 15,7 C 25,7 km/h (4 Bft) 93,75 %
10.07.2017 23:04 18,6 C 26,1 C 93 % 1009,8 hPa 0,2 l/m 11,0 km/h (2 Bft) S-SW 213 0 min 0,000 mm 0,0 UV-I 0 W/m 17,4 C 16,7 C 19,3 km/h (3 Bft) 95,74 %
10.07.2017 23:06 18,6 C 26,1 C 93 % 1009,9 hPa 0,0 l/m 12,2 km/h (2 Bft) S-SW 200 0 min 0,000 mm 0,0 UV-I 0 W/m 17,4 C 16,4 C 17,7 km/h (3 Bft) 97,87 %
10.07.2017 23:08 18,5 C 26,1 C 93 % 1009,9 hPa 0,0 l/m 16,2 km/h (3 Bft) SW 218 0 min 0,000 mm 0,0 UV-I 0 W/m 17,3 C 15,1 C 22,5 km/h (4 Bft) 95,12 %
10.07.2017 23:10 18,4 C 26,1 C 93 % 1009,9 hPa 0,0 l/m 12,0 km/h (2 Bft) S-SW 207 0 min 0,000 mm 0,0 UV-I 0 W/m 17,2 C 16,2 C 19,3 km/h (3 Bft) 95,83 %
10.07.2017 23:12 18,3 C 26,1 C 93 % 1009,9 hPa 0,0 l/m 10,5 km/h (2 Bft) S-SW 196 0 min 0,000 mm 0,0 UV-I 0 W/m 17,1 C 16,6 C 17,7 km/h (3 Bft) 97,87 %
10.07.2017 23:14 18,3 C 26,1 C 93 % 1009,9 hPa 0,2 l/m 9,1 km/h (2 Bft) SW 215 0 min 0,000 mm 0,0 UV-I 0 W/m 17,1 C 17,1 C 16,1 km/h (3 Bft) 97,87 %
10.07.2017 23:16 18,2 C 26,1 C 93 % 1009,9 hPa 0,0 l/m 9,1 km/h (2 Bft) S-SW 198 0 min 0,000 mm 0,0 UV-I 0 W/m 17,0 C 17,0 C 14,5 km/h (3 Bft) 97,87 %
10.07.2017 23:18 18,2 C 26,1 C 93 % 1009,9 hPa 0,0 l/m 8,9 km/h (2 Bft) S-SW 207 0 min 0,000 mm 0,0 UV-I 0 W/m 17,0 C 17,1 C 17,7 km/h (3 Bft) 97,87 %
10.07.2017 23:20 18,2 C 26,1 C 93 % 1010,0 hPa 0,2 l/m 8,7 km/h (2 Bft) S-SW 211 0 min 0,000 mm 0,0 UV-I 0 W/m 17,0 C 17,2 C 14,5 km/h (3 Bft) 97,87 %
10.07.2017 23:22 18,1 C 26,1 C 94 % 1010,1 hPa 0,0 l/m 10,1 km/h (2 Bft) S-SW 196 0 min 0,000 mm 0,0 UV-I 0 W/m 17,1 C 16,5 C 16,1 km/h (3 Bft) 95,74 %
10.07.2017 23:24 18,1 C 26,1 C 94 % 1010,3 hPa 0,0 l/m 11,6 km/h (2 Bft) S 188 0 min 0,000 mm 0,0 UV-I 0 W/m 17,1 C 16,0 C 20,9 km/h (4 Bft) 97,87 %
10.07.2017 23:26 18,1 C 26,1 C 94 % 1010,4 hPa 0,2 l/m 12,7 km/h (3 Bft) SW 215 0 min 0,000 mm 0,0 UV-I 0 W/m 17,1 C 15,6 C 19,3 km/h (3 Bft) 95,74 %
10.07.2017 23:28 18,1 C 26,1 C 93 % 1010,3 hPa 0,0 l/m 11,5 km/h (2 Bft) S-SW 196 0 min 0,000 mm 0,0 UV-I 0 W/m 16,9 C 16,0 C 19,3 km/h (3 Bft) 97,87 %
10.07.2017 23:30 18,0 C 26,1 C 93 % 1010,3 hPa 0,0 l/m 13,0 km/h (3 Bft) S-SW 202 0 min 0,000 mm 0,0 UV-I 0 W/m 16,8 C 15,4 C 20,9 km/h (4 Bft) 98,00 %
10.07.2017 23:32 17,9 C 26,1 C 93 % 1010,2 hPa 0,0 l/m 7,9 km/h (2 Bft) S-SW 207 0 min 0,000 mm 0,0 UV-I 0 W/m 16,8 C 17,2 C 14,5 km/h (3 Bft) 91,49 %
10.07.2017 23:34 17,9 C 26,1 C 93 % 1010,3 hPa 0,0 l/m 12,1 km/h (2 Bft) S-SW 193 0 min 0,000 mm 0,0 UV-I 0 W/m 16,8 C 15,6 C 20,9 km/h (4 Bft) 93,62 %
10.07.2017 23:36 17,9 C 26,1 C 93 % 1010,3 hPa 0,0 l/m 11,4 km/h (2 Bft) S-SW 201 0 min 0,000 mm 0,0 UV-I 0 W/m 16,8 C 15,8 C 17,7 km/h (3 Bft) 97,87 %
10.07.2017 23:38 17,9 C 26,1 C 93 % 1010,3 hPa 0,0 l/m 11,7 km/h (2 Bft) S-SO 163 0 min 0,000 mm 0,0 UV-I 0 W/m 16,8 C 15,7 C 17,7 km/h (3 Bft) 93,62 %
10.07.2017 23:40 17,9 C 26,1 C 94 % 1010,3 hPa 0,0 l/m 8,6 km/h (2 Bft) S 182 0 min 0,000 mm 0,0 UV-I 0 W/m 16,9 C 16,9 C 17,7 km/h (3 Bft) 98,00 %
10.07.2017 23:42 17,8 C 26,1 C 93 % 1010,3 hPa 0,0 l/m 8,6 km/h (2 Bft) S 178 0 min 0,000 mm 0,0 UV-I 0 W/m 16,7 C 16,8 C 16,1 km/h (3 Bft) 95,74 %
10.07.2017 23:44 17,8 C 26,1 C 93 % 1010,3 hPa 0,0 l/m 7,8 km/h (2 Bft) SW 231 0 min 0,000 mm 0,0 UV-I 0 W/m 16,7 C 17,1 C 14,5 km/h (3 Bft) 91,49 %
10.07.2017 23:46 17,8 C 26,1 C 93 % 1010,3 hPa 0,0 l/m 5,8 km/h (2 Bft) S-SW 200 0 min 0,000 mm 0,0 UV-I 0 W/m 16,7 C 17,8 C 11,3 km/h (2 Bft) 92,11 %
10.07.2017 23:48 17,8 C 26,1 C 93 % 1010,2 hPa 0,0 l/m 7,4 km/h (2 Bft) S 188 0 min 0,000 mm 0,0 UV-I 0 W/m 16,7 C 17,3 C 12,9 km/h (3 Bft) 93,62 %
10.07.2017 23:50 17,8 C 26,1 C 93 % 1010,2 hPa 0,2 l/m 5,4 km/h (1 Bft) SW 215 0 min 0,000 mm 0,0 UV-I 0 W/m 16,7 C 17,8 C 9,7 km/h (2 Bft) 91,49 %
10.07.2017 23:52 17,9 C 26,1 C 93 % 1010,2 hPa 0,0 l/m 7,8 km/h (2 Bft) S-SW 213 0 min 0,000 mm 0,0 UV-I 0 W/m 16,8 C 17,2 C 12,9 km/h (3 Bft) 93,75 %
10.07.2017 23:54 17,9 C 26,1 C 93 % 1010,2 hPa 0,0 l/m 7,3 km/h (2 Bft) S-SW 192 0 min 0,000 mm 0,0 UV-I 0 W/m 16,8 C 17,5 C 14,5 km/h (3 Bft) 93,62 %
10.07.2017 23:56 17,8 C 26,1 C 93 % 1010,2 hPa 0,0 l/m 7,6 km/h (2 Bft) S 170 0 min 0,000 mm 0,0 UV-I 0 W/m 16,7 C 17,2 C 16,1 km/h (3 Bft) 93,62 %
10.07.2017 23:58 17,8 C 26,1 C 93 % 1010,2 hPa 0,0 l/m 8,9 km/h (2 Bft) S-SW 196 0 min 0,000 mm 0,0 UV-I 0 W/m 16,7 C 16,7 C 16,1 km/h (3 Bft) 93,62 %
_ Min-Zeit 03:24 02:52 17:28 20:42 - 00:52 - - - - - - 20:30 01:54 02:52 11:54
Minimum _ 17,1 C 25,0 C 47 % 1006,6 hPa - 0,0 km/h (0 Bft) - - - - - - 15,2 C 14,2 C 0,0 km/h (0 Bft) 85,11 %
_ Max-Zeit 17:20 15:20 06:16 00:46 22:04 21:44 - - 10:19 15:00 13:06 14:18 10:38 17:24 14:08 00:40
Maximum _ 29,3 C 26,7 C 98 % 1011,0 hPa 3,6 l/m 19,9 km/h
SW (4 Bft)
- - 3 min 0,635 mm 6,5 UV-I 1067 W/m 19,7 C 29,2 C 30,6 km/h
SW (5 Bft)
100,00 %
Durchschnitt _ 22,2 C 25,8 C 78 % 1008,4 hPa #11,0 l/m 5,2 km/h (1 Bft) W-SW - #8:01 h #4,420 mm 3,4 UV-I 393 W/m 17,6 C 21,9 C 9,6 km/h (2 Bft) 96,34 %